GFSMA_con_lsi_000.txt.gz
Lid_Strength_Index
3 3 3 3 3 4 4 4 5 5 5 6 7 7 8 8 8 8 9 1 -0 -0 -1 -1 -2 -2 -2 -2 -2 -2 -2 -2 -2 -2 -2 -2 -2 -2 -2 -2 -2 -2 -2
2 3 3 3 3 3 3 4 4 5 5 5 5 7 8 8 8 8 8 7 1 0 1 1 -1 -1 -2 -2 -2 -2 -2 -2 -2 -2 -2 -2 -2 -2 -2 -2 -2 -2 -2
2 2 3 4 3 3 2 3 4 4 5 4 5 5 6 7 7 7 8 8 5 2 1 1 1 -0 -1 -2 -2 -3 -3 -3 -3 -3 -3 -2 -2 -2 -2 -2 -2 -2 -2
2 2 3 3 3 3 3 3 3 4 4 5 5 5 5 6 7 7 7 7 7 6 3 1 0 -0 -1 -1 -2 -3 -3 -3 -2 -2 -2 -2 -2 -2 -2 -2 -2 -2 -2
1 1 1 2 3 3 3 3 3 4 4 4 4 5 5 5 5 5 6 7 7 7 7 3 1 0 -1 -1 -1 -2 -2 -3 -2 -2 -2 -2 -2 -2 -2 -2 -2 -2 -2
1 1 1 1 2 3 3 2 2 3 3 3 2 3 4 4 4 5 5 4 5 6 7 7 5 3 -0 -1 -2 -2 -2 -3 -2 -2 -2 -2 -2 -2 -2 -2 -2 -2 -2
1 1 1 1 1 2 3 3 2 3 3 3 4 5 5 4 5 5 5 4 4 5 6 6 5 6 4 -0 -2 -1 -1 -2 -2 -2 -2 -2 -2 -2 -2 -2 -2 -2 -2
1 1 1 1 1 1 2 3 3 3 2 3 4 6 6 6 4 3 3 3 3 3 4 5 6 6 5 4 2 -1 -2 -2 -2 -2 -2 -2 -2 -2 -2 -2 -2 -2 -2
1 1 1 1 1 1 1 2 2 3 3 3 2 4 7 8 8 5 4 3 3 5 5 5 5 5 6 5 3 1 -0 -1 -2 -2 -2 -2 -2 -2 -2 -2 -2 -2 -2
1 1 1 1 1 1 1 1 1 2 2 3 2 2 3 5 8 7 6 6 6 6 6 5 5 5 4 4 2 2 1 -1 -1 -2 -2 -2 -2 -2 -2 -2 -2 -1 -1
1 1 1 1 1 1 1 1 1 1 1 2 3 3 3 3 3 5 6 5 5 5 5 4 4 4 3 3 2 2 -0 -1 -2 -2 -2 -2 -2 -2 -2 -1 -1 -1 -0
2 1 1 1 1 1 1 1 1 1 2 2 2 2 3 4 4 4 5 5 5 3 3 3 3 3 2 3 2 1 0 -1 -1 -2 -2 -2 -1 -1 -1 -1 -0 0 1
3 2 2 1 1 1 1 1 1 1 2 2 2 2 2 2 2 3 4 5 5 4 4 2 3 2 2 2 1 2 1 -0 -1 -1 -2 -2 -1 0 1 1 1 2 2
1 1 1 2 2 1 1 1 1 1 1 2 2 2 2 2 2 2 3 4 5 5 3 4 3 2 2 2 2 2 3 1 0 0 -1 -1 1 2 3 3 3 3 4
3 3 2 1 1 1 1 1 1 1 1 1 2 2 2 2 1 2 2 2 4 7 6 3 3 2 2 2 2 3 5 3 2 1 1 1 2 3 4 4 5 5 5
5 5 5 5 4 3 2 1 1 1 2 1 1 2 2 2 2 2 2 2 2 4 6 3 3 3 3 3 4 5 6 5 3 2 2 3 4 4 5 5 6 6 7
6 6 6 6 5 5 4 3 2 1 2 2 2 2 2 2 2 2 2 2 2 3 5 3 2 2 6 7 6 7 6 6 5 4 4 5 5 5 6 6 7 7 8
5 5 5 4 5 5 4 4 4 3 3 2 2 2 2 2 2 2 2 2 2 2 3 5 3 3 7 8 7 8 8 7 7 6 5 6 6 6 7 7 8 8 8
5 5 5 5 4 4 4 4 3 3 3 2 2 2 2 2 2 2 2 2 2 2 3 4 4 2 6 8 9 9 9 8 8 7 6 6 7 7 7 8 8 8 9
6 6 5 5 5 4 4 3 3 3 3 2 2 2 2 2 2 2 2 2 2 3 3 3 4 4 8 9 8 9 10 9 10 9 8 9 8 8 8 8 9 9 9
6 6 6 6 5 5 4 4 4 4 4 3 2 2 1 2 4 3 2 2 3 3 3 4 4 5 9 11 10 9 9 10 10 11 12 12 12 13 12 10 10 9 10
6 6 6 6 6 5 4 4 3 4 4 3 3 2 1 3 2 2 3 4 3 3 4 4 4 5 6 6 8 9 9 12 13 12 14 14 14 15 13 14 10 10 10
8 8 7 7 6 6 4 3 3 4 4 4 3 3 2 2 3 2 2 3 3 4 3 3 4 4 4 5 7 9 10 11 13 15 15 16 16 16 14 12 10 10 10
9 9 8 7 7 6 4 4 4 4 5 4 4 4 2 2 2 2 2 2 2 2 2 3 2 2 2 4 7 8 10 14 15 15 15 17 16 16 15 14 10 10 10
10 10 9 8 7 7 5 4 5 6 5 5 3 3 3 3 2 2 2 3 3 3 6 6 4 4 4 5 7 11 14 14 17 17 16 16 17 17 16 15 15 11 11
10 9 9 8 6 7 5 4 5 6 7 6 5 5 4 3 2 2 3 3 4 3 8 10 9 8 8 8 8 10 13 15 16 17 15 17 17 17 18 16 16 16 15

GFSMA_con_lsi_003.txt.gz
Lid_Strength_Index
4 4 3 3 2 3 2 3 3 4 5 6 6 7 7 7 7 8 9 -0 -1 -2 -1 -1 -1 -1 -1 -1 -1 -1 -2 -2 -2 -2 -2 -2 -2 -2 -2 -2 -2 -2 -2
3 4 4 3 3 3 3 3 4 4 5 6 7 7 7 8 8 8 8 8 -1 -2 -1 -1 -1 -1 -1 -1 -2 -1 -3 -2 -2 -2 -2 -2 -2 -2 -2 -2 -2 -2 -2
2 3 3 3 3 3 4 4 4 5 6 6 6 5 6 7 7 8 8 8 6 0 -1 0 -0 -0 -1 -1 -1 -2 -2 -2 -2 -2 -2 -2 -2 -2 -2 -2 -2 -2 -2
2 2 2 3 3 3 3 4 3 4 5 5 5 4 4 6 7 8 7 7 7 6 2 -1 -1 -1 -2 -1 -1 -1 -2 -2 -2 -2 -2 -2 -2 -2 -2 -2 -2 -2 -2
1 2 2 2 4 3 3 3 3 3 3 3 3 4 4 4 4 5 7 7 7 6 7 3 0 0 -0 -1 -0 -1 -1 -2 -2 -2 -2 -2 -2 -2 -2 -2 -2 -2 -2
2 2 2 2 3 3 3 3 3 4 3 3 2 2 3 4 4 4 4 5 6 6 6 6 6 3 1 -0 -1 -0 -1 -2 -2 -2 -2 -2 -2 -2 -2 -2 -2 -2 -2
3 3 2 2 2 2 3 3 3 4 3 4 5 4 4 4 4 4 4 4 4 5 5 6 6 6 5 1 0 -1 -1 -1 -2 -2 -2 -2 -2 -2 -2 -2 -2 -2 -2
2 3 3 2 2 2 3 3 3 3 3 4 4 7 6 5 4 3 3 4 5 4 4 4 5 5 5 5 4 0 -0 -1 -2 -2 -2 -2 -2 -2 -2 -2 -2 -2 -2
1 2 2 2 2 2 2 2 3 4 4 4 3 4 6 8 9 6 5 3 3 3 3 3 4 4 5 5 4 3 1 -0 -1 -2 -2 -2 -2 -2 -2 -2 -2 -2 -2
1 1 1 1 2 2 2 2 2 2 3 4 4 3 3 6 8 8 7 6 5 4 3 3 3 4 4 4 4 3 3 1 -1 -2 -2 -2 -2 -2 -2 -2 -2 -2 -2
1 1 1 1 2 2 2 1 1 1 2 2 3 4 4 3 4 5 6 4 5 5 4 4 4 4 4 4 4 3 2 1 -1 -2 -2 -2 -2 -1 -2 -2 -2 -1 -1
3 2 1 1 1 1 1 1 1 1 1 2 2 2 3 5 4 5 5 5 4 3 3 4 4 4 4 4 3 2 1 0 -1 -1 -2 -1 -1 -1 -1 -1 -1 -1 -1
3 3 2 1 1 1 1 1 1 1 1 2 2 2 2 2 2 3 4 5 5 3 3 3 2 2 2 3 3 3 2 1 -0 -1 -1 -1 -1 -1 -1 -1 -1 -1 -1
5 5 5 4 3 1 1 1 1 1 1 2 2 2 2 2 2 2 3 4 6 5 4 4 3 2 2 1 2 2 2 2 0 -0 -1 -1 -0 -0 -0 -1 -1 -0 1
5 5 6 6 6 5 5 3 2 1 1 1 2 2 2 2 1 2 2 2 4 7 6 4 4 2 2 2 2 2 2 2 1 -0 -0 0 0 0 0 0 1 2 2
6 6 6 6 6 6 5 5 5 4 3 2 1 2 2 2 2 2 2 2 3 4 6 3 3 2 3 3 3 3 3 3 2 0 0 1 0 1 1 2 3 3 3
5 5 6 6 5 5 5 5 5 4 4 4 3 3 2 2 2 2 2 2 3 3 5 4 2 2 4 3 5 4 4 4 4 2 1 1 1 2 2 3 4 4 4
5 5 5 5 5 5 5 5 5 4 4 4 3 3 2 2 2 2 2 3 3 2 4 5 3 3 4 5 5 6 6 5 6 4 2 2 2 3 4 4 5 5 6
6 6 6 5 6 6 6 5 5 4 4 3 3 3 2 2 3 2 2 3 2 2 3 4 4 2 2 7 9 8 8 7 7 6 3 3 3 4 5 5 6 6 7
6 6 6 6 6 5 5 5 5 6 5 4 4 3 3 2 2 2 2 3 2 3 3 3 4 4 3 7 7 6 10 9 9 8 6 6 5 5 5 6 7 8 8
7 7 7 7 6 6 5 6 6 6 5 5 4 4 3 3 4 2 2 2 3 3 3 4 4 4 4 9 8 9 7 8 9 9 9 8 8 8 9 7 9 8 8
9 8 9 7 8 6 5 4 4 5 4 6 7 6 4 4 3 2 1 2 2 3 4 4 4 5 4 4 5 6 7 11 12 10 11 12 11 12 12 12 10 9 9
10 10 8 8 8 7 5 4 4 6 8 8 7 7 5 4 4 3 3 2 2 2 2 3 4 4 4 3 3 5 6 7 8 12 11 13 14 14 14 12 11 10 10
11 11 10 10 9 9 6 5 4 8 8 7 7 6 5 7 5 4 4 4 4 3 2 2 2 2 2 2 2 3 5 10 14 14 13 16 15 15 14 14 11 10 10
11 11 10 10 10 9 6 5 6 8 9 8 7 6 8 8 6 4 5 5 5 5 3 3 3 3 3 3 3 8 12 13 15 16 15 16 16 16 16 15 14 10 10
11 11 11 10 8 9 6 6 7 8 9 9 7 8 7 6 5 5 6 6 7 6 5 5 4 4 6 5 4 5 7 11 15 17 16 16 17 16 18 16 16 16 15

GFSMA_con_lsi_006.txt.gz
Lid_Strength_Index
3 3 3 2 2 2 3 3 3 3 4 5 6 7 7 6 5 6 7 4 0 -2 -2 -2 -2 -2 -2 -2 -2 -1 -1 -1 -1 -1 -1 -1 -2 -2 -2 -2 -2 -2 -2
2 3 3 2 2 2 3 2 3 3 4 5 5 7 7 7 7 6 6 7 2 -2 -2 -1 -2 -2 -2 -2 -2 -2 -2 -2 -1 -1 -2 -2 -2 -2 -2 -2 -2 -2 -2
2 2 3 3 3 4 3 4 4 5 5 5 6 6 6 7 7 7 7 7 6 2 -1 -2 -1 -2 -2 -2 -2 -2 -2 -2 -2 -2 -2 -2 -2 -2 -2 -2 -2 -2 -2
2 3 3 3 3 4 4 4 4 5 5 5 4 5 5 5 5 6 6 6 7 7 4 -1 -1 -1 -2 -2 -2 -2 -2 -2 -2 -2 -2 -2 -2 -2 -2 -2 -2 -2 -2
2 3 3 3 3 4 4 4 4 4 4 4 4 4 4 4 4 4 5 6 7 7 7 4 2 0 -0 -1 -1 -1 -2 -2 -2 -2 -2 -2 -2 -2 -2 -2 -2 -2 -2
3 3 3 3 3 4 4 4 4 4 4 3 3 3 3 4 3 3 3 4 5 6 7 6 6 5 1 -0 -1 -2 -2 -2 -2 -2 -2 -1 -1 -2 -2 -2 -2 -2 -2
4 4 3 3 4 4 3 4 4 4 4 5 6 4 4 4 4 3 3 4 4 4 5 6 6 6 6 1 -0 -1 -2 -2 -2 -2 -2 -2 -1 -1 -2 -2 -2 -2 -2
3 3 4 3 3 4 3 3 4 5 4 5 5 5 6 4 3 3 3 4 4 3 4 5 5 5 5 5 4 0 -1 -2 -2 -2 -2 -1 -1 -1 -1 -1 -2 -2 -2
2 2 2 3 3 3 3 3 3 4 4 3 4 4 7 7 8 7 6 4 4 4 4 4 4 4 3 4 3 3 1 -0 -1 -2 -2 -1 -1 -1 -1 -1 -1 -1 -2
2 1 1 1 2 2 3 3 3 3 3 4 2 3 3 3 6 6 5 7 6 4 4 3 3 3 3 3 3 3 2 1 -1 -1 -1 -1 -1 -1 -1 -1 -1 -1 -1
3 2 1 1 1 1 1 2 2 2 2 2 3 3 4 4 3 5 7 5 3 5 5 4 4 3 3 3 3 3 2 0 -1 -1 -1 -1 -1 -1 -1 -1 -1 -1 -1
4 4 4 3 1 1 1 1 1 1 1 2 2 2 3 4 4 5 5 5 5 3 2 5 5 4 4 4 4 3 2 1 -0 -1 -1 -1 -1 -1 -1 -1 -1 -1 -1
6 6 6 6 6 5 4 2 1 1 1 2 2 2 2 2 2 3 4 5 5 3 3 2 2 2 2 3 4 4 3 1 0 -1 -1 -1 -1 -0 -0 -1 -1 -1 -1
6 6 6 6 6 5 5 5 5 4 3 2 2 2 2 2 2 2 3 5 6 5 4 3 2 2 3 2 2 3 3 2 1 -0 -1 -0 -0 0 -0 -0 -0 -0 -0
5 5 5 6 5 5 5 5 5 5 5 4 4 3 2 2 2 2 2 3 4 7 6 4 4 2 2 2 2 2 2 2 1 1 0 0 0 0 0 0 0 -0 -0
7 7 6 6 6 5 5 5 5 5 5 4 4 4 4 3 2 2 2 2 3 4 6 3 3 2 2 3 2 3 2 3 2 1 1 1 1 0 0 0 0 0 0
8 8 7 7 7 6 6 6 6 5 5 5 4 4 4 3 3 2 2 2 3 3 5 4 2 2 2 3 3 3 3 3 3 2 1 1 1 1 0 0 1 1 1
9 9 8 8 8 8 7 6 6 6 6 7 6 5 4 3 3 3 3 3 3 2 4 5 3 3 2 2 2 2 3 3 3 3 2 2 1 1 1 1 1 2 2
10 10 9 9 9 8 7 7 6 6 7 7 6 5 4 4 5 4 4 4 3 2 3 4 4 3 2 2 3 4 3 4 4 4 3 3 2 1 2 2 3 3 4
11 10 10 10 9 7 7 6 6 7 6 6 4 4 5 6 6 5 5 5 4 3 3 3 4 4 3 2 4 3 5 7 5 6 5 4 2 2 2 3 4 5 5
12 11 11 10 9 7 8 6 7 7 6 5 5 6 6 6 4 4 5 7 5 5 5 4 4 4 4 4 4 5 5 4 6 6 8 7 5 4 4 4 6 6 6
12 11 11 10 9 9 6 5 6 7 5 7 8 8 6 6 4 5 5 5 4 5 5 5 5 5 4 4 3 3 4 5 6 6 7 8 7 7 7 6 6 7 7
11 11 11 10 11 10 6 5 5 7 8 8 8 8 8 6 6 8 7 5 6 5 4 5 6 6 5 3 3 4 4 4 5 8 8 10 11 10 10 9 7 8 8
12 12 12 11 11 10 7 5 5 9 10 9 8 8 7 7 7 7 7 8 7 6 6 5 5 5 4 4 3 3 3 4 10 10 8 12 13 12 13 12 8 9 9
13 12 11 11 11 11 7 5 7 9 9 9 8 8 7 7 6 5 7 8 8 7 4 3 3 3 3 3 2 4 6 8 10 12 13 14 15 15 15 15 12 10 10
12 12 12 11 10 11 8 7 7 9 9 9 8 7 6 6 5 6 7 8 8 7 5 5 4 3 3 3 3 6 6 7 10 14 14 14 15 16 17 16 15 15 12

GFSMA_con_lsi_009.txt.gz
Lid_Strength_Index
3 4 4 4 3 3 3 3 3 3 4 4 5 5 5 6 6 6 6 4 2 1 -0 -2 -2 -2 -2 -2 -1 -1 -2 -1 -1 -1 -1 -1 -1 -1 -1 -1 -1 -1 -2
2 3 3 3 3 3 3 3 3 3 3 4 4 5 5 6 7 6 5 6 3 1 0 -1 -2 -2 -2 -2 -2 -2 -2 -2 -2 -2 -2 -2 -2 -2 -2 -2 -2 -1 -1
2 2 3 3 3 3 3 3 3 4 4 4 5 5 5 6 6 6 6 6 6 2 1 -1 -1 -2 -2 -2 -2 -2 -2 -2 -2 -2 -2 -2 -2 -2 -2 -2 -2 -2 -2
2 3 2 2 3 4 4 4 4 4 5 4 4 4 5 5 5 6 6 6 6 6 4 1 -1 -1 -2 -2 -2 -3 -2 -2 -1 -1 -2 -1 -1 -1 -2 -2 -2 -2 -2
3 3 3 3 4 5 5 5 5 5 5 5 5 4 4 5 4 4 4 5 5 5 5 4 3 1 -0 -1 -2 -2 -2 -2 -2 -1 -1 -1 -1 -1 -1 -1 -1 -1 -2
4 4 4 4 4 5 5 5 5 5 5 5 4 4 4 4 4 4 4 4 4 5 5 6 5 5 3 1 -1 -1 -2 -2 -2 -1 -1 -1 -1 -1 -1 -1 -1 -1 -2
4 5 4 4 4 4 4 4 5 5 5 5 5 4 4 3 3 3 3 3 3 3 4 5 6 6 5 2 1 0 -1 -2 -1 -1 -1 -1 -1 -1 -1 -1 -1 -1 -1
3 4 4 4 4 4 4 4 4 5 5 5 5 4 6 4 4 4 3 3 3 3 3 4 4 5 5 5 5 2 0 -1 -2 -1 -1 -1 -1 -1 -1 -1 -1 -1 -1
2 2 2 2 2 3 3 3 3 4 4 3 4 4 6 7 6 5 5 4 3 4 3 4 4 4 5 5 4 3 2 1 -0 -1 -1 -1 -1 -1 -1 -1 -1 -1 -1
4 4 3 2 1 1 2 2 1 2 2 4 3 3 3 3 6 7 4 5 4 4 4 4 4 4 4 4 4 4 3 2 1 -1 -1 -1 -1 -1 -1 -1 -1 -1 -1
5 5 6 5 5 4 2 1 1 1 1 2 3 3 3 3 3 5 7 5 3 3 4 4 3 3 3 3 4 4 2 1 -0 -1 -1 -1 -1 -1 -1 -1 -1 -1 -1
6 6 6 6 7 6 6 5 4 3 1 2 2 2 3 4 4 5 6 5 5 3 2 2 4 4 3 3 3 3 2 1 0 -1 -1 -1 -1 -1 -1 -1 -1 -1 -1
7 7 7 7 7 6 6 6 6 6 5 5 4 3 2 2 2 3 4 5 5 3 3 2 1 2 3 3 3 4 3 2 0 -0 -1 -1 -0 -0 -0 -1 -1 -1 -0
8 8 7 7 7 7 6 6 6 6 6 6 6 5 5 4 2 2 3 4 6 5 4 4 1 1 1 2 2 3 3 3 2 1 -0 -0 0 0 0 -0 -0 -0 -0
8 8 8 8 8 7 7 7 7 7 7 6 6 6 5 4 3 3 2 3 4 7 6 4 3 1 1 1 2 2 2 2 2 2 1 0 0 0 0 0 0 0 0
10 10 10 9 9 8 9 9 8 7 7 7 6 6 6 5 4 3 3 3 3 4 6 4 3 2 1 1 1 2 2 3 2 1 1 1 2 1 1 0 0 0 0
11 11 11 11 11 11 10 9 9 8 8 8 7 6 6 4 4 3 4 4 4 4 5 4 3 3 2 2 1 1 2 2 1 2 1 1 1 2 1 1 1 1 1
12 12 12 12 13 12 11 10 11 8 9 8 7 6 5 3 3 4 5 5 4 4 5 6 5 4 3 2 1 2 1 1 2 1 1 1 1 1 2 1 1 1 1
13 13 13 13 13 12 11 11 10 8 9 8 7 6 4 5 5 7 6 5 5 6 6 5 5 4 4 3 2 2 2 2 1 2 1 1 1 1 1 2 1 1 1
15 14 14 13 13 12 10 10 9 9 9 7 6 4 6 6 6 6 5 7 7 7 7 7 7 6 5 4 3 3 4 2 3 2 2 2 1 1 1 2 2 2 2
15 14 14 13 12 11 10 10 9 9 8 9 9 7 7 6 5 4 5 6 7 7 7 8 7 7 7 6 6 4 4 3 3 2 3 3 3 3 3 2 3 3 3
15 14 13 13 12 11 9 8 7 8 9 10 11 10 8 7 7 4 4 4 5 7 8 8 8 8 8 7 6 5 6 6 6 3 4 4 3 4 3 3 3 3 3
14 14 13 13 13 12 9 7 7 8 10 10 10 9 9 8 7 6 5 5 5 5 5 7 8 7 7 6 6 7 7 6 6 4 4 5 5 5 4 6 3 3 4
14 14 13 13 12 12 9 8 7 10 10 10 9 9 9 8 7 7 7 8 8 7 7 6 6 5 5 5 4 5 5 5 5 4 5 7 6 6 8 9 5 5 6
14 13 13 13 13 12 9 8 8 10 10 10 9 8 8 8 6 6 8 9 9 8 6 4 4 4 4 4 4 4 6 6 7 6 7 6 10 12 11 12 8 6 7
13 13 13 12 11 12 9 8 8 9 9 9 8 8 6 7 6 6 8 9 9 8 7 6 6 6 6 6 4 5 6 8 8 8 9 10 13 13 14 14 13 9 9

GFSMA_con_lsi_012.txt.gz
Lid_Strength_Index
3 3 4 4 3 3 3 3 3 2 3 3 4 4 4 5 6 6 6 4 2 1 -1 -1 -1 -2 -2 -2 -2 -2 -2 -2 -2 -2 -2 -2 -2 -1 -1 -1 -2 -2 -2
3 3 3 3 3 3 2 2 2 2 3 3 3 4 4 4 5 5 6 6 3 1 -0 -1 -2 -2 -2 -2 -2 -2 -2 -2 -2 -2 -2 -2 -2 -2 -2 -2 -2 -2 -2
2 2 2 3 3 3 3 3 3 3 3 4 4 3 4 4 4 5 5 5 4 2 1 -1 -1 -2 -2 -2 -3 -2 -2 -2 -2 -2 -2 -2 -2 -2 -2 -2 -2 -2 -2
2 3 3 3 3 5 5 5 5 5 5 5 5 5 5 5 5 5 5 5 5 5 4 1 -0 -1 -2 -2 -2 -2 -2 -2 -1 -1 -1 -1 -1 -1 -2 -2 -2 -2 -2
3 3 4 3 4 5 6 5 5 6 5 5 6 5 5 5 5 4 5 5 5 5 5 4 2 1 -0 -1 -1 -1 -2 -2 -1 -1 -1 -1 -1 -1 -1 -1 -1 -2 -2
4 4 4 4 5 5 5 6 5 4 5 4 4 4 4 3 4 4 4 4 4 4 5 5 5 4 3 1 0 -1 -2 -2 -1 -1 -1 -1 -1 -1 -1 -1 -1 -1 -1
4 5 5 5 4 5 4 3 3 4 4 4 5 4 3 3 3 3 3 3 3 3 3 4 4 5 4 1 0 -0 -1 -1 -1 -1 -1 -1 -1 -1 -1 -1 -1 -1 -2
2 2 3 3 3 3 3 3 3 3 3 3 4 4 6 4 4 3 3 3 3 3 3 3 4 5 5 5 5 2 0 -1 -1 -1 -1 -1 -1 -1 -1 -1 -1 -1 -1
6 6 5 5 4 3 2 2 2 2 3 2 2 4 6 7 5 3 5 4 4 4 3 3 3 4 4 5 4 3 2 1 0 -1 -1 -1 -1 -1 -1 -1 -1 -1 -1
6 6 6 7 6 5 6 5 4 2 2 3 2 2 2 3 6 7 3 4 4 4 3 3 3 3 3 4 4 4 3 2 1 -1 -1 -1 -1 -1 -1 -1 -1 -1 -1
7 7 7 7 7 7 7 7 7 6 6 5 5 4 3 3 3 5 7 5 2 2 2 3 3 3 3 3 3 3 2 1 0 -1 -1 -1 -1 -1 -1 -1 -1 -1 -1
7 7 8 8 8 8 7 7 7 7 7 7 6 6 6 6 6 5 6 6 6 4 2 1 1 2 2 2 2 2 2 1 0 -1 -1 -1 -1 -1 -1 -1 -1 -0 -0
9 9 9 9 9 8 8 7 8 8 7 7 7 7 6 6 5 5 6 6 6 5 4 3 1 1 1 1 2 2 2 1 0 -0 -1 -1 -0 -0 -0 -0 -0 -0 -0
10 10 10 10 9 9 9 9 9 8 8 8 8 7 7 6 6 5 5 5 7 6 5 5 2 1 1 1 1 2 2 1 1 -0 -0 -0 0 0 0 0 -0 -0 -0
11 11 11 11 11 11 11 10 10 10 10 9 9 8 9 8 7 5 4 3 5 7 8 6 5 3 2 1 1 1 1 1 0 0 0 0 0 0 0 0 0 0 0
13 13 13 13 13 13 13 12 11 12 11 9 11 10 9 7 6 5 3 3 4 5 7 5 5 4 4 3 2 2 2 2 0 0 0 0 0 0 0 0 0 0 0
14 14 14 14 14 14 14 13 12 13 12 11 11 10 9 7 5 5 4 5 6 5 6 5 5 5 6 4 3 2 2 2 1 0 0 0 1 1 1 1 0 0 0
15 15 15 15 15 14 14 14 14 13 12 12 10 9 8 5 7 6 6 7 6 4 7 9 7 7 6 5 4 4 3 2 2 1 0 0 1 1 1 1 1 1 1
15 15 15 15 15 15 14 14 13 12 11 10 9 9 10 9 9 9 9 8 5 6 7 7 7 6 6 6 5 4 5 4 3 2 1 0 0 1 1 1 1 1 1
16 16 16 16 15 15 14 12 11 10 10 9 10 10 10 10 10 9 9 8 6 7 8 8 8 8 7 6 6 6 7 6 6 4 3 3 1 1 1 1 1 1 1
16 16 16 16 15 13 11 10 10 10 10 10 10 10 10 8 7 7 8 8 7 8 7 8 8 8 8 8 8 7 7 6 6 5 6 5 3 2 3 2 2 2 2
17 16 16 15 14 11 9 8 8 9 10 10 11 10 10 8 8 6 6 6 6 8 9 9 9 10 10 9 7 6 6 7 8 5 6 6 5 4 4 3 1 2 1
17 16 15 13 13 12 9 8 7 9 10 10 10 10 9 8 8 8 7 6 6 6 6 8 10 9 9 8 7 8 7 8 8 6 6 8 5 6 4 3 2 1 1
16 15 14 13 12 12 9 8 8 9 10 9 9 8 8 7 7 7 8 8 8 8 7 7 7 7 7 6 6 7 7 7 7 6 5 8 6 6 5 5 4 3 3
15 14 13 13 13 13 9 8 8 10 9 9 8 7 6 7 5 4 6 7 8 7 5 5 5 5 5 5 6 7 9 9 9 8 6 7 6 6 10 10 8 5 3
13 13 13 13 12 13 10 7 7 9 9 9 8 7 6 6 4 4 6 7 8 9 8 7 7 7 7 7 6 7 8 10 10 11 10 8 8 10 11 11 10 8 4

GFSMA_con_lsi_015.txt.gz
Lid_Strength_Index
0 -0 -0 0 0 -0 -0 -0 -0 -0 -0 -0 -0 -0 0 1 1 1 1 2 1 0 -0 -1 -1 -2 -2 -2 -2 -2 -2 -2 -2 -2 -2 -2 -2 -2 -2 -2 -2 -1 -1
-0 -0 -0 -0 -0 -0 -0 0 1 1 1 1 1 1 2 1 1 1 1 1 2 1 -0 -1 -1 -2 -2 -2 -2 -2 -2 -2 -2 -2 -2 -2 -2 -2 -2 -2 -2 -2 -2
0 -0 -0 0 1 1 1 1 2 2 2 2 2 2 2 2 2 2 2 2 2 2 2 -0 -1 -1 -2 -2 -2 -2 -2 -2 -1 -1 -2 -2 -2 -2 -2 -2 -2 -2 -2
0 1 1 1 1 1 2 2 2 3 3 3 3 2 2 2 2 2 2 2 2 2 2 2 1 -1 -1 -2 -2 -2 -2 -2 -2 -1 -1 -1 -1 -1 -2 -2 -2 -2 -2
1 1 1 1 2 2 2 2 2 3 3 2 2 2 2 2 1 2 2 1 1 2 1 1 1 1 -0 -1 -2 -2 -2 -2 -1 -1 -1 -1 -1 -1 -1 -1 -1 -1 -1
2 2 2 2 2 2 1 1 2 2 2 2 2 2 1 1 0 1 1 1 1 1 1 1 1 1 1 1 -0 -1 -2 -1 -1 -1 -1 -1 -1 -1 -1 -1 -1 -1 -1
2 2 2 2 2 2 2 1 1 2 1 1 3 3 2 1 1 1 0 1 1 1 1 1 1 2 2 1 1 0 -1 -1 -1 -1 -1 -1 -1 -1 -1 -1 -1 -1 -1
5 6 6 5 5 4 4 4 3 3 2 1 3 3 5 3 2 1 1 1 1 0 0 1 1 1 1 1 2 1 0 -0 -1 -1 -1 -1 -1 -1 -1 -1 -1 -1 -1
7 6 6 6 6 5 5 5 5 5 6 5 4 4 6 6 5 3 1 1 1 1 0 0 0 0 0 1 1 2 2 1 -0 -1 -1 -1 -1 -1 -1 -1 -1 -1 -0
6 7 6 6 6 6 6 6 6 6 7 7 6 5 4 5 8 8 5 3 2 2 1 0 0 0 -0 -0 -0 1 2 1 0 -1 -1 -1 -1 -1 -1 -1 -1 -1 -0
7 8 7 7 7 7 7 7 7 7 7 7 7 7 6 6 5 6 8 7 5 4 3 2 1 0 -0 -0 -0 0 0 0 -1 -1 -1 -1 -1 -1 -1 -1 -1 -0 -0
8 9 9 9 9 9 9 9 8 8 7 7 7 7 7 7 7 7 8 8 7 6 4 3 2 1 0 -0 0 1 0 -0 -1 -1 -1 -1 -1 -1 -1 -1 -1 -0 -0
10 11 10 11 10 10 10 10 10 8 8 8 8 7 7 7 8 8 8 8 8 7 6 4 4 3 1 0 -0 0 0 -0 -0 -1 -1 -1 -1 -0 -0 -0 -1 -0 -0
11 11 11 12 12 12 12 11 11 9 9 9 8 9 9 9 8 8 8 8 9 9 8 8 5 3 2 2 1 1 1 1 0 -0 -1 -1 -0 -0 -0 -0 -0 -0 -0
13 13 13 13 12 12 12 12 12 11 11 11 10 10 10 10 8 7 5 4 6 9 10 8 6 3 2 2 2 4 3 1 0 -0 -0 -0 0 0 0 0 0 0 0
13 14 14 13 13 13 13 13 12 12 12 12 11 11 10 9 8 6 5 5 5 7 9 6 5 3 4 4 3 3 3 2 1 0 1 1 1 0 0 0 0 0 0
14 14 14 14 14 14 14 14 13 13 13 12 11 11 10 9 8 7 5 6 7 7 9 7 4 4 5 5 4 3 3 3 1 0 0 1 1 1 0 0 0 0 0
14 15 14 15 14 14 14 14 14 13 13 13 12 10 9 9 9 8 7 8 7 7 7 8 6 6 6 5 4 4 4 2 2 2 2 0 2 2 1 1 1 1 1
15 15 15 15 15 14 14 14 13 13 12 11 10 9 9 9 9 8 8 7 7 7 7 7 8 6 6 5 6 5 5 4 3 3 2 2 1 2 2 2 2 1 1
15 15 15 15 15 14 14 13 13 12 11 9 8 8 9 9 9 8 8 7 7 7 7 7 8 7 7 7 7 8 7 6 5 4 3 3 2 2 2 2 1 2 2
15 15 15 15 14 14 14 12 11 10 9 9 9 9 9 8 7 6 7 7 7 7 7 7 8 8 8 8 9 8 9 7 6 4 4 4 3 2 2 3 3 2 2
15 15 15 15 15 14 11 9 8 9 9 9 9 9 8 7 7 6 6 6 6 7 7 7 8 8 8 7 7 7 8 9 9 4 6 6 5 4 3 3 3 3 3
15 15 15 15 14 13 10 8 8 9 9 9 9 8 8 7 6 7 6 6 5 5 5 6 7 7 7 6 6 7 8 9 9 6 7 9 6 6 4 4 3 3 3
16 15 15 14 13 11 9 8 8 9 9 9 9 8 8 7 7 7 7 7 7 7 6 5 5 5 5 4 5 6 7 8 8 7 7 10 6 7 5 3 2 3 3
15 15 14 13 12 12 9 9 8 9 9 9 8 8 7 7 7 6 7 8 9 8 6 5 4 4 4 4 4 7 8 9 10 9 7 9 8 8 6 5 5 5 5
15 14 13 12 11 11 10 8 9 9 9 9 8 7 7 7 6 5 8 9 10 9 8 7 6 6 6 6 5 6 7 9 10 10 7 9 8 9 10 7 8 8 9

GFSMA_con_lsi_018.txt.gz
Lid_Strength_Index
-0 -1 -1 -1 -1 -1 -1 -0 -0 -0 -0 -0 -1 -0 -0 -0 -1 -1 -1 0 -0 -0 -2 -2 -2 -2 -2 -2 -2 -2 -2 -2 -2 -1 -2 -2 -2 -2 -2 -2 -2 -2 -2
-1 -0 -0 -0 -1 -1 -1 -1 -0 -0 -0 -0 -0 -0 -0 -0 -1 -1 -1 -1 -0 0 0 -1 -2 -2 -2 -1 -1 -2 -2 -2 -1 -1 -1 -1 -1 -1 -2 -2 -2 -2 -2
-1 -1 -0 -0 -0 -1 -1 -0 -0 -0 -0 -0 0 -0 -0 -0 -0 -0 -1 -1 -1 0 0 -1 -2 -2 -2 -2 -2 -2 -2 -1 -1 -1 -1 -1 -1 -1 -1 -1 -1 -1 -1
-1 -1 -0 -0 -1 -1 -0 -0 0 0 0 1 1 0 0 -0 -0 -0 -0 -1 -1 -1 -1 -1 -1 -1 -1 -2 -2 -2 -1 -1 -1 -1 -1 -1 -1 -1 -1 -1 -1 -1 -1
-0 -0 -0 -0 -0 -0 -0 0 0 0 1 1 1 1 0 0 0 -0 -0 -0 -0 -1 -1 -1 -0 -0 -0 -1 -2 -2 -1 -1 -1 -1 -1 -1 -1 -1 -1 -1 -1 -1 -1
-0 -0 0 1 0 1 1 2 2 1 1 1 2 1 0 0 -0 0 0 -0 -0 -0 -1 -1 -1 -0 -0 -0 -1 -1 -1 -1 -1 -1 -1 -1 -1 -1 -1 -1 -1 -1 -1
3 3 3 4 4 4 4 4 4 4 3 3 4 4 3 2 1 1 0 0 -0 -0 -0 -0 -0 -1 -0 -0 -1 -1 -1 -1 -1 -1 -0 -0 -0 -0 -1 -1 -0 -0 -0
5 5 5 5 5 5 5 4 4 5 5 4 6 6 7 6 4 3 4 4 2 2 1 -0 -0 -0 -0 -0 -0 -0 -0 -1 -1 -1 -1 -0 -0 -0 -1 -1 -1 -1 -1
6 6 6 6 5 5 5 5 6 6 7 6 5 7 8 9 7 6 5 4 4 3 3 2 1 1 0 -0 -0 -0 -0 -0 -1 -1 -1 -1 -1 -1 -1 -1 -0 -0 -0
7 7 7 7 6 6 7 7 7 7 7 8 7 7 6 7 9 10 6 5 5 4 4 3 3 3 2 1 0 0 0 -0 -1 -1 -1 -1 -1 -1 -1 -1 -0 -0 -0
7 9 8 8 8 8 8 8 8 9 8 9 9 8 8 7 7 8 10 9 7 7 6 5 4 3 3 2 1 1 -0 -0 -1 -1 -1 -1 -1 -1 -1 -1 -0 -0 -0
9 9 9 9 9 9 10 10 9 9 8 9 9 8 8 9 9 10 10 10 9 8 7 6 5 4 3 3 3 1 2 2 1 -0 -1 -1 -1 -1 -1 -1 -1 -0 -0
10 10 10 10 10 10 11 10 10 9 9 10 9 8 8 10 10 10 11 10 10 8 7 6 6 5 5 4 3 2 1 1 2 1 -0 -1 -1 -0 -0 0 0 -0 -0
11 11 11 11 11 11 11 11 11 10 10 10 10 10 9 10 9 9 9 9 10 10 9 9 7 6 5 4 2 1 3 2 1 1 0 2 2 1 1 1 1 1 1
12 12 12 12 12 12 12 11 11 11 11 11 11 10 10 10 9 9 8 8 9 12 11 9 8 6 5 3 2 2 3 3 2 2 2 1 1 0 -0 0 1 1 1
12 12 12 12 12 12 12 12 12 12 12 11 11 11 10 10 9 9 9 9 7 7 9 8 7 6 5 4 2 3 4 3 2 3 3 2 1 0 0 1 1 1 1
13 13 13 13 13 13 13 13 12 12 12 11 11 11 11 9 10 10 9 8 8 8 9 8 6 6 6 5 4 4 3 4 4 3 3 2 2 1 1 0 1 1 1
13 13 13 13 13 13 13 13 13 12 12 12 11 11 11 10 10 8 8 8 8 7 8 9 7 6 6 5 4 4 4 4 5 4 4 4 3 2 1 1 0 1 2
13 13 13 14 14 13 13 13 12 12 11 11 11 11 10 9 9 8 8 8 7 7 6 7 7 6 6 5 6 5 5 5 5 4 4 4 4 3 2 1 1 1 1
14 14 13 13 13 13 13 12 12 11 11 11 10 9 9 9 8 8 8 8 7 7 7 7 7 7 6 5 5 6 6 5 5 4 4 4 4 3 3 2 2 2 1
14 13 14 13 13 12 12 12 12 11 11 11 9 9 8 7 7 7 7 7 7 7 7 7 8 7 7 7 7 5 5 5 5 4 5 4 4 3 3 3 3 3 2
13 13 13 13 13 12 12 11 11 11 11 10 9 8 8 8 8 6 6 6 6 7 7 7 8 9 8 7 6 6 6 6 8 3 5 5 4 5 4 4 4 3 2
13 13 13 13 13 12 11 11 10 10 9 9 9 9 9 8 7 7 6 6 6 5 5 7 8 8 8 7 6 7 6 6 6 4 4 7 5 6 4 5 4 3 3
13 13 13 13 13 12 11 10 9 9 9 8 8 8 9 8 7 7 7 7 6 7 6 7 7 7 6 5 6 6 6 6 5 4 4 8 5 7 5 5 5 4 3
13 13 13 13 13 12 11 10 9 9 9 9 8 8 8 7 7 6 7 8 8 8 7 6 6 5 6 5 6 7 7 8 8 6 4 6 6 7 7 6 6 5 4
13 13 13 12 12 12 10 8 8 9 9 9 9 8 7 7 6 6 7 9 10 9 8 7 7 7 7 6 6 6 7 9 9 9 6 8 8 8 9 6 6 6 6

GFSMA_con_lsi_021.txt.gz
Lid_Strength_Index
-0 -0 -0 -0 -1 -1 -0 -0 -0 -0 -0 -0 -0 -0 -0 -0 -0 -0 -1 -0 -1 -2 -2 -2 -2 -2 -2 -2 -2 -2 -2 -2 -1 -1 -1 -1 -1 -1 -2 -2 -2 -2 -2
-0 -0 -0 -0 -0 -1 -1 -0 -0 0 0 -0 0 -0 0 -0 -0 -0 -0 -1 -1 -1 -1 -2 -2 -2 -2 -2 -2 -2 -2 -1 -1 -1 -1 -1 -1 -1 -1 -1 -1 -2 -2
-0 -0 -0 0 -0 -1 -0 -0 -0 0 0 0 1 0 0 -0 -0 -0 -0 -0 -1 -0 -1 -1 -1 -2 -1 -2 -2 -1 -1 -1 -1 -1 -1 -1 -1 -1 -1 -1 -1 -1 -1
-1 -0 0 0 -0 -0 -0 0 1 1 1 1 1 0 0 0 0 -0 -0 -0 -0 -0 -1 -1 -1 -1 -1 -2 -2 -2 -1 -1 -1 -1 -1 -1 -1 -1 -1 -1 -1 -1 -1
-1 -0 0 0 0 0 -0 1 2 2 2 2 2 1 1 1 0 1 0 -0 -0 -0 -0 -0 -0 -0 -1 -1 -2 -2 -1 -1 -1 -1 -1 -1 -1 -1 -1 -1 -1 -1 -1
3 2 3 3 3 3 4 4 4 4 4 4 4 4 3 3 2 2 1 0 -0 0 1 0 -0 -0 -0 -1 -1 -1 -1 -1 -1 -1 -1 -1 -1 -1 -1 -1 -1 -1 -1
3 3 4 4 4 5 5 5 5 5 4 4 5 5 5 4 3 3 4 4 4 3 3 2 2 0 -0 -1 -1 -1 -1 -1 -1 -1 -1 -1 -1 -0 -1 -1 -1 -0 -0
4 5 6 6 6 6 5 6 6 6 6 6 7 7 8 7 5 6 6 5 5 4 4 3 3 2 2 2 2 -1 -1 -1 -1 -1 -1 -1 -1 -1 -1 -1 -1 -0 -0
7 7 7 7 7 7 7 7 7 7 8 7 7 8 10 11 9 7 7 6 6 6 5 5 5 4 4 3 3 2 1 -1 -1 -1 -1 -1 -1 -1 -1 -1 -1 -1 -0
8 8 8 8 8 8 8 8 8 8 8 9 8 9 8 8 11 11 8 8 7 8 7 6 6 6 5 4 3 2 1 1 0 -1 -1 -1 -1 -1 -1 -1 -1 -1 -0
8 9 9 9 9 9 9 9 9 9 9 9 10 10 10 9 8 11 13 11 10 9 8 7 6 6 6 5 3 3 1 1 1 1 0 -0 -1 -1 -1 -1 -1 -1 -1
9 9 10 10 10 10 10 10 10 10 10 9 10 10 10 10 11 12 13 12 12 10 8 7 7 6 5 5 4 3 2 2 2 1 0 -0 -1 -1 -1 -1 -1 -1 -1
10 10 10 11 11 10 10 10 10 10 10 10 10 11 10 10 10 11 11 12 12 10 9 8 8 8 7 6 7 5 5 2 1 0 -1 -1 -0 0 0 0 -0 0 0
11 11 11 11 11 11 11 11 11 10 10 10 10 11 11 10 10 10 10 11 13 13 12 12 9 8 8 7 6 4 5 3 1 1 -0 -0 1 1 1 1 1 1 0
11 11 11 12 12 12 12 12 12 12 11 11 11 11 11 10 9 9 9 10 12 15 15 12 12 9 8 7 6 5 5 3 2 3 2 1 1 1 2 2 1 1 1
12 12 12 12 12 12 12 12 12 12 12 12 11 11 11 10 10 9 10 10 10 11 14 11 10 8 7 6 5 5 5 4 3 3 3 2 2 2 3 2 2 2 2
12 13 13 13 13 13 13 13 13 12 12 12 11 11 11 10 10 10 10 10 10 9 11 10 8 7 7 7 7 6 5 4 4 3 3 3 3 3 2 3 3 3 3
13 13 13 13 13 13 13 13 13 12 12 12 11 11 11 10 11 10 10 10 9 8 9 10 9 8 8 7 6 6 6 5 5 4 3 3 3 3 3 2 3 2 2
13 13 13 13 13 13 13 13 13 12 12 11 11 11 11 11 11 10 9 9 8 8 8 9 10 8 7 6 7 7 7 7 5 4 3 3 3 3 3 3 2 2 2
13 13 13 13 13 13 12 12 12 12 11 11 11 11 10 10 10 9 9 8 8 8 9 9 9 8 8 7 7 8 9 7 7 6 5 4 3 3 3 3 3 3 3
13 13 13 13 12 12 12 11 11 12 11 11 11 10 9 8 7 7 8 8 8 9 9 9 9 9 8 9 9 8 9 9 8 6 6 5 4 4 4 4 4 3 4
13 13 13 12 12 12 10 10 11 11 11 11 11 10 9 7 7 6 6 6 7 8 9 9 9 9 10 9 9 9 9 10 11 6 6 7 4 5 4 4 4 4 4
13 12 12 12 12 12 10 10 10 11 11 10 10 9 8 8 7 8 7 6 6 6 5 8 9 9 10 9 9 9 9 9 10 7 7 8 5 5 4 3 3 4 4
12 12 12 12 12 12 10 10 10 10 10 9 8 8 8 8 8 8 8 8 7 7 7 7 8 9 8 7 7 8 9 9 8 7 6 9 6 6 4 5 4 5 5
12 12 12 12 12 12 11 10 9 10 9 9 8 8 8 8 7 6 7 8 9 9 7 6 6 6 6 6 6 8 9 10 10 9 7 9 8 8 7 7 7 5 5
12 12 12 12 11 12 10 9 8 9 9 9 8 8 7 8 7 6 8 10 11 10 9 9 8 8 8 8 6 8 9 11 11 11 9 10 10 10 11 8 7 7 8

GFSMA_con_lsi_024.txt.gz
Lid_Strength_Index
2 2 2 2 1 1 2 2 2 1 1 1 1 1 1 1 1 0 1 0 -1 -2 -2 -2 -2 -2 -2 -2 -2 -2 -2 -2 -2 -2 -1 -1 -1 -1 -2 -2 -2 -2 -2
1 1 1 1 1 1 1 1 1 1 1 1 1 0 0 0 1 1 1 1 -1 -1 -2 -2 -2 -2 -2 -2 -2 -2 -1 -1 -2 -2 -1 -1 -1 -1 -1 -1 -1 -1 -2
1 1 1 1 1 0 1 1 1 0 1 0 1 1 2 2 1 2 1 1 0 -0 -1 -2 -2 -2 -2 -2 -2 -2 -2 -1 -1 -1 -1 -1 -1 -1 -1 -1 -1 -1 -1
0 1 1 2 1 1 0 1 2 4 4 4 4 3 3 2 2 2 2 2 1 0 -1 -2 -2 -2 -2 -2 -2 -2 -2 -1 -1 -1 -1 -1 -1 -1 -1 -1 -1 -1 -1
2 2 4 5 5 4 5 5 6 6 7 7 6 7 6 6 5 3 4 4 4 4 4 2 -0 -1 -1 -2 -2 -2 -2 -2 -1 -1 -1 -1 -1 -1 -1 -1 -1 -1 -1
5 6 5 5 6 6 6 7 8 7 7 7 7 7 7 6 6 6 6 6 7 6 5 5 5 4 1 -0 -1 -1 -2 -2 -2 -1 -1 -1 -1 -1 -1 -1 -1 -1 -1
7 7 6 7 7 8 8 8 8 9 9 9 9 9 9 8 8 8 8 8 7 7 7 7 6 6 6 3 2 1 0 0 -0 -1 -1 -1 -1 -1 -1 -1 -1 -1 -1
8 7 9 9 9 10 10 10 10 10 10 10 11 11 12 11 9 9 8 8 8 8 8 7 9 8 7 7 6 2 2 1 0 -1 -1 -1 -1 -1 -1 -1 -1 -1 -1
9 9 10 10 11 10 11 11 11 11 12 10 10 12 13 14 12 11 10 9 10 10 10 10 10 9 8 8 6 5 3 2 1 0 -0 -1 -1 -1 -1 -1 -1 -1 -1
10 10 11 11 11 11 12 12 11 12 12 12 11 10 12 12 14 14 11 11 11 11 11 11 10 9 8 8 6 4 3 1 2 1 0 -0 -0 -1 -1 -1 -1 -1 -1
11 11 11 12 12 11 12 12 12 13 12 12 12 12 13 12 12 13 15 14 13 12 11 10 9 9 8 8 8 7 4 5 4 3 2 1 1 -0 -1 -0 -0 -0 -0
11 12 11 12 12 12 12 13 13 13 12 12 12 13 13 14 14 14 14 15 15 13 11 10 10 10 9 10 8 6 6 6 5 3 2 2 2 2 1 0 0 0 0
12 13 13 13 13 13 13 13 13 13 13 13 13 13 13 13 13 13 14 14 15 13 12 11 11 11 10 10 10 7 7 6 5 4 3 1 1 1 1 0 0 -0 0
13 13 13 13 14 13 14 14 14 13 14 14 15 14 13 13 12 12 13 14 16 14 13 14 12 12 11 10 9 6 9 6 5 4 3 2 2 2 2 1 1 0 0
13 14 14 14 14 14 14 14 15 15 15 15 15 14 14 13 12 12 12 12 13 16 16 14 14 11 11 10 8 7 8 5 4 4 3 3 3 3 3 2 2 2 2
14 14 15 15 15 15 15 15 15 15 15 15 14 14 13 12 12 12 12 12 12 13 16 13 12 11 10 9 7 7 7 5 5 3 3 3 3 3 3 3 2 2 2
15 15 15 15 15 15 15 16 16 15 15 15 14 13 13 12 12 12 12 12 12 12 13 12 11 10 9 9 8 8 7 7 6 4 4 4 3 3 3 3 3 2 2
15 15 15 15 15 15 15 16 15 15 15 14 13 13 13 12 12 12 12 12 11 11 11 12 11 10 9 9 9 9 7 6 7 5 4 4 3 3 4 4 3 3 3
15 15 15 15 15 15 15 15 14 14 14 13 13 13 13 12 13 12 11 11 10 9 9 9 10 9 9 9 9 8 7 8 7 6 5 4 4 4 4 3 3 3 3
15 15 15 15 14 14 13 13 14 14 14 13 13 12 12 12 11 11 10 10 9 9 9 10 10 10 10 8 8 9 10 9 10 8 6 5 5 4 4 4 4 4 3
15 15 15 14 14 13 12 13 13 13 14 13 13 12 11 9 7 7 8 9 9 9 9 9 10 10 10 10 10 10 11 11 10 9 8 8 8 7 7 5 5 4 3
16 15 14 14 14 12 10 10 11 13 13 13 13 12 11 9 8 6 6 6 7 8 9 10 10 11 11 11 10 10 11 12 12 7 9 10 8 8 7 6 4 2 2
15 15 15 14 15 15 10 10 10 12 13 13 12 11 10 8 8 9 7 6 6 6 6 9 11 11 11 10 10 10 10 10 10 9 9 10 8 8 6 5 3 3 2
15 15 15 15 15 14 10 10 10 12 12 11 10 10 9 9 8 8 8 9 8 8 9 9 9 9 8 8 9 9 10 10 9 9 8 12 9 9 8 7 4 4 3
16 16 15 15 15 15 11 10 10 12 11 10 9 9 8 9 7 7 8 9 10 10 8 7 6 6 7 7 8 10 12 12 12 11 9 11 10 11 10 9 7 5 4
15 14 14 15 13 14 11 9 10 10 11 10 9 9 7 8 7 6 8 9 11 12 10 9 10 10 10 10 8 10 11 14 14 14 11 12 12 11 12 10 9 8 7

GFSMA_con_lsi_027.txt.gz
Lid_Strength_Index
3 2 2 2 2 2 2 2 1 1 1 1 1 1 1 1 1 1 1 -0 -2 -2 -2 -2 -2 -2 -2 -2 -2 -2 -2 -1 -1 -2 -1 -1 -1 -1 -1 -2 -2 -2 -2
2 2 2 1 1 1 1 1 1 1 1 1 2 1 1 2 2 2 2 2 -0 -1 -2 -2 -2 -2 -2 -2 -2 -2 -2 -2 -2 -1 -1 -1 -1 -1 -1 -2 -1 -1 -1
2 2 1 1 1 1 3 3 5 5 5 5 6 5 4 4 3 3 3 3 2 0 -1 -0 -0 -2 -2 -2 -2 -2 -2 -2 -2 -2 -1 -1 -1 -1 -1 -1 -1 -1 -1
1 2 5 6 6 6 6 6 6 7 7 7 8 7 7 7 7 6 5 5 5 6 4 1 1 1 0 -1 -2 -2 -2 -2 -2 -2 -1 -1 -1 -1 -1 -1 -1 -1 -1
6 6 6 7 7 7 7 7 8 8 9 9 9 9 8 8 8 6 7 8 8 8 7 4 2 2 2 2 1 1 0 0 -1 -1 -1 -2 -2 -1 -1 -1 -1 -1 -1
8 8 8 9 8 8 8 9 9 10 10 11 10 9 10 9 8 9 10 10 9 8 8 8 8 7 4 5 4 3 3 2 2 1 1 -1 -1 -1 -2 -1 -1 -1 -1
9 10 10 9 9 9 10 10 11 11 11 11 12 12 11 10 11 11 11 10 9 9 10 10 10 10 10 6 6 5 3 3 2 2 1 0 -0 -1 -2 -1 -1 -1 -1
11 11 11 10 11 10 11 12 13 13 12 12 12 13 14 12 11 11 11 10 10 11 10 10 11 10 10 10 9 5 5 4 3 2 2 1 0 -0 -1 -1 -1 -1 -1
11 11 11 11 11 12 13 13 13 13 13 12 12 13 15 16 14 12 12 11 11 11 12 11 11 10 10 10 8 8 6 5 3 2 2 2 1 1 -0 -1 -1 -1 -1
12 11 11 12 13 13 13 13 12 13 13 13 12 11 13 14 15 16 13 13 12 12 12 12 11 10 10 10 9 8 7 6 5 3 3 2 2 2 1 1 1 -0 -0
12 12 13 13 13 13 13 13 13 14 13 13 13 13 14 14 14 16 17 16 13 13 12 12 11 11 10 11 11 9 7 6 5 4 4 3 3 2 2 2 1 1 1
13 13 13 13 13 13 13 14 14 14 14 14 14 14 14 15 15 16 17 16 16 15 13 12 11 11 11 11 9 8 8 7 6 5 4 3 3 3 3 3 2 2 1
14 14 14 14 14 14 14 14 14 14 14 15 15 15 15 14 14 14 15 16 16 14 14 12 12 12 11 12 11 9 8 7 6 5 4 3 3 4 3 3 3 2 2
15 14 14 14 15 14 15 15 15 15 15 16 16 16 15 14 13 13 14 15 16 16 14 14 12 12 12 11 10 8 10 7 7 6 4 3 4 3 3 2 2 2 2
13 15 15 15 15 15 15 15 16 16 16 16 16 15 15 14 13 12 12 13 14 17 17 15 15 12 12 11 10 10 9 7 6 5 4 4 4 3 3 3 3 3 3
15 15 15 15 15 15 16 16 16 16 16 15 14 15 14 13 13 13 13 13 13 14 17 14 14 13 12 11 9 8 8 6 5 4 4 4 4 4 4 4 4 4 3
15 15 15 15 16 16 16 16 16 15 15 15 15 14 14 13 13 13 13 13 13 13 15 14 12 11 11 10 9 8 7 8 7 5 4 4 4 4 4 4 4 3 3
15 15 15 15 16 15 15 16 16 15 15 15 15 14 14 13 14 13 13 13 13 12 12 13 12 11 10 9 9 9 8 7 7 5 4 4 4 4 4 4 4 4 4
15 15 15 16 15 15 15 15 15 15 15 15 15 14 14 14 14 14 13 13 12 10 10 10 11 9 9 8 9 9 9 8 7 6 5 5 5 4 4 4 4 4 4
15 16 15 15 15 15 14 14 14 15 15 14 14 14 14 14 14 13 12 11 10 10 10 10 10 9 10 9 9 11 11 10 10 8 7 6 5 5 4 4 5 5 5
15 16 16 15 15 14 13 13 13 14 15 15 14 13 13 12 10 9 9 10 10 10 9 9 10 10 10 12 12 11 12 10 9 9 9 8 8 8 8 7 6 6 5
16 16 16 16 16 14 11 10 11 13 14 14 14 13 13 11 10 7 7 6 6 8 10 10 10 12 12 12 11 12 11 11 12 8 9 9 9 9 8 8 6 5 4
17 17 16 16 16 16 11 10 10 13 14 14 14 13 12 10 9 9 7 6 7 6 6 8 10 11 12 11 10 10 11 12 12 10 10 11 9 10 8 7 5 5 4
17 17 17 16 16 15 11 11 10 13 14 14 13 12 11 10 9 8 9 9 8 7 8 8 10 10 9 9 10 11 12 12 12 11 10 13 10 10 10 9 6 5 5
17 17 16 16 17 16 12 11 11 13 13 13 11 10 9 9 8 7 8 8 9 9 8 7 6 7 8 9 9 11 13 14 15 14 12 13 12 12 11 11 9 7 6
17 16 16 16 15 16 12 11 11 13 13 12 10 10 8 9 7 5 8 9 12 12 10 9 11 12 11 11 9 11 13 15 15 16 13 14 14 13 14 11 10 9 9

GFSMA_con_lsi_030.txt.gz
Lid_Strength_Index
3 3 3 3 3 3 2 2 1 1 2 2 3 4 4 3 2 2 2 0 -1 -1 -1 -2 -2 -2 -2 -2 -2 -2 -2 -1 -1 -1 -1 -1 -1 -1 -1 -2 -2 -1 -2
2 2 2 2 1 1 2 4 5 5 5 5 6 5 5 5 5 5 5 4 1 2 2 1 0 -1 -1 -2 -2 -2 -2 -2 -2 -2 -2 -1 -1 -1 -1 -1 -1 -1 -1
2 4 6 5 5 6 6 6 6 7 8 7 8 7 7 8 8 7 6 7 7 5 3 2 1 1 -0 -0 -1 -1 -1 -1 -0 -1 -1 -2 -1 -1 -1 -1 -1 -1 -1
5 6 7 6 6 7 8 8 9 9 9 9 10 9 9 9 10 9 9 10 10 8 6 4 4 3 3 3 2 1 1 1 1 1 1 1 0 -0 -1 -1 -1 -1 -1
7 7 8 9 9 10 10 10 10 10 10 11 10 11 10 11 10 9 11 12 10 9 9 7 6 6 6 5 4 3 3 3 2 2 2 1 1 0 -0 -1 -2 -2 -1
9 10 11 11 10 11 11 11 11 11 11 12 10 10 12 11 10 12 13 10 10 10 11 11 11 11 7 6 5 4 3 3 3 3 3 3 2 2 1 0 -0 -1 -2
11 11 11 12 11 12 13 12 12 12 12 12 13 13 12 11 12 13 12 11 11 11 12 12 12 11 11 7 7 5 5 4 4 4 4 2 2 1 1 0 0 0 -0
12 12 12 12 12 12 13 13 13 13 13 13 14 14 15 13 12 12 12 12 12 12 12 11 12 12 12 11 9 7 6 5 5 4 4 3 3 2 2 1 1 0 -0
12 12 13 13 13 13 13 14 14 14 14 13 13 14 16 17 15 14 13 13 13 13 13 12 12 11 11 11 10 10 8 7 6 4 4 4 3 3 2 2 2 1 1
13 13 12 13 13 13 15 14 13 14 14 14 13 12 13 14 17 18 14 14 14 14 13 13 13 12 11 11 10 9 8 7 6 4 4 4 3 3 3 3 3 2 2
13 13 13 13 14 14 15 15 14 15 14 14 15 14 14 15 15 16 18 17 15 14 13 13 12 12 11 11 11 10 8 7 6 5 4 4 3 3 3 3 3 3 3
13 13 13 15 15 15 15 15 15 15 15 15 15 15 15 16 17 17 18 17 17 15 14 12 12 12 11 11 10 9 8 8 7 6 5 4 4 5 4 4 4 3 3
14 15 15 16 16 15 15 15 15 15 15 16 17 17 16 16 15 16 16 17 17 15 14 14 13 13 12 12 12 9 9 8 8 7 5 5 5 5 5 4 4 4 3
15 16 16 16 15 15 16 16 15 15 16 17 17 17 16 15 15 14 15 16 17 16 15 15 14 14 13 13 12 9 12 9 8 7 6 5 5 5 5 4 4 3 3
15 16 16 16 16 16 16 16 16 17 17 17 17 16 16 15 14 14 14 14 16 18 18 16 15 13 13 12 11 12 12 9 7 6 6 6 5 5 4 4 3 3 3
16 16 16 17 16 16 16 16 17 17 17 17 15 16 16 15 14 14 14 14 14 15 18 15 14 13 13 12 11 10 9 7 6 5 5 5 5 4 4 3 3 3 3
17 17 17 16 16 16 16 17 17 16 16 16 16 15 15 14 14 14 14 14 14 14 16 15 13 12 12 12 10 9 8 8 7 5 4 5 5 5 4 4 4 4 4
17 17 17 16 16 16 16 17 17 16 16 16 15 15 15 13 15 14 14 14 14 13 14 15 13 12 11 10 9 9 8 7 8 6 6 5 5 4 5 4 4 4 4
17 17 16 16 16 16 16 16 16 16 16 15 15 15 15 15 15 14 14 14 13 12 12 12 12 10 10 9 9 9 10 10 9 7 6 6 5 5 5 5 5 5 5
17 16 16 16 16 16 15 15 15 15 15 15 14 14 14 14 14 14 13 13 12 12 11 11 11 10 10 9 9 12 12 11 11 9 8 7 6 6 5 5 5 5 5
16 16 16 17 16 15 14 14 14 14 15 15 15 14 14 12 10 10 11 11 10 10 10 10 11 10 10 11 11 11 12 12 11 9 10 10 9 9 8 7 7 6 6
17 17 18 17 17 15 12 11 11 14 15 15 15 14 14 12 12 9 8 7 7 9 9 10 9 11 11 11 11 12 12 12 14 10 11 11 10 11 10 9 7 6 5
18 18 17 17 17 17 12 11 11 13 15 15 15 14 14 12 11 10 8 7 7 5 5 9 11 11 12 11 11 12 13 13 14 12 12 13 11 12 10 9 7 6 5
18 18 17 17 17 16 12 11 11 14 14 14 14 14 13 12 10 9 9 9 8 9 9 10 10 10 10 10 11 12 13 13 12 12 12 15 13 13 12 11 7 7 6
18 18 17 17 18 17 12 11 12 14 14 14 13 13 10 10 8 7 8 10 10 11 9 8 8 8 9 9 10 12 14 15 17 15 14 15 14 14 13 12 11 8 7
18 17 18 18 16 17 13 12 12 14 14 14 12 10 8 9 7 6 10 11 13 13 12 11 13 12 11 12 10 12 14 16 17 17 14 15 15 14 15 12 12 11 10

GFSMA_con_lsi_033.txt.gz
Lid_Strength_Index
4 4 3 3 3 3 1 2 3 4 5 5 6 7 6 6 6 5 5 2 2 2 1 0 0 -0 -1 -1 -2 -2 -1 -1 -1 -1 -1 -1 -1 -1 -1 -1 -1 -1 -2
2 2 4 4 6 4 6 6 6 6 7 8 9 9 9 8 8 8 6 8 4 4 3 2 1 1 1 1 -0 -0 -1 -1 -1 -0 -1 -1 -1 -2 -1 -1 -1 -1 -1
5 6 6 6 6 6 7 7 8 9 10 10 12 10 10 9 10 8 9 11 10 6 5 4 3 3 3 2 2 1 1 1 1 1 1 1 0 0 -0 -1 -2 -1 -1
6 7 7 8 8 9 10 10 11 12 12 12 12 11 11 11 10 10 12 12 10 10 9 6 6 6 5 4 3 3 3 3 2 2 2 2 2 1 0 -0 -1 -1 -2
8 9 9 10 11 12 12 12 12 12 13 13 12 11 11 12 10 12 13 11 11 11 11 8 8 8 7 6 5 4 3 3 3 3 3 3 3 2 1 1 1 0 -1
10 11 12 12 12 13 13 13 13 13 13 13 11 11 12 12 11 14 13 12 11 12 12 12 13 12 9 7 7 5 5 5 5 4 4 4 3 3 2 1 1 0 -0
11 12 12 13 13 14 14 14 13 14 13 13 14 14 13 12 13 14 13 13 13 13 13 13 12 13 12 9 8 7 6 6 5 5 5 4 3 3 2 2 2 1 1
12 12 13 13 14 14 14 14 14 14 14 14 15 15 16 15 13 13 13 13 14 13 13 13 13 13 13 13 11 8 7 7 6 5 5 4 4 3 3 3 2 2 1
13 13 14 14 14 14 15 14 14 15 16 15 14 16 18 18 16 15 14 14 14 14 14 13 13 13 13 13 11 10 8 7 6 5 4 4 3 3 2 2 2 2 2
14 14 14 14 14 14 15 14 14 16 15 16 15 13 14 15 18 19 15 14 15 15 15 14 13 13 12 12 10 9 8 7 6 5 4 3 3 3 3 2 2 2 2
14 14 14 14 15 14 15 15 16 16 15 15 16 16 16 16 16 17 19 18 16 15 14 13 13 12 12 11 11 10 8 7 6 5 4 4 4 3 3 2 3 3 3
15 15 14 15 15 15 16 16 16 16 16 17 16 17 17 17 17 18 19 19 19 17 15 13 13 13 12 12 11 9 9 8 7 6 5 5 4 4 4 4 4 4 4
15 15 15 16 16 16 16 16 16 17 17 17 18 17 16 17 16 16 17 18 18 16 16 15 14 14 12 12 12 10 9 8 8 7 6 5 5 6 5 5 5 4 4
15 16 16 16 16 16 16 16 17 17 17 17 18 18 17 17 16 16 16 17 18 18 16 17 14 14 14 13 12 9 11 9 8 7 6 5 6 6 6 5 5 5 4
15 16 16 17 17 17 17 17 17 18 17 17 18 18 17 16 15 15 15 15 17 19 19 17 16 14 13 13 12 12 12 9 8 7 6 5 5 5 5 4 4 4 3
16 16 17 17 17 17 17 17 17 16 17 17 17 17 16 15 15 15 15 15 15 16 18 15 15 14 13 12 11 11 11 8 7 6 5 5 5 5 4 4 4 4 4
17 16 17 17 17 17 17 17 17 17 18 17 17 16 16 15 15 15 15 15 15 15 17 16 14 13 13 12 11 10 9 9 8 5 4 5 5 5 5 5 4 4 4
16 17 17 17 17 17 17 17 17 18 17 17 16 16 16 14 15 15 15 15 15 14 15 16 13 12 12 11 10 10 9 7 7 6 5 5 5 5 5 5 5 5 5
17 17 17 17 17 16 17 17 17 17 16 16 16 16 15 15 16 15 15 15 14 13 13 13 13 11 11 9 9 8 8 9 8 6 5 5 5 5 5 5 5 5 5
17 17 17 17 17 17 17 17 16 16 16 15 15 15 15 15 15 15 14 14 13 13 12 12 11 11 10 9 9 11 12 10 11 9 7 6 6 6 5 6 6 6 6
18 18 17 17 17 17 16 15 15 15 16 16 16 15 15 13 11 12 12 13 12 11 11 11 11 11 12 12 13 12 13 12 11 11 10 11 10 10 10 8 8 8 7
18 17 18 18 19 16 13 11 12 14 15 16 16 15 15 13 13 10 10 8 8 10 10 10 12 13 13 13 13 13 13 13 15 11 13 12 11 12 11 11 8 8 7
18 18 18 19 19 18 13 11 11 14 16 16 16 15 15 13 12 12 10 8 7 6 7 10 13 14 14 13 12 13 14 14 14 13 13 14 12 14 12 11 8 8 7
18 19 19 18 18 17 12 11 11 15 16 15 15 15 15 14 12 10 10 9 10 11 11 11 12 12 11 11 12 12 13 13 12 13 13 16 14 15 13 12 9 8 7
19 19 18 18 19 18 13 12 12 15 15 15 14 14 12 12 9 8 9 11 12 12 10 9 8 9 9 9 10 12 14 15 16 15 14 15 15 15 14 13 12 9 8
18 18 18 18 16 18 14 12 12 14 15 14 13 12 10 10 8 7 10 12 14 14 12 11 13 12 12 12 10 12 13 16 16 16 14 15 15 14 15 12 12 10 10

GFSMA_con_lsi_036.txt.gz
Lid_Strength_Index
3 4 3 3 3 3 2 5 6 6 7 7 9 9 9 9 9 9 8 4 3 2 1 0 0 -0 0 0 0 0 -0 -0 -1 -0 -0 -0 -0 -0 -0 -1 -1 -1 -1
2 2 4 6 6 6 6 6 7 8 10 11 11 11 11 10 11 9 11 10 4 4 3 2 2 2 2 2 1 1 1 1 1 1 0 0 0 0 0 0 -0 -1 -1
4 6 6 7 7 7 7 9 11 11 13 12 13 12 12 12 11 12 12 11 9 7 5 4 4 4 4 3 3 2 2 2 2 1 1 1 1 1 1 0 -1 -1 -1
6 6 7 9 10 11 11 12 13 13 14 14 14 13 13 13 11 13 12 11 10 11 9 6 7 6 5 4 4 3 3 3 3 3 2 2 2 2 1 1 0 0 -0
8 8 10 11 12 13 14 13 14 13 14 14 14 12 13 13 11 12 13 12 12 12 12 9 8 8 7 6 5 5 4 4 4 4 4 4 3 3 2 2 1 1 -0
11 11 12 12 12 13 14 14 14 14 14 14 12 12 13 12 12 15 13 12 13 13 13 13 13 13 9 8 7 6 5 5 5 5 4 4 4 3 2 2 2 1 1
12 13 13 13 14 14 15 14 14 15 14 13 14 13 13 13 13 14 14 14 14 14 14 15 14 13 13 9 8 8 7 6 6 5 5 4 4 4 3 3 2 2 2
13 13 14 14 14 15 15 15 16 15 15 14 15 15 17 16 14 14 14 13 15 14 14 14 14 13 14 13 12 9 8 7 6 5 5 4 3 3 3 2 2 2 2
14 14 15 15 15 15 15 16 16 16 16 15 14 16 19 19 16 15 15 14 15 15 15 15 14 14 14 13 11 11 8 7 6 5 4 4 3 3 2 2 2 1 1
14 14 15 15 16 15 16 15 15 16 15 16 16 14 15 15 19 19 16 15 16 15 16 16 14 14 13 12 11 9 8 7 6 4 4 4 3 3 2 2 2 2 2
15 15 15 16 16 15 16 16 16 16 16 16 17 16 17 17 17 18 20 18 16 16 15 15 14 14 13 12 12 11 8 7 6 5 4 4 4 3 3 3 2 3 3
16 16 16 16 16 16 16 16 16 17 17 17 17 18 18 18 18 19 20 19 19 18 16 14 14 14 13 13 11 9 8 8 7 6 5 5 5 4 4 3 3 3 3
17 17 16 16 16 16 16 16 16 17 17 18 18 18 17 17 17 17 19 19 19 18 17 16 15 14 13 13 13 10 9 8 8 7 6 5 6 6 5 5 4 4 4
16 16 16 16 16 16 16 17 17 17 17 18 19 18 17 17 17 17 18 18 19 19 17 18 15 15 15 14 12 10 12 10 9 8 7 6 6 6 6 5 5 5 4
15 16 16 16 16 16 17 17 17 18 18 18 18 18 18 17 17 16 16 16 17 20 19 17 17 15 14 13 13 13 13 11 9 9 8 7 6 5 4 4 4 4 4
16 16 17 16 17 17 17 17 18 18 18 18 17 18 18 17 16 16 16 16 16 17 19 16 16 15 14 13 12 12 12 9 8 6 5 5 5 5 4 4 4 4 4
17 17 16 17 17 17 18 18 18 18 18 17 18 18 17 16 16 16 16 15 16 16 17 16 15 14 14 14 13 11 10 10 9 5 4 4 4 4 4 4 4 4 4
17 17 17 17 17 17 18 18 18 17 18 18 17 17 17 15 16 16 15 16 16 15 16 17 16 15 14 12 11 11 9 7 7 6 6 5 5 5 5 5 5 4 4
17 17 17 18 18 18 18 17 18 17 18 17 17 17 16 16 16 16 16 16 15 14 14 15 16 13 12 10 10 10 10 10 10 8 7 7 6 6 6 6 5 5 5
17 18 18 18 18 17 17 17 16 17 17 16 16 16 15 16 16 16 15 15 14 15 15 14 12 12 11 11 11 13 14 12 12 11 9 8 8 7 7 7 7 7 7
18 18 18 18 18 17 16 16 16 16 16 16 16 15 15 14 12 12 13 14 14 13 13 12 12 13 13 14 15 14 14 13 12 12 13 12 12 12 11 9 9 8 8
19 19 19 18 19 16 14 12 12 15 15 16 16 15 15 13 14 11 11 10 9 10 11 12 13 14 15 14 14 14 13 14 16 12 13 12 12 12 12 12 10 9 8
19 19 19 19 19 19 13 12 11 14 15 16 16 15 15 14 13 15 12 9 8 7 8 11 14 15 15 14 13 13 14 14 14 13 13 14 13 14 12 12 9 9 8
19 19 19 19 20 18 13 12 11 15 16 16 16 16 16 15 14 12 11 10 11 11 11 12 13 12 11 11 12 13 13 13 13 13 14 16 14 15 13 12 10 9 8
20 20 19 20 20 19 13 12 12 15 16 16 15 15 15 14 11 9 10 11 12 12 11 10 9 9 10 10 10 12 15 15 16 15 14 15 15 15 14 13 12 9 7
18 19 19 19 17 18 14 12 12 15 16 15 14 14 12 11 8 8 11 12 14 14 13 12 14 13 12 13 11 13 14 16 17 17 14 15 14 14 15 12 11 11 11

GFSMA_con_lsi_039.txt.gz
Lid_Strength_Index
0 1 0 -0 0 1 2 4 5 6 7 7 8 8 7 7 7 5 7 3 3 2 1 0 1 1 1 1 1 1 1 1 1 1 0 -0 -0 -0 -0 0 0 -0 -1
2 0 4 5 5 5 6 5 7 7 9 9 9 9 8 9 7 8 7 6 5 3 2 2 2 2 2 2 2 2 2 2 2 1 1 1 1 0 0 -0 -0 -0 -0
1 4 6 6 7 6 8 8 8 8 10 10 10 9 9 9 7 9 8 7 7 5 4 4 4 4 4 3 3 3 3 2 2 2 2 2 1 1 1 0 0 -0 -1
5 6 7 8 9 8 8 9 9 10 11 11 11 10 10 9 9 9 8 7 8 8 8 7 7 7 6 5 4 3 3 3 3 3 3 3 3 2 2 2 1 0 -0
7 8 10 10 10 10 10 9 11 10 11 11 11 10 9 8 9 9 9 9 9 9 9 10 9 9 8 7 6 5 5 5 4 4 4 4 3 3 3 2 2 1 1
9 10 11 11 10 11 10 10 11 11 11 11 11 11 9 8 9 9 10 9 10 10 10 11 11 11 10 9 7 7 6 6 5 5 5 4 4 3 3 3 2 2 2
11 11 11 11 11 12 12 12 11 12 12 11 11 10 10 10 8 8 10 10 11 11 11 11 12 12 11 10 9 8 7 7 6 6 5 5 4 4 3 3 2 2 2
12 12 12 12 12 12 13 13 12 12 12 11 12 12 13 11 10 10 10 10 11 11 12 12 12 12 11 11 11 9 9 8 6 6 5 5 4 3 3 2 2 1 1
12 12 12 12 12 12 13 13 12 12 13 12 12 12 14 14 14 12 11 11 12 12 12 12 12 12 12 12 11 10 9 8 7 5 4 4 3 3 2 2 1 1 1
13 12 13 13 13 13 13 13 13 12 12 13 12 12 12 13 15 16 13 12 12 13 13 13 13 12 12 11 11 10 9 8 6 5 4 4 3 3 2 2 2 2 2
13 13 13 13 13 13 13 13 13 13 13 13 13 13 13 13 13 15 16 15 14 13 13 13 13 12 11 11 10 10 9 8 6 5 5 4 4 3 3 3 3 3 3
13 13 13 13 13 13 13 13 13 13 13 13 13 14 14 14 15 16 17 16 16 15 14 13 12 11 11 11 10 10 9 8 7 6 5 5 5 5 4 4 4 4 3
14 14 14 13 13 13 13 13 13 13 13 13 14 14 14 14 14 15 16 16 17 15 15 13 12 12 11 11 11 10 10 9 8 7 6 6 6 6 6 5 5 5 4
14 14 14 13 13 13 13 13 13 13 13 13 15 14 14 14 14 14 15 16 17 16 15 14 12 12 11 11 11 10 11 10 9 9 8 7 7 7 7 6 6 5 5
14 13 13 13 13 13 14 13 14 14 14 14 14 14 14 14 13 14 14 14 15 18 17 14 14 12 12 12 11 12 12 10 10 9 8 8 8 6 5 4 4 4 4
14 14 14 13 14 14 14 14 14 14 15 14 14 14 14 14 14 13 13 13 13 14 16 14 13 12 12 12 11 11 12 10 9 7 6 6 6 5 5 4 4 4 3
14 14 14 14 14 14 15 15 15 15 15 14 14 14 14 14 14 13 13 13 13 13 15 14 13 12 13 12 12 11 10 9 8 6 6 5 6 6 5 5 5 4 4
14 14 15 15 15 15 15 16 16 15 14 15 14 15 15 14 14 13 13 13 13 13 14 15 14 13 13 12 11 10 9 8 8 7 7 7 6 6 6 6 6 6 5
15 15 15 15 15 15 16 16 15 14 14 14 14 15 14 14 14 13 13 13 13 13 13 14 14 12 11 10 10 9 10 9 10 9 8 8 8 7 7 7 7 6 6
15 16 15 15 16 16 16 15 14 14 14 14 14 14 14 14 14 13 13 13 13 13 13 13 13 11 11 10 10 11 11 10 11 10 9 9 8 8 8 8 8 8 8
16 15 16 17 17 16 15 14 13 13 14 14 13 13 13 12 11 11 12 13 13 13 12 12 12 11 11 12 12 11 12 12 10 11 10 10 10 10 9 9 9 9 9
16 16 17 17 17 16 14 12 12 13 13 14 14 13 13 13 12 11 11 11 11 11 11 11 11 12 12 12 12 12 12 13 14 10 12 11 10 10 10 9 9 8 8
17 17 17 16 17 17 14 12 12 13 13 13 13 13 13 13 12 13 12 10 9 7 8 9 12 13 13 12 12 12 12 13 13 12 12 13 11 12 10 10 8 8 8
17 17 17 17 17 16 14 13 12 13 13 13 13 13 13 13 13 12 12 10 9 10 10 10 11 11 10 10 11 12 12 12 12 12 12 15 12 12 10 10 8 7 7
17 17 17 17 17 16 14 13 12 13 14 13 13 13 13 13 11 10 10 10 11 10 9 9 9 9 10 10 11 12 13 14 15 14 12 13 13 12 11 10 9 8 7
17 17 17 17 16 16 14 13 12 13 14 13 13 13 12 12 10 8 10 11 12 12 12 10 12 12 12 12 11 12 13 14 14 15 12 14 13 12 13 10 10 9 9

GFSMA_con_lsi_042.txt.gz
Lid_Strength_Index
-0 -1 -1 -1 -1 -1 0 1 3 4 3 4 5 6 6 6 6 5 5 4 3 2 1 1 2 2 2 1 1 1 1 1 1 1 0 0 0 0 -0 -1 -1 -1 -0
-0 -1 0 2 4 4 4 3 3 3 4 6 6 7 7 7 7 6 5 5 4 3 3 3 3 3 3 2 2 2 2 2 2 2 1 1 1 1 1 0 -0 -1 -1
-1 1 3 4 3 4 5 4 5 5 6 7 7 8 7 8 6 6 6 5 6 5 5 5 5 5 5 4 4 3 3 3 3 2 2 2 2 2 1 1 1 0 -0
1 4 6 6 5 5 5 6 6 6 7 8 8 8 8 7 7 7 6 6 7 6 7 7 7 7 6 6 5 4 4 4 4 3 3 3 3 2 2 2 2 1 1
3 5 6 7 6 7 7 7 8 8 8 8 8 8 8 6 8 8 7 7 8 7 7 9 9 9 9 7 6 6 5 5 5 5 4 4 4 3 3 3 2 2 1
5 8 7 7 7 8 8 8 9 9 9 9 9 9 7 7 7 7 8 8 7 8 8 9 9 9 9 9 8 7 6 6 6 5 5 4 4 3 3 3 3 2 2
8 10 8 8 8 9 9 9 9 10 10 10 10 9 8 8 7 7 7 8 8 9 9 9 10 10 10 9 9 8 7 6 6 6 5 5 4 4 3 3 3 2 2
10 11 8 8 9 10 10 10 10 10 10 10 11 10 10 9 8 8 8 8 9 9 10 10 10 10 10 10 10 9 9 8 7 6 5 5 4 4 3 3 2 2 2
10 10 9 9 9 10 10 10 10 10 11 10 11 11 11 11 11 9 9 10 9 10 10 10 10 10 11 11 10 10 10 9 7 6 5 5 4 4 3 3 2 2 2
10 10 10 10 10 10 10 11 11 11 10 11 10 11 11 11 13 13 10 10 10 11 10 11 11 11 11 10 10 10 10 9 7 6 5 4 4 3 3 2 2 2 2
11 11 10 10 10 10 11 11 11 11 11 10 11 11 11 12 12 13 14 12 11 11 11 11 11 11 11 10 10 10 9 8 7 6 5 4 4 3 3 3 3 3 3
12 11 10 10 10 11 11 11 11 11 11 11 11 11 12 13 13 13 14 14 14 12 11 11 11 11 10 10 10 9 9 8 7 6 5 5 5 4 4 4 4 4 4
12 11 10 11 11 10 11 10 11 10 11 11 12 12 12 12 12 13 14 14 14 13 12 11 10 10 10 10 10 9 9 8 8 7 6 5 6 6 6 5 5 5 4
11 11 11 11 11 11 11 11 10 11 11 11 13 12 12 12 12 13 13 14 15 14 13 12 10 10 10 10 10 9 10 9 9 8 7 7 7 7 7 6 6 5 5
11 10 10 10 11 11 11 11 11 12 12 12 12 12 12 12 12 12 12 13 14 16 15 12 12 10 10 10 10 10 10 9 9 8 8 8 7 7 6 5 5 4 4
11 11 11 11 11 12 12 12 12 12 13 12 12 13 13 12 12 12 12 12 13 14 15 12 12 11 10 11 10 10 10 9 9 8 7 7 6 6 5 5 4 4 4
12 11 11 11 12 12 12 13 13 13 13 13 13 13 13 12 13 13 12 12 13 13 14 13 12 11 11 11 11 10 10 9 8 7 6 6 6 6 6 6 6 5 5
12 11 12 12 13 13 13 13 13 13 13 13 13 13 13 13 13 13 13 13 13 12 13 14 12 12 11 11 11 11 9 8 8 7 6 6 6 7 7 7 6 6 6
12 12 12 13 14 14 14 13 13 13 13 12 12 13 13 13 13 13 12 12 12 12 12 12 13 11 11 10 10 9 9 8 8 8 7 7 7 7 7 7 7 7 7
12 12 13 14 14 14 13 14 13 13 12 12 12 13 13 13 13 13 12 12 12 12 12 12 12 12 11 9 8 9 10 9 9 9 8 8 7 7 7 7 7 8 8
13 14 14 14 14 14 14 13 12 12 12 12 12 12 12 12 12 12 12 12 12 12 12 12 12 11 10 10 10 10 11 10 9 9 9 9 9 9 9 8 8 8 7
14 14 15 14 15 15 15 13 12 12 12 13 13 12 12 12 12 11 11 11 11 12 12 11 11 11 11 11 10 11 11 11 13 9 11 10 9 10 9 9 8 7 7
14 14 14 15 15 14 14 13 12 12 13 13 13 13 13 12 12 12 11 11 10 9 9 9 11 11 11 11 11 11 11 12 12 10 11 11 10 10 9 9 8 7 6
14 15 15 15 14 14 14 13 13 12 12 12 12 12 12 12 12 12 12 11 10 10 9 9 9 10 10 9 10 11 11 11 10 9 11 13 10 11 10 9 7 7 7
15 15 14 15 14 14 14 13 13 13 13 13 12 12 12 12 11 10 11 11 11 10 8 8 8 8 8 9 10 11 12 13 13 11 10 11 11 11 11 10 8 7 7
14 14 15 14 15 14 14 13 13 13 13 13 12 12 11 11 11 10 10 11 11 11 10 10 10 10 10 10 9 10 11 13 13 13 10 11 11 12 13 9 8 8 8

GFSMA_con_lsi_045.txt.gz
Lid_Strength_Index
-0 -1 -1 -1 -1 -1 -0 0 1 2 2 3 3 4 5 5 6 5 4 3 2 1 1 1 2 2 2 2 1 1 1 1 1 1 1 1 1 1 0 0 -0 -1 -1
-0 -0 -0 0 1 2 2 2 2 3 4 5 5 6 6 6 7 6 6 5 4 3 3 3 4 4 4 4 3 3 3 3 2 2 2 1 1 1 1 1 1 0 -0
-1 -0 0 1 1 2 2 3 4 5 6 6 6 6 6 7 7 7 6 6 6 6 6 6 6 5 5 4 4 4 3 3 3 3 3 2 2 2 2 1 1 1 1
-1 -0 1 3 3 3 3 5 6 6 7 7 7 7 7 7 7 7 7 7 6 7 7 8 8 7 7 6 5 4 4 4 4 4 4 3 3 3 2 2 2 2 2
-0 2 3 5 4 4 5 7 7 8 8 8 8 8 6 6 7 8 7 8 8 7 7 8 9 8 8 7 6 5 5 5 5 5 4 4 3 3 3 3 2 2 2
1 3 5 5 5 6 7 7 8 8 9 9 9 9 8 7 7 7 8 8 8 8 8 8 8 8 8 8 7 7 6 5 5 5 5 4 3 3 3 3 2 2 2
4 5 6 6 6 7 8 8 9 9 10 9 9 8 8 8 7 7 7 8 8 8 9 9 9 9 10 8 8 8 7 6 6 5 5 5 4 4 3 3 3 2 2
6 7 8 7 8 8 9 9 9 9 10 10 11 10 10 9 8 8 7 8 9 8 9 9 10 10 10 10 9 8 8 8 7 6 5 5 4 4 3 3 3 2 2
8 8 8 8 8 8 9 9 9 9 10 10 11 11 12 11 12 9 9 9 9 9 10 10 10 10 10 10 10 10 9 9 7 6 5 5 4 4 3 3 3 3 2
9 9 9 8 9 9 10 10 10 10 9 11 10 11 11 12 14 13 10 10 9 11 10 10 10 10 10 10 10 9 9 9 7 6 5 5 4 4 3 3 3 3 3
10 10 10 9 9 9 10 10 10 10 11 11 11 11 12 11 11 13 14 12 11 10 10 10 11 10 10 10 10 10 9 8 7 6 5 4 4 3 3 3 3 3 3
10 10 10 10 9 10 9 10 10 10 11 11 11 11 12 13 13 13 14 14 13 12 11 11 10 10 10 10 10 9 9 8 7 6 5 4 4 4 4 4 4 4 4
12 12 10 10 10 9 10 10 10 10 10 10 11 12 12 12 12 13 14 14 14 13 12 11 10 10 10 10 10 9 9 8 8 7 5 5 5 5 5 5 4 4 4
13 11 10 10 10 10 11 10 10 10 10 10 11 12 12 12 12 12 13 14 16 15 13 13 11 11 10 10 10 9 10 9 8 7 6 6 6 6 6 6 5 5 5
12 11 11 11 10 10 10 10 10 11 11 11 12 12 12 12 12 12 13 13 14 16 16 13 13 11 11 11 10 10 11 9 8 8 7 7 7 7 6 5 5 4 4
12 12 11 11 12 12 11 11 11 12 12 12 12 13 12 12 12 12 12 12 13 14 16 13 13 12 11 11 10 10 10 9 8 8 7 7 7 6 5 5 4 4 4
12 11 12 12 12 12 12 12 12 13 13 13 13 12 13 13 13 12 12 13 13 13 15 14 12 11 12 12 11 10 10 10 10 8 7 6 6 5 5 5 5 5 5
11 12 12 12 13 12 12 13 13 13 13 13 13 13 13 13 13 13 13 13 13 13 14 15 13 12 12 11 11 11 10 9 10 7 6 5 5 6 6 6 6 6 5
12 12 12 13 13 13 13 13 14 13 13 13 13 13 13 13 13 13 13 13 13 12 12 13 13 12 12 11 11 10 10 9 8 7 6 6 6 6 6 6 6 6 6
13 13 13 13 13 13 14 14 13 12 13 13 12 12 12 13 13 13 13 13 13 13 13 13 13 13 12 11 11 12 11 9 10 9 8 7 7 7 7 7 7 7 7
13 13 13 13 14 14 14 14 13 13 13 12 12 12 12 12 12 12 12 12 12 13 13 13 14 13 13 13 12 11 11 11 11 9 10 10 10 10 10 8 8 8 8
14 13 13 14 14 14 14 14 13 13 13 13 13 13 12 12 12 11 11 10 11 13 13 13 13 13 12 12 11 11 12 13 13 9 11 11 10 11 10 10 8 7 7
13 14 14 14 15 14 15 13 12 13 13 13 13 13 13 12 12 12 11 10 10 10 10 11 12 12 12 11 12 13 12 12 13 11 12 13 10 11 10 9 8 7 7
14 14 15 14 15 14 14 13 12 13 13 13 13 12 12 12 12 12 12 12 12 11 11 10 10 10 11 10 10 10 11 12 11 10 11 14 11 11 10 9 8 7 7
15 14 15 15 14 14 14 14 13 13 13 13 12 12 12 12 11 10 12 13 12 12 9 8 8 8 8 7 8 11 12 13 13 12 11 13 12 12 11 11 10 7 7
15 15 14 14 14 15 14 13 13 14 14 13 13 12 11 11 10 10 12 12 13 12 11 11 10 10 9 10 8 10 11 13 13 14 11 12 12 12 14 11 10 11 9

GFSMA_con_lsi_048.txt.gz
Lid_Strength_Index
2 1 1 1 1 2 2 3 4 4 5 6 6 8 8 8 8 7 6 2 1 1 1 2 3 3 3 3 3 3 2 2 2 2 2 1 1 1 0 1 0 0 -0
1 1 1 2 3 4 3 3 5 6 7 8 9 9 10 9 9 9 7 5 3 3 4 4 5 5 4 4 3 3 3 3 3 3 3 2 2 2 2 2 1 1 1
1 1 3 4 4 4 5 6 7 8 8 8 10 10 10 10 10 9 8 7 6 5 6 6 7 6 6 5 4 3 3 3 3 3 3 3 3 2 2 2 2 1 1
1 2 3 3 4 5 6 8 9 9 10 10 11 11 11 10 10 10 9 9 9 9 8 8 8 7 7 6 5 4 4 4 4 4 4 3 3 3 2 2 2 2 2
2 4 4 6 5 6 8 9 10 11 11 11 11 12 11 10 10 10 11 11 11 11 11 9 9 7 8 7 6 5 5 5 4 4 4 4 3 3 3 2 2 2 2
3 5 6 7 7 8 9 10 11 11 12 13 11 11 11 10 11 11 11 10 11 11 12 11 12 11 8 7 7 6 6 5 5 5 4 4 4 3 3 2 2 2 2
5 7 7 8 9 9 10 10 11 12 12 13 13 12 12 11 11 11 11 11 11 11 12 12 13 13 12 9 8 7 7 6 6 5 5 5 4 4 3 3 3 3 2
7 8 9 9 11 11 11 11 11 12 12 13 14 14 14 13 12 11 11 12 13 13 12 12 13 13 13 13 11 8 8 7 6 6 5 4 4 3 3 3 2 2 2
9 8 8 9 10 10 10 11 11 12 13 13 14 14 15 15 15 13 13 12 13 13 13 13 12 13 13 13 11 11 9 8 7 5 5 4 4 4 3 3 3 3 3
8 8 8 10 10 11 11 12 11 13 12 14 14 13 14 15 17 17 14 14 13 13 14 13 13 13 13 13 11 10 9 8 7 6 5 4 4 4 3 3 3 3 3
8 9 10 11 11 12 12 13 13 13 13 13 13 14 14 14 15 16 17 15 14 14 14 14 14 14 13 13 13 11 9 8 7 6 5 4 4 4 3 3 3 3 3
10 11 11 12 12 12 12 12 13 13 13 13 13 14 14 15 15 16 17 17 17 15 15 14 14 14 13 13 11 9 9 8 7 6 5 5 4 4 4 4 4 4 4
12 11 11 12 12 12 12 12 12 12 13 14 14 14 13 14 14 15 16 17 18 16 15 15 14 14 12 13 13 9 9 8 8 7 5 5 5 5 5 5 4 4 4
12 11 12 12 12 12 12 12 12 12 13 13 14 14 14 14 14 15 16 17 18 18 16 16 13 14 14 14 12 9 12 9 8 7 6 6 6 6 6 6 6 6 6
12 12 12 13 13 13 13 13 13 15 15 14 14 14 14 14 15 15 15 16 17 19 18 17 16 14 14 13 12 11 12 9 8 7 7 7 7 7 7 7 7 6 5
12 12 13 13 13 13 14 14 15 15 16 15 14 15 15 15 15 15 15 15 16 17 18 16 15 15 14 12 11 11 11 9 8 8 8 8 8 8 7 7 6 4 4
12 12 13 13 13 14 14 15 15 15 15 15 14 15 15 15 15 16 16 15 16 16 17 16 14 13 14 13 12 12 11 12 11 8 8 8 8 7 6 5 5 4 4
12 13 13 13 14 15 15 16 16 15 15 15 15 15 15 14 16 16 16 16 16 16 16 16 14 14 14 13 12 13 12 10 11 10 8 7 6 5 5 5 5 5 5
12 13 14 14 15 15 15 15 16 15 15 15 15 15 15 16 16 16 16 16 16 14 15 15 15 13 13 13 13 12 12 13 11 9 7 6 6 6 6 6 5 6 6
14 14 15 15 14 15 15 15 14 15 15 15 14 15 15 15 15 16 15 16 14 15 15 15 15 15 14 13 13 14 14 12 12 9 8 8 7 7 6 6 7 7 7
14 14 15 15 15 15 15 14 14 15 15 15 15 14 14 13 11 12 13 15 15 15 15 15 14 14 14 14 15 13 13 12 11 11 11 11 11 11 10 9 9 8 7
15 15 15 15 16 15 13 14 14 15 15 15 15 15 15 12 13 11 11 10 11 13 14 15 14 15 14 14 13 13 13 14 14 10 13 12 11 11 11 10 8 7 7
16 15 16 16 15 15 14 14 13 15 15 15 16 15 15 13 13 14 12 10 11 10 10 12 14 14 14 12 13 14 13 12 12 11 12 13 11 11 10 9 8 7 7
16 17 16 15 16 15 14 14 13 15 16 15 15 15 15 15 14 12 13 14 14 13 13 12 12 11 11 11 10 10 11 12 11 11 11 14 12 12 11 10 8 8 7
15 16 16 16 17 17 14 14 14 15 16 16 15 15 14 14 11 10 12 15 14 13 11 9 8 8 8 7 8 11 13 14 14 12 11 13 13 12 12 11 10 8 7
16 16 17 17 14 17 14 13 13 15 16 16 15 14 11 12 10 10 12 13 15 14 12 12 11 11 10 11 8 11 12 13 13 14 11 13 13 13 15 11 12 11 11

GFSMA_con_lsi_051.txt.gz
Lid_Strength_Index
3 3 2 2 2 2 2 3 5 5 6 8 9 9 9 10 8 7 5 0 0 1 1 2 3 3 3 3 3 3 3 3 2 2 2 2 2 1 1 1 1 1 0
3 2 2 2 3 4 4 5 5 7 9 9 10 10 11 11 10 8 6 4 2 2 3 4 5 5 5 4 4 3 3 3 3 3 3 2 2 2 2 2 1 1 1
2 2 3 4 5 5 6 7 8 9 10 10 11 11 11 11 11 10 7 7 6 4 5 6 6 6 6 6 5 4 4 4 4 3 3 3 3 3 2 2 2 2 1
1 3 4 4 5 5 7 8 9 11 11 12 12 12 12 11 11 11 9 9 9 9 8 8 8 7 8 6 6 5 4 4 4 4 4 3 3 3 2 2 2 2 2
2 3 5 6 6 8 9 9 11 11 12 13 12 12 12 11 12 11 12 12 11 10 11 9 8 8 8 7 6 5 5 5 5 5 4 4 3 3 3 2 2 2 2
4 5 7 7 8 9 10 10 11 12 12 13 12 12 12 11 12 12 12 11 12 12 12 13 13 13 9 9 8 7 6 5 6 5 5 4 4 4 3 3 3 3 2
5 7 7 8 9 10 11 11 12 12 13 13 13 13 12 12 12 12 12 12 12 12 13 14 14 14 14 10 9 8 7 6 6 6 5 5 4 4 4 3 3 2 2
6 8 8 9 10 11 12 12 11 12 12 13 14 14 15 14 13 12 12 12 13 13 13 13 14 14 14 14 12 9 9 8 6 6 5 5 5 4 4 3 3 2 2
8 9 9 10 12 12 12 12 11 11 13 13 14 13 15 15 16 14 13 13 14 14 14 13 13 13 14 14 12 11 9 8 7 6 5 5 4 4 3 3 3 3 3
8 8 9 10 11 11 13 12 12 12 12 14 13 13 14 15 16 17 15 14 14 14 14 14 14 14 14 14 12 10 9 9 7 6 5 4 4 4 3 3 3 3 3
9 9 9 10 10 10 12 13 13 13 13 13 14 14 15 14 15 17 17 15 14 14 14 14 15 15 14 14 14 12 9 8 7 6 5 5 4 4 4 3 3 3 3
9 10 10 10 11 11 11 12 13 14 14 14 14 14 14 15 16 16 17 17 17 16 15 15 15 15 15 15 12 9 9 8 7 6 6 5 5 4 4 4 4 4 4
12 11 11 11 11 11 12 12 13 13 13 14 14 14 15 15 15 16 16 17 18 17 16 16 15 15 14 15 14 10 9 9 8 7 6 5 5 5 5 4 4 4 4
11 11 11 11 12 11 12 13 12 13 14 14 15 15 15 16 15 15 16 17 19 19 18 17 16 16 15 15 12 10 13 9 9 8 7 6 6 6 6 6 5 5 5
11 11 11 12 11 11 12 12 13 14 14 15 15 15 15 15 15 15 15 16 18 20 19 18 17 15 15 14 13 13 13 10 9 8 7 7 7 7 7 7 6 6 6
11 12 12 12 12 12 13 12 13 14 15 15 15 16 16 15 15 15 16 16 17 18 20 17 16 16 15 13 12 12 12 10 9 8 8 8 8 8 7 7 7 7 6
12 12 13 13 13 14 14 14 15 15 15 15 15 16 15 15 16 17 17 17 17 17 18 17 16 15 16 15 14 13 12 12 11 9 8 8 8 8 8 7 6 5 4
13 13 13 13 14 14 15 14 15 16 15 15 16 16 15 14 16 16 17 17 17 17 18 17 16 15 15 14 13 14 12 11 11 10 9 9 8 8 7 6 5 5 5
13 13 14 14 14 14 15 16 16 15 15 15 15 15 15 16 17 17 17 17 17 15 16 16 16 14 14 13 14 13 13 13 12 10 9 8 7 6 6 6 6 6 6
13 14 14 14 14 15 15 15 15 15 15 15 14 15 16 16 17 16 16 16 15 16 16 16 15 15 14 13 13 14 15 14 14 11 9 8 7 7 7 7 7 7 7
14 14 14 14 15 16 15 15 14 15 15 15 16 16 15 14 12 12 14 15 16 16 16 16 16 15 14 15 15 15 15 14 12 11 12 11 11 11 10 9 9 8 8
15 15 15 16 16 15 13 13 14 15 15 16 17 16 16 13 13 11 11 10 11 14 16 17 15 15 15 15 15 14 13 14 14 10 11 12 11 11 11 10 8 7 7
15 16 16 17 16 15 13 13 13 15 16 17 16 16 16 14 13 15 12 10 11 10 10 13 15 15 15 14 13 14 13 12 12 11 12 13 11 12 10 10 8 7 7
15 16 16 16 16 14 13 14 13 16 16 16 16 16 16 16 15 13 14 14 14 14 14 13 13 13 12 10 10 10 11 12 12 11 11 14 12 12 11 10 8 7 7
16 16 16 16 17 16 14 14 14 16 16 16 15 15 14 15 12 10 13 15 15 14 11 10 9 8 8 8 8 10 13 13 14 12 11 12 12 13 11 11 10 8 7
16 16 17 17 16 18 14 13 14 15 16 16 15 15 12 12 11 10 12 13 15 15 14 12 12 11 10 11 8 11 12 13 13 13 12 13 12 12 14 12 12 11 11

GFSMA_con_lsi_054.txt.gz
Lid_Strength_Index
1 2 2 2 1 1 2 2 4 5 8 9 9 10 10 10 8 6 4 0 -1 0 1 2 2 3 3 4 4 3 3 3 3 3 2 2 2 2 1 1 1 1 1
1 3 3 2 2 2 3 4 5 7 9 10 11 11 11 11 8 7 5 3 1 2 3 4 4 4 5 5 4 4 4 4 4 3 3 3 3 2 2 2 2 1 1
3 3 3 3 4 4 5 7 9 10 10 10 12 12 12 12 11 8 7 7 6 4 5 6 6 6 6 5 5 5 5 5 4 4 4 3 3 3 2 2 2 2 1
2 2 3 4 5 6 7 9 10 11 11 11 12 12 12 12 12 9 9 9 10 9 7 7 8 7 7 6 6 5 5 6 5 5 4 4 4 3 3 3 2 2 2
2 2 3 5 6 8 9 9 11 11 11 12 12 12 11 11 12 10 10 11 11 11 12 8 8 8 8 8 7 6 6 6 6 6 5 4 4 4 3 3 3 2 2
3 3 5 6 8 9 11 11 12 12 13 13 12 11 12 11 12 13 12 12 12 12 13 13 14 12 9 9 8 8 7 6 6 6 5 5 4 4 4 3 3 3 2
4 4 6 8 10 10 10 11 12 13 14 14 13 13 11 12 12 12 13 13 12 13 14 14 15 15 14 10 10 8 7 7 7 6 6 5 4 4 4 3 3 3 3
4 4 7 9 11 11 12 12 12 13 13 14 14 13 13 13 12 12 11 12 13 13 13 13 14 14 15 14 12 8 8 8 7 6 6 5 5 4 4 4 3 3 3
5 5 8 10 11 11 12 13 12 12 14 14 14 13 15 15 15 14 14 14 14 14 14 14 14 14 14 14 12 11 9 9 7 6 5 5 5 4 4 3 3 2 2
6 7 8 9 10 11 12 12 12 12 13 14 14 13 14 14 16 17 14 14 14 14 14 14 14 14 14 14 12 10 9 8 7 6 6 5 5 4 3 3 3 3 3
7 7 9 10 10 10 11 11 12 12 13 14 14 14 15 15 16 16 17 16 15 15 15 15 15 15 15 15 14 12 9 8 7 7 6 5 4 4 4 4 3 3 3
7 7 9 9 10 10 10 11 12 13 14 13 15 14 15 15 16 16 17 18 18 16 16 15 15 16 16 16 13 11 10 9 8 7 6 5 5 5 4 4 4 4 4
9 8 8 9 10 11 12 12 12 12 13 13 15 15 15 15 15 16 17 17 18 17 16 15 15 16 15 16 15 11 11 9 8 8 6 5 6 6 5 5 4 4 4
10 10 10 10 11 11 11 12 12 13 13 14 15 15 15 15 15 15 16 17 19 18 17 17 16 16 16 16 13 10 13 10 9 8 7 7 7 7 6 6 5 5 5
10 10 9 10 11 11 12 12 13 13 14 14 14 15 15 16 15 15 16 16 18 20 19 18 18 16 16 15 14 13 14 11 9 9 8 8 7 7 7 6 6 6 5
10 10 11 12 12 12 12 13 14 14 14 15 14 15 16 16 16 16 16 17 17 18 20 18 18 17 15 14 13 13 13 11 10 9 8 8 8 8 7 7 7 7 7
11 11 12 12 12 13 13 14 15 15 14 14 14 15 16 16 16 16 17 17 17 18 20 18 18 16 17 16 14 14 13 13 12 9 8 8 8 8 8 8 7 7 7
11 12 12 12 13 14 15 15 14 14 15 15 16 16 16 15 16 17 17 17 18 18 19 18 17 17 17 15 15 15 13 12 12 10 9 9 8 8 8 8 7 6 5
12 12 13 14 14 14 15 15 15 16 15 15 15 16 16 16 17 17 18 18 18 16 17 18 17 16 16 15 14 14 14 13 12 10 10 9 9 8 7 6 6 6 6
12 13 13 14 14 15 15 14 14 14 15 15 16 16 16 16 17 17 17 17 16 17 17 17 16 16 16 15 15 15 15 14 14 13 11 10 8 7 6 6 7 7 7
14 14 15 14 14 14 14 14 14 15 16 16 16 16 16 15 13 13 14 16 16 16 16 17 17 18 17 15 16 15 16 15 14 12 12 12 11 11 10 8 8 8 8
14 15 14 16 14 13 12 12 14 16 16 16 17 17 17 15 14 12 12 11 12 14 18 19 19 16 15 15 15 15 15 15 14 11 13 12 11 11 10 10 7 7 7
15 15 15 15 15 14 13 13 13 16 17 18 18 18 17 15 15 16 13 11 11 10 10 12 15 15 16 15 15 15 13 12 12 11 12 13 11 12 10 9 7 7 6
15 15 15 15 15 15 14 14 14 17 18 18 17 17 17 16 15 13 14 15 14 14 14 13 14 14 13 12 10 10 11 12 12 11 11 15 11 12 10 10 7 7 6
15 16 16 17 16 16 14 14 15 18 17 17 16 16 15 15 12 11 13 15 14 14 11 10 10 9 8 7 8 11 13 14 15 13 11 13 12 12 11 11 10 7 6
16 16 17 17 16 19 14 14 14 16 17 16 16 16 13 13 11 10 12 14 16 16 15 14 14 12 11 12 9 11 13 15 15 15 13 14 13 12 13 13 11 11 10

GFSMA_con_lsi_057.txt.gz
Lid_Strength_Index
1 2 2 2 1 1 1 2 3 6 8 9 9 10 10 9 8 6 4 -0 -1 -0 1 2 2 3 3 3 3 3 3 3 3 3 3 3 3 2 2 2 1 1 1
1 2 3 2 2 1 2 3 5 8 10 10 11 10 11 9 8 6 5 3 0 1 2 3 4 5 5 4 4 4 3 3 3 3 4 4 3 3 2 2 2 2 1
1 1 3 4 3 2 3 5 8 10 11 11 11 11 12 11 8 7 7 6 5 3 4 5 6 6 6 5 5 4 4 5 4 4 4 4 4 3 3 3 2 2 2
1 2 4 4 3 4 6 9 10 11 12 11 12 12 12 11 10 7 8 9 10 9 7 7 7 7 7 6 6 5 5 6 5 5 5 5 4 4 4 3 3 3 2
2 2 4 5 4 7 8 10 11 11 12 12 12 13 12 12 11 8 10 10 10 11 12 8 8 8 8 8 7 7 6 6 6 6 6 5 5 4 4 3 3 3 3
3 3 4 4 6 8 10 11 12 13 13 13 12 12 12 12 12 11 11 11 11 12 13 13 14 13 9 9 9 8 7 6 6 6 6 5 5 4 4 3 3 3 3
4 4 5 5 7 8 10 11 13 13 14 14 13 13 12 12 13 12 12 12 12 12 13 14 14 15 14 9 9 8 7 7 7 6 5 5 4 4 4 4 3 3 3
4 4 5 6 8 10 12 13 13 13 14 14 14 14 14 13 12 13 12 12 13 13 14 14 14 14 14 14 12 8 7 7 6 6 5 4 4 4 4 3 3 3 3
4 4 5 6 8 9 11 11 12 13 14 15 15 13 15 15 15 14 14 14 14 15 15 15 14 14 14 15 13 12 8 7 6 5 5 5 5 4 4 3 3 3 3
5 5 6 7 8 8 10 9 10 11 12 14 14 14 15 14 16 17 15 15 15 14 15 15 15 15 15 15 12 10 8 8 7 6 5 5 5 4 4 4 4 3 3
6 7 7 8 9 9 9 9 9 9 11 12 12 14 16 15 15 16 17 16 15 15 15 15 15 16 15 15 15 12 9 8 7 7 6 6 5 5 4 4 3 3 3
8 8 8 8 7 8 9 9 8 10 12 12 13 13 15 14 16 15 17 18 17 16 16 15 16 16 16 16 13 11 10 9 9 8 7 6 5 5 4 4 4 4 4
9 9 9 8 8 8 9 10 11 12 12 13 13 14 14 14 15 15 17 18 18 17 17 16 16 16 15 16 15 11 11 11 10 9 7 6 6 6 6 6 5 5 4
8 9 9 8 8 9 10 11 12 13 13 14 15 14 15 15 15 15 15 17 19 19 18 17 16 17 16 16 14 12 15 11 10 9 8 7 8 7 7 7 6 6 5
9 9 8 9 10 10 11 12 13 13 14 14 14 15 14 14 15 14 16 16 18 20 20 18 18 17 16 16 15 15 15 12 10 10 9 9 8 8 7 7 6 6 6
9 9 10 10 11 11 11 12 13 14 14 14 15 14 15 15 15 14 15 16 17 18 20 18 18 18 17 15 14 14 14 11 11 10 9 9 8 8 7 7 7 7 6
10 10 11 11 12 12 13 14 14 14 14 14 14 14 15 15 14 16 16 17 18 19 19 19 18 18 18 17 15 15 15 15 14 10 9 9 8 8 8 8 7 7 7
10 11 10 12 13 13 14 15 15 14 14 15 15 15 15 14 16 16 17 18 18 18 19 19 19 18 17 16 16 16 14 13 13 11 9 9 9 8 8 8 8 7 7
11 11 12 13 14 14 14 14 14 15 15 15 14 14 15 16 16 17 17 18 18 17 18 19 18 17 17 16 17 15 15 14 13 11 10 10 9 9 8 8 7 6 6
12 12 13 14 15 14 14 14 14 14 14 14 14 15 15 16 17 17 17 18 17 18 18 18 17 18 17 16 16 16 16 15 15 13 12 11 10 9 7 6 6 6 6
13 13 14 14 13 13 13 13 13 14 15 16 16 16 16 15 14 14 15 17 17 17 17 18 18 18 19 16 16 15 16 15 15 14 14 14 13 11 10 8 8 7 7
13 13 14 13 13 12 11 12 14 16 16 17 17 18 18 16 16 13 12 12 13 16 19 19 20 18 16 16 15 15 16 16 17 13 14 12 11 11 11 11 8 7 6
12 14 14 14 14 13 13 12 14 16 17 18 18 18 18 16 15 16 14 12 12 11 11 13 15 15 15 15 15 16 15 15 14 11 12 13 12 12 11 10 7 6 6
15 15 15 15 15 14 12 13 14 17 17 18 18 19 18 17 16 14 15 15 15 14 14 13 14 14 14 13 13 13 13 12 12 12 12 15 13 13 11 11 7 6 5
15 15 15 15 15 14 13 13 15 17 17 18 17 17 16 16 13 11 14 15 14 14 12 10 10 10 10 10 10 11 14 14 15 14 12 14 14 13 12 11 10 7 5
15 15 16 16 15 18 14 14 15 17 17 17 16 16 14 14 12 11 12 15 16 16 15 15 15 14 13 12 9 12 13 16 15 15 13 15 13 13 15 13 12 10 9

GFSMA_con_lsi_060.txt.gz
Lid_Strength_Index
2 2 2 2 1 1 2 2 3 6 8 9 10 10 8 8 8 5 4 -1 -1 -1 1 1 2 3 3 3 3 3 3 3 2 2 3 3 3 2 2 2 2 1 1
2 1 3 3 2 2 2 2 4 8 10 11 11 10 10 8 7 6 5 3 -0 1 2 2 3 4 4 3 4 4 4 4 3 3 3 3 3 3 3 3 2 2 2
2 1 2 3 3 3 2 4 8 10 11 11 12 12 11 9 7 6 6 5 4 2 3 4 4 5 5 5 4 4 5 5 5 5 4 4 4 4 4 3 3 3 2
1 2 2 3 3 3 3 6 10 11 12 12 12 12 12 11 9 8 7 9 9 9 6 5 5 6 6 6 6 6 6 5 6 6 5 5 5 4 4 4 4 3 3
1 1 2 2 4 5 6 8 11 11 12 13 12 12 12 12 10 8 9 10 10 11 11 6 7 8 8 8 7 7 6 6 6 6 6 5 5 5 4 4 4 3 3
3 2 2 3 5 7 8 10 12 13 12 13 12 12 12 12 12 10 10 10 10 11 12 13 14 13 8 8 8 7 7 6 6 6 6 6 5 5 4 4 3 3 3
4 3 3 4 5 7 7 10 12 13 14 14 13 13 13 12 13 12 11 12 12 12 14 14 15 15 14 10 9 8 6 6 6 6 5 5 4 4 4 3 3 3 2
4 4 4 4 6 7 10 11 12 14 14 14 14 14 14 14 13 13 12 12 13 13 14 14 15 15 15 15 13 9 9 8 7 6 5 5 4 3 3 3 3 3 3
4 4 5 5 6 7 9 10 11 12 13 14 15 13 15 15 15 15 14 14 14 15 15 15 15 15 15 15 13 11 8 8 7 6 5 4 4 4 3 3 3 3 3
4 4 5 5 6 7 9 9 10 9 10 12 12 13 14 13 15 17 15 15 15 15 16 15 15 15 15 15 12 10 9 8 7 6 5 5 4 4 4 4 4 3 3
4 4 5 7 8 8 8 8 9 9 9 11 11 12 13 14 15 15 16 15 15 15 15 16 16 16 16 15 15 12 10 9 8 7 6 5 5 5 4 4 4 4 4
5 6 6 7 8 8 8 8 8 9 10 11 11 12 13 14 15 16 16 16 16 16 16 16 16 16 16 16 14 11 10 9 9 8 7 6 6 5 5 5 5 4 4
7 6 6 8 8 8 8 8 8 9 10 11 13 13 13 14 14 14 15 16 18 17 17 17 16 17 15 17 16 11 11 10 10 9 7 6 6 7 6 6 5 5 5
5 6 7 7 8 7 8 9 9 11 12 13 14 14 14 14 14 14 16 16 18 19 17 16 15 16 17 17 14 12 15 11 11 10 8 8 8 8 8 7 7 6 6
8 7 7 8 9 8 9 9 11 12 13 14 14 14 14 14 14 15 14 15 16 19 19 18 16 16 17 17 15 15 15 13 11 10 10 9 9 9 8 8 7 7 6
8 8 8 9 9 10 10 11 12 13 14 14 14 15 15 15 15 14 15 15 16 17 19 18 18 17 17 16 15 14 15 12 11 10 10 10 9 9 8 8 7 7 6
8 9 10 10 11 11 12 12 13 14 14 14 14 15 15 14 14 15 14 16 15 16 19 18 18 18 18 17 16 16 15 16 15 11 10 9 9 8 8 7 7 7 7
8 10 10 11 12 13 13 14 14 14 14 14 14 15 15 14 15 15 16 15 16 17 18 19 19 19 18 17 17 17 15 14 14 11 10 9 9 8 8 8 8 7 7
9 10 12 13 13 13 14 13 13 14 15 14 14 15 14 15 15 15 16 16 17 17 19 19 19 19 18 17 17 17 16 15 13 11 10 10 9 9 8 8 8 8 8
11 12 13 14 14 14 13 13 13 13 14 14 14 14 14 16 15 16 17 17 17 18 19 19 18 19 18 17 18 17 16 15 15 13 12 11 10 9 9 8 8 8 7
12 13 13 13 13 12 13 13 13 14 14 15 15 16 16 15 14 15 15 17 17 18 18 20 18 18 19 18 16 15 16 15 15 14 14 14 14 13 12 9 8 7 7
12 13 13 12 12 11 11 11 14 15 15 16 17 17 17 16 15 14 14 13 13 16 19 20 20 18 17 16 16 16 16 16 16 14 15 13 11 11 10 10 8 7 6
12 13 13 12 12 12 11 12 13 15 16 17 17 17 17 16 16 17 15 13 13 11 11 14 16 16 16 15 15 16 15 15 15 13 13 13 11 12 11 10 7 6 6
13 13 14 13 14 13 11 13 14 16 17 17 17 18 19 18 17 15 15 15 15 14 14 14 15 15 15 14 13 13 13 14 12 12 12 15 12 13 12 11 8 7 6
14 14 14 15 14 13 12 13 15 17 17 18 17 18 17 17 14 12 14 15 15 15 13 11 11 10 10 10 10 12 14 15 15 14 12 14 14 13 11 11 10 6 6
15 15 15 15 14 16 13 13 15 17 18 17 16 16 14 14 11 11 13 16 17 17 16 15 15 15 13 13 10 13 15 17 15 15 14 14 14 12 14 11 11 10 9

GFSMA_con_lsi_063.txt.gz
Lid_Strength_Index
-0 -1 -1 -1 -1 -1 -1 -1 -1 2 1 4 5 4 4 4 3 1 -1 -1 -2 -1 0 1 2 2 2 2 2 2 2 2 3 3 3 2 2 2 2 2 2 2 2
-1 -1 -1 -0 -1 -1 -1 -1 0 3 4 5 6 6 5 4 3 0 -1 -1 -1 -0 1 2 3 3 3 3 3 3 3 3 4 4 3 3 3 3 3 3 3 3 2
-0 -1 -1 -0 -0 -1 -1 -1 2 5 6 7 7 7 5 4 3 2 1 1 1 1 2 3 3 4 4 4 4 4 4 5 5 5 4 4 4 4 4 3 3 3 3
-1 -1 -0 -0 -1 -0 -1 0 3 6 7 7 8 8 7 5 4 3 2 3 4 4 3 4 4 5 6 5 5 5 5 5 6 5 5 5 5 4 4 4 4 4 3
0 -1 -0 -1 -0 0 1 1 5 6 7 8 8 8 8 7 5 4 4 5 5 5 5 5 5 6 7 7 6 6 6 6 6 6 5 5 5 5 4 4 4 4 3
1 1 0 -0 -0 1 2 3 5 8 7 8 10 9 8 7 7 5 5 6 6 7 6 6 8 8 7 7 7 7 6 6 6 6 5 5 4 4 4 3 3 3 3
2 1 1 -0 0 1 3 3 6 8 10 9 9 9 9 8 9 7 7 7 7 8 8 9 9 9 9 9 9 8 7 6 6 6 5 5 4 4 3 3 3 2 2
2 2 2 2 1 1 3 6 7 9 9 10 9 9 10 10 10 9 9 9 8 9 9 10 10 10 10 10 9 9 8 7 6 6 5 4 4 3 3 3 3 2 2
2 2 2 2 2 2 4 6 6 7 10 11 10 8 11 10 11 11 10 10 9 10 10 10 11 11 10 10 9 8 8 8 7 6 5 4 4 4 3 3 3 3 3
2 2 2 3 3 3 4 5 7 6 7 10 11 12 11 10 11 14 13 11 11 11 11 11 11 11 10 10 10 10 9 9 8 6 5 4 4 4 3 3 3 3 3
2 2 2 3 3 4 4 6 7 7 7 8 9 12 12 12 13 13 14 15 13 13 12 11 11 11 12 11 10 10 10 9 8 7 6 5 5 4 3 3 3 3 3
2 3 3 3 3 4 5 6 5 7 7 8 9 11 11 12 13 13 15 15 14 14 13 12 12 12 12 12 12 11 10 10 9 8 7 6 5 5 5 4 4 4 4
4 3 3 4 5 5 5 6 6 7 7 8 10 11 11 12 12 13 13 16 15 15 15 14 13 12 13 12 12 11 11 10 10 9 7 7 7 7 7 6 5 5 5
2 3 3 3 5 6 6 6 6 7 8 9 10 12 12 13 12 13 14 14 17 16 16 15 14 14 13 12 12 12 12 11 11 10 9 8 8 8 8 7 7 7 6
3 3 4 5 5 5 6 6 7 9 10 11 12 13 13 14 13 13 13 14 14 17 17 15 15 14 13 13 12 12 12 12 11 10 10 10 9 9 9 8 8 7 7
4 5 5 5 6 7 8 8 10 12 12 13 13 14 14 14 15 13 14 14 14 15 16 16 15 14 14 14 13 12 12 12 12 11 10 10 10 9 9 8 8 7 7
4 5 6 6 8 8 10 11 12 13 14 14 13 14 14 13 13 14 14 15 15 16 17 16 15 14 14 14 13 13 13 13 12 11 10 10 10 9 8 8 7 7 7
5 6 7 8 10 11 12 13 14 13 14 14 14 13 14 13 14 15 14 15 15 15 16 16 15 15 15 14 14 14 14 13 12 11 10 9 9 8 8 8 8 7 7
7 8 9 10 11 12 13 13 13 14 13 13 13 14 14 14 15 15 16 16 15 15 15 17 16 15 15 14 14 14 13 12 12 11 10 10 9 9 8 8 8 8 8
9 10 10 11 12 12 13 13 13 13 13 13 13 14 15 15 15 16 16 15 15 16 16 16 16 15 15 14 14 14 14 12 12 11 10 10 10 9 9 8 8 8 8
10 11 11 11 13 12 12 12 13 13 13 14 15 15 15 15 14 13 13 14 15 15 15 15 16 15 15 14 14 13 14 13 12 11 12 11 11 11 10 9 8 7 7
10 11 11 11 11 11 10 11 12 13 14 15 16 16 16 14 14 14 14 14 13 14 15 15 14 15 14 13 13 13 13 14 15 10 12 12 10 9 9 8 7 7 6
11 11 12 11 11 11 10 10 12 15 16 16 16 16 15 15 16 16 15 14 14 12 12 12 13 13 14 13 13 14 13 13 13 11 11 12 10 10 9 8 7 7 6
13 14 14 14 12 12 12 12 13 16 16 16 16 16 16 16 16 15 14 13 12 12 12 12 12 12 12 11 11 12 12 12 10 10 10 14 10 11 10 9 8 7 7
14 14 13 13 13 12 12 13 15 16 16 16 16 16 15 15 13 11 12 13 13 13 12 12 11 11 11 10 10 11 11 12 14 12 11 13 11 11 10 10 9 8 7
14 14 15 13 13 14 12 13 15 16 16 16 16 15 13 13 12 11 12 14 15 14 14 13 13 12 12 11 10 11 12 14 14 14 11 13 12 12 13 10 9 9 9

GFSMA_con_lsi_066.txt.gz
Lid_Strength_Index
-1 -1 -1 -1 -1 -1 -1 -1 -1 -1 -1 -1 0 0 1 1 1 1 0 -2 -2 -1 -0 -0 1 2 2 2 2 2 2 2 2 2 2 2 3 2 2 2 2 2 2
-1 -1 -1 -1 -1 -1 -1 -1 -1 -1 -1 0 1 2 2 2 2 1 -0 -2 -1 -1 -0 0 1 2 2 2 3 3 3 4 3 3 3 3 3 3 3 3 3 2 2
-1 -1 -1 -0 -1 -1 -1 -1 -1 -1 0 1 2 3 3 2 1 1 0 -1 -1 -0 0 2 2 3 3 3 4 4 4 5 5 5 4 4 4 4 4 4 3 3 3
-1 -1 -0 -0 -1 -1 -1 -1 -0 0 1 2 3 4 4 3 2 2 1 1 1 2 2 2 3 4 4 4 4 5 5 5 5 5 5 5 5 4 4 4 4 3 3
-1 -1 -1 -1 -1 -1 -0 -0 -0 -0 1 3 4 5 5 4 3 3 3 2 2 3 3 3 3 5 5 5 6 6 6 6 6 6 5 5 5 4 4 3 3 3 3
-1 -1 -1 -1 -1 -0 0 -0 0 0 1 2 5 6 5 5 5 4 4 4 4 4 4 4 5 6 6 6 7 6 6 6 6 6 6 5 4 4 3 3 2 2 2
-1 -0 -0 -0 -1 0 0 0 0 1 3 3 6 6 6 6 6 6 5 5 6 6 6 5 6 7 7 8 8 7 7 7 6 6 5 4 4 4 3 3 2 2 2
-1 -1 -0 -0 -0 0 0 0 1 3 3 5 5 4 6 7 7 7 6 6 6 6 7 7 7 7 7 7 7 9 8 7 6 5 5 4 4 3 3 3 2 2 2
-1 -1 -0 -0 -0 -0 1 0 0 3 4 5 5 4 6 6 7 7 8 7 7 7 8 8 8 9 9 8 8 8 8 8 7 6 5 5 4 4 3 3 2 2 2
-0 -0 -0 -0 -0 -0 0 0 1 2 2 6 7 8 7 6 8 10 9 8 8 8 8 9 10 10 10 9 10 9 9 9 7 6 5 5 4 4 4 3 3 2 2
0 1 0 -0 0 0 0 0 2 3 3 3 6 8 8 9 9 9 8 11 10 9 9 10 10 10 10 10 10 10 10 9 8 7 6 5 5 4 4 4 4 3 3
0 1 1 1 0 0 1 1 2 3 4 3 5 6 8 9 10 10 11 11 10 11 11 11 12 12 11 10 11 12 11 10 9 8 7 6 5 5 5 5 5 5 4
1 1 1 1 1 1 1 1 2 3 3 4 5 7 8 9 10 10 10 12 11 13 12 12 12 12 11 12 11 12 12 11 10 9 7 6 6 7 7 6 6 6 5
1 1 1 1 2 1 2 1 2 3 3 4 5 7 11 12 12 12 12 13 15 14 14 14 13 13 13 13 12 12 12 11 11 10 8 8 8 8 8 8 7 7 7
1 0 1 2 2 2 3 4 4 4 5 5 9 11 12 13 12 13 13 12 12 16 15 15 14 14 13 13 13 12 12 11 11 10 9 9 9 9 9 9 8 8 8
0 0 1 2 3 3 3 4 6 6 8 10 12 13 13 14 13 13 13 13 13 14 14 15 14 14 14 14 13 13 12 11 11 11 10 10 10 10 10 9 9 8 8
2 2 2 2 3 4 5 7 9 11 12 13 12 14 14 13 13 14 14 14 14 14 15 15 15 14 14 14 12 12 12 12 12 11 10 10 10 10 10 9 9 8 8
2 2 3 4 5 6 8 10 11 12 14 14 13 14 14 13 13 13 13 15 14 14 15 16 15 15 14 14 13 13 13 12 12 12 11 11 10 10 9 8 8 8 7
5 5 6 7 8 10 10 11 13 13 13 13 13 13 14 13 13 14 14 14 15 15 16 15 16 14 14 13 13 13 13 13 12 11 10 10 9 9 8 8 8 8 8
9 9 9 10 10 10 10 12 12 12 12 12 13 13 13 13 13 14 14 15 15 15 14 14 14 14 14 13 13 14 14 13 12 11 10 9 9 9 9 8 8 8 8
9 9 10 10 10 10 11 11 11 12 13 14 14 13 14 13 13 14 14 14 14 14 14 14 15 14 14 14 14 13 13 12 11 10 10 10 10 9 9 8 8 8 7
10 10 10 10 9 9 8 9 11 13 14 14 15 15 14 13 13 13 14 13 13 14 14 14 14 14 13 12 12 12 12 13 14 10 11 11 9 9 8 7 7 7 7
12 12 11 11 11 10 10 10 12 14 15 15 14 15 15 14 15 15 14 14 13 13 11 11 12 12 12 12 12 13 13 13 13 10 10 11 8 9 8 7 7 7 7
13 14 14 14 14 13 11 12 13 14 14 14 14 15 15 15 15 14 13 11 11 11 11 11 12 12 11 11 11 11 11 11 9 8 8 11 9 10 8 8 7 7 7
14 14 14 14 13 13 13 13 14 14 15 15 15 15 15 15 13 11 11 12 12 12 12 12 11 11 10 10 10 10 10 10 12 11 9 11 10 10 9 9 8 7 7
14 13 14 13 11 12 12 13 14 14 15 14 13 13 13 12 12 11 12 12 14 13 12 12 11 11 10 9 10 10 10 12 13 13 9 12 11 11 12 9 9 8 8

GFSMA_con_lsi_069.txt.gz
Lid_Strength_Index
-0 -1 -1 -1 -1 -1 -1 -1 -1 -1 -1 -1 -1 -1 -0 -0 0 0 0 -0 -2 -2 -2 -1 0 1 1 1 1 1 2 2 2 2 2 2 2 2 2 2 2 2 2
-1 -1 -0 -1 -1 -1 -1 -1 -1 -0 -0 -1 -0 0 0 1 1 1 0 -1 -1 -2 -1 -0 1 1 1 2 2 2 3 3 3 3 3 3 3 3 3 3 3 2 2
-1 -1 -0 -0 -1 -1 -1 -1 -1 -1 -0 -0 0 1 1 1 2 1 0 -1 -1 -0 -1 0 1 2 2 2 2 3 3 4 4 4 4 4 4 4 3 3 3 3 3
-1 -1 -0 -0 -1 -1 -1 -0 -0 0 0 0 1 2 2 2 2 1 1 1 -1 1 1 0 1 2 2 3 3 3 4 5 5 5 5 4 4 4 4 3 3 3 3
-1 -1 -0 -0 -1 -0 -0 -0 0 0 1 1 1 2 3 3 2 2 2 2 2 2 3 2 2 3 4 4 4 4 4 5 5 5 5 5 4 4 4 3 3 3 2
-1 -1 -0 -0 -1 -0 0 0 0 0 0 1 2 3 3 3 3 3 4 3 3 3 3 5 6 6 5 5 5 5 5 5 5 5 5 4 4 4 3 3 2 2 2
-1 -0 -0 -0 -0 0 0 0 0 1 1 0 2 4 4 5 5 5 4 4 4 4 4 5 6 7 8 6 6 7 7 7 6 6 5 4 3 3 3 2 2 2 2
-1 -0 -0 0 0 0 0 1 1 1 1 2 4 5 6 6 7 6 6 5 5 5 6 6 6 7 7 9 8 8 9 8 6 5 5 4 4 3 3 2 2 2 2
-0 -0 -0 0 0 0 1 1 1 1 2 3 3 3 5 6 7 7 7 6 6 6 6 7 7 7 8 8 8 9 9 9 8 7 6 5 4 3 3 3 2 2 2
-0 -0 -0 -0 0 0 1 1 0 1 2 3 4 4 3 5 6 9 7 8 7 7 7 7 8 8 8 9 9 8 9 10 9 7 6 6 5 4 3 3 3 2 2
-0 0 -0 0 0 0 0 0 1 1 2 3 5 5 6 6 7 8 9 10 8 8 8 8 9 9 9 9 9 9 10 10 10 8 7 6 5 4 4 3 3 3 3
0 0 0 0 0 1 0 1 0 1 1 1 4 4 6 6 8 9 9 10 11 11 10 9 10 10 10 10 10 10 11 11 10 9 7 6 6 5 5 5 5 4 4
1 1 0 0 0 0 1 1 1 1 2 2 2 4 6 6 8 8 9 12 12 13 13 12 11 11 11 11 11 12 11 11 11 9 7 7 7 7 7 6 6 5 5
1 0 0 0 0 0 1 2 2 2 3 2 3 4 6 9 10 11 11 12 15 15 14 14 13 13 13 12 12 11 12 11 10 9 9 8 8 8 8 8 7 7 6
1 0 0 0 1 0 1 1 3 3 3 3 4 7 10 11 12 12 12 11 12 13 15 14 15 14 13 13 13 12 12 11 10 10 10 9 9 9 9 9 8 8 8
0 0 1 1 1 1 2 3 4 4 4 8 9 10 11 11 13 13 13 13 13 14 14 14 14 14 13 12 12 12 12 11 10 10 10 10 10 9 9 9 9 9 8
1 1 1 1 1 2 2 4 7 7 9 10 11 13 13 13 13 13 13 13 13 13 14 15 14 13 14 13 13 12 12 12 12 10 10 10 10 10 10 9 9 9 9
2 2 2 2 3 4 5 6 7 9 10 11 12 13 13 12 13 13 13 14 14 14 14 15 15 14 15 14 13 14 13 12 12 11 10 10 10 10 10 10 9 9 8
6 6 7 7 7 7 8 9 9 10 11 11 12 12 13 13 13 13 13 14 14 13 14 14 15 14 14 13 14 13 13 13 12 11 10 10 9 9 8 8 8 8 8
9 10 10 10 10 10 9 10 10 10 11 11 11 11 12 13 13 14 13 14 13 14 14 14 14 14 14 13 13 14 14 13 13 11 10 9 8 8 8 8 8 8 8
9 10 10 10 10 10 10 10 10 10 11 12 13 12 13 12 12 12 12 12 13 14 14 14 15 14 14 14 14 12 13 13 12 11 11 11 11 10 10 8 8 8 7
9 9 10 10 10 9 9 9 10 12 12 13 13 13 13 12 12 12 12 13 13 14 14 14 14 14 13 12 12 13 13 14 15 11 12 12 10 11 10 9 7 6 6
12 13 13 13 13 11 10 10 11 13 14 14 14 14 14 13 13 14 14 14 14 13 12 12 13 13 13 12 13 14 13 13 13 12 11 12 9 10 9 8 6 6 6
13 13 14 14 14 13 11 12 12 14 14 14 14 14 14 15 15 14 14 13 11 11 11 11 12 12 12 11 11 11 11 11 10 10 10 12 10 10 9 9 7 6 6
14 14 13 14 14 13 12 13 13 14 14 14 14 14 14 14 13 11 11 12 12 12 11 11 11 10 10 9 8 10 12 12 12 12 10 12 11 11 10 10 9 7 7
14 13 13 12 12 13 12 13 13 14 14 14 13 13 13 12 12 11 12 13 14 14 13 12 12 11 10 10 8 10 11 12 13 13 11 13 12 12 13 11 11 10 10

GFSMA_con_lsi_072.txt.gz
Lid_Strength_Index
1 2 1 0 1 1 1 1 1 1 1 1 1 1 2 2 2 3 3 -0 -2 -2 -2 -2 -1 -1 -0 0 0 1 1 1 1 1 1 1 2 2 2 2 2 1 1
1 1 1 1 1 1 1 1 1 2 2 2 2 2 2 3 3 3 3 1 -1 -2 -2 -1 -1 -0 -0 0 1 1 2 2 2 2 2 2 2 2 2 2 2 2 2
1 1 1 1 1 1 1 1 1 2 2 2 3 3 3 4 4 4 1 1 0 -1 -2 -1 0 1 1 1 1 1 3 3 3 4 3 3 3 3 3 2 2 2 2
1 1 1 1 1 1 1 2 2 2 3 3 3 4 4 4 5 4 3 0 1 2 -0 -1 1 2 2 1 2 2 3 4 4 4 4 4 4 3 3 3 2 2 2
1 1 1 1 1 1 2 2 2 2 3 4 3 4 5 5 5 4 4 4 2 3 4 1 1 2 2 3 3 3 3 4 5 5 5 4 4 4 3 2 2 2 2
1 1 1 1 1 2 2 2 2 2 3 3 3 4 6 6 5 5 5 5 5 5 5 6 6 6 3 3 4 4 5 5 5 5 5 5 4 4 3 3 2 2 1
1 1 1 1 1 2 1 2 2 3 3 3 5 7 7 7 7 7 6 7 6 6 7 7 8 9 7 4 4 5 5 6 7 6 6 6 5 4 3 2 2 2 1
1 1 1 1 2 2 2 2 2 2 3 3 5 8 9 8 8 8 8 7 7 7 7 8 8 9 9 9 8 6 6 7 6 6 6 6 6 5 4 4 3 2 2
1 1 2 1 2 2 2 2 2 2 3 4 5 6 7 8 9 8 9 8 8 8 8 8 8 9 10 10 8 8 7 7 7 7 6 6 5 5 4 4 3 3 2
0 1 2 2 2 2 2 2 2 2 3 4 5 4 6 7 9 11 9 9 8 8 9 9 10 10 11 10 9 8 7 8 8 7 7 6 6 5 5 4 4 3 3
1 1 1 2 1 1 1 1 2 2 2 3 5 6 5 7 8 10 12 11 10 9 9 9 10 11 11 11 11 8 8 9 9 8 7 7 6 5 5 4 4 4 4
1 2 2 1 1 1 2 2 2 3 3 3 4 6 6 7 7 9 10 11 11 11 10 11 12 11 12 11 9 8 9 10 10 9 8 7 6 5 5 5 5 5 5
2 2 2 1 1 1 1 1 2 2 2 3 3 5 5 5 6 7 8 10 12 13 12 12 13 13 12 12 11 11 10 11 10 9 8 7 6 7 6 6 6 6 6
2 2 2 1 1 1 1 1 1 2 2 2 3 4 5 7 7 7 8 11 13 15 14 14 13 13 12 12 12 10 12 11 11 9 8 7 8 8 7 7 7 7 7
2 3 3 2 1 1 1 2 2 3 3 3 4 5 9 10 10 10 10 9 10 14 15 14 14 13 13 13 12 12 12 11 10 8 8 8 9 9 8 8 8 8 8
3 4 4 3 2 2 1 1 3 3 5 7 8 10 9 10 10 10 10 11 10 12 14 14 14 14 13 13 12 12 12 10 9 9 9 9 9 9 9 9 9 8 8
5 5 3 2 3 3 3 4 5 6 7 9 9 10 10 10 10 11 12 12 12 12 13 14 14 14 14 13 13 13 11 12 12 10 10 10 9 9 9 9 9 9 8
8 8 7 7 7 7 7 7 8 8 8 9 10 10 11 10 11 12 11 12 13 13 12 14 14 15 15 14 13 12 12 12 13 11 10 10 10 10 10 9 9 8 8
11 11 11 10 11 11 10 10 10 10 10 10 10 11 10 11 12 12 12 14 13 13 13 14 15 13 13 13 14 14 14 14 13 11 11 10 9 8 8 7 7 7 7
12 11 11 10 10 10 10 10 10 11 11 10 10 11 11 11 12 12 13 13 13 14 14 14 14 14 14 14 15 15 16 15 15 12 11 10 9 8 8 8 8 8 8
11 10 10 10 10 11 11 11 11 12 12 12 12 11 11 10 10 11 13 13 13 13 14 14 15 14 15 16 16 14 14 14 13 13 13 13 13 12 11 9 9 8 8
11 11 11 11 11 10 10 10 12 13 13 13 14 13 12 12 11 11 11 11 12 14 14 16 16 16 15 14 14 15 15 16 17 14 14 13 13 12 11 11 8 7 6
13 13 13 12 12 11 10 11 12 14 14 14 14 14 13 13 14 14 13 13 13 13 13 13 14 14 15 14 15 17 15 17 16 13 13 13 12 12 10 9 7 6 6
14 14 14 14 13 12 11 11 12 14 14 14 14 14 14 15 14 14 14 14 14 13 12 12 13 14 14 13 13 15 15 14 13 12 12 14 13 12 11 11 7 7 7
15 14 14 14 14 14 12 12 14 15 16 16 15 14 14 14 12 11 12 13 13 14 11 11 11 10 10 9 10 14 16 16 14 13 12 14 14 13 11 11 11 8 7
14 13 14 15 13 15 12 12 13 14 16 15 15 14 12 12 11 11 14 15 16 16 15 14 14 13 12 13 10 12 14 18 13 13 13 15 15 15 15 13 13 12 12

GFSMA_con_lsi_075.txt.gz
Lid_Strength_Index
2 1 1 0 1 1 1 1 1 0 1 2 2 2 2 3 3 3 2 -0 -2 -2 -2 -2 -1 -1 -1 -0 -0 0 1 0 0 1 1 1 1 1 1 1 1 1 1
2 2 2 1 1 1 1 1 1 1 2 2 3 2 3 3 4 3 2 0 -1 -2 -2 -2 -1 -1 -0 1 1 1 1 1 1 2 2 2 2 2 1 1 1 1 1
2 2 2 2 1 1 2 1 2 2 2 2 3 3 3 4 4 4 3 1 -0 -1 -2 -2 -1 -1 -0 1 1 2 2 2 2 3 3 3 3 3 2 2 2 2 2
2 2 2 2 1 2 2 2 2 3 3 3 4 5 5 4 5 5 2 1 1 1 -1 -2 -1 -0 0 1 1 1 2 3 3 3 3 4 4 3 3 3 3 2 2
1 2 2 1 2 2 2 3 2 2 4 4 4 5 6 5 5 5 4 2 2 2 3 -0 -0 -0 0 1 1 1 2 4 4 5 5 5 4 4 4 4 3 3 2
2 2 1 1 1 2 3 3 4 3 3 4 4 5 6 6 6 6 6 4 2 3 4 4 4 4 1 1 1 2 2 4 4 5 5 5 5 4 4 4 4 3 3
2 2 2 2 2 2 2 3 4 4 4 5 6 7 7 7 7 7 7 7 6 5 6 5 6 8 5 2 2 3 3 3 4 5 5 5 5 4 4 4 4 3 3
2 2 2 2 2 3 2 2 3 4 4 5 6 9 9 8 7 7 7 7 7 7 7 7 8 9 9 8 7 3 4 4 5 5 5 5 5 5 4 4 4 3 3
1 1 2 2 2 2 2 2 2 3 4 5 6 7 9 9 9 9 8 8 7 7 7 7 8 9 9 9 7 5 5 6 5 5 5 5 5 5 5 4 4 3 3
2 2 2 2 2 2 3 3 2 2 4 4 5 5 6 7 9 10 9 8 8 8 8 8 8 9 10 10 8 8 7 7 7 6 6 6 6 6 5 4 4 3 3
2 1 1 2 2 3 3 3 3 3 2 3 4 6 5 6 7 9 10 9 8 8 8 8 9 10 10 10 10 8 7 8 8 8 7 6 6 6 5 5 4 4 4
3 2 2 1 1 2 2 2 2 2 2 2 3 4 6 6 6 8 9 10 9 10 10 11 11 11 11 11 9 7 8 9 9 8 7 6 5 5 5 5 5 5 5
3 2 2 3 3 2 0 1 1 1 2 2 3 4 4 5 6 6 7 10 10 11 11 12 12 12 11 11 10 10 9 10 10 8 7 6 6 6 6 6 5 5 5
3 3 3 3 2 1 1 1 1 1 2 2 3 4 4 5 6 6 6 9 12 12 12 12 12 11 11 11 10 10 11 9 9 9 8 6 7 7 7 6 6 6 6
4 5 4 3 3 2 2 2 2 2 2 4 5 6 8 9 8 8 8 8 7 12 13 13 12 12 12 11 11 11 12 11 10 9 8 7 8 7 7 7 7 7 7
5 5 5 5 6 5 3 2 2 3 4 6 7 8 9 9 9 9 8 8 8 9 11 12 13 13 12 11 11 11 11 11 10 9 9 9 8 8 8 8 8 8 8
8 7 6 6 6 6 5 6 6 7 8 8 8 9 9 9 9 9 9 9 10 10 11 13 13 13 13 12 11 11 12 12 12 10 10 9 9 9 8 9 9 8 8
11 11 10 10 11 10 10 8 9 9 9 10 10 10 10 9 10 10 10 11 11 12 11 13 13 13 13 12 12 12 12 11 12 11 10 9 9 9 9 9 8 8 7
12 12 12 12 12 12 12 11 11 11 11 11 11 11 11 11 11 11 11 12 12 12 12 12 13 12 13 13 13 13 13 14 12 10 11 10 9 8 7 7 7 7 7
12 12 12 12 11 11 11 11 12 12 12 12 11 11 11 12 12 12 11 12 12 12 13 13 14 13 13 13 13 15 16 15 16 12 11 10 9 8 8 8 8 8 8
11 11 11 11 11 11 12 13 12 13 13 13 12 12 11 11 10 11 12 12 12 13 13 13 14 14 15 15 16 15 15 14 14 13 13 13 13 12 12 9 9 8 8
12 11 11 11 11 11 10 10 13 14 13 14 14 13 13 12 12 11 11 11 12 14 14 15 16 16 16 15 15 15 15 17 17 13 14 14 13 13 12 12 8 7 6
13 13 12 12 11 11 10 11 12 15 16 15 15 14 14 13 14 14 13 12 13 12 12 14 15 15 15 15 15 17 15 17 17 14 14 14 13 12 11 10 8 7 7
14 14 14 13 13 11 11 11 12 14 14 14 14 15 15 15 14 13 13 14 13 13 12 12 14 14 14 14 13 14 15 15 15 14 13 16 13 13 12 11 8 8 7
14 14 15 16 16 15 11 12 14 16 16 16 15 15 15 15 12 11 14 15 15 15 12 11 11 10 10 9 10 15 17 18 17 15 14 14 14 13 12 13 12 9 8
14 16 18 16 13 16 11 11 14 15 17 16 16 15 12 14 12 12 16 17 17 17 16 15 15 14 13 13 10 13 16 21 19 18 13 14 15 13 14 13 13 12 13

GFSMA_con_lsi_078.txt.gz
Lid_Strength_Index
2 1 1 1 1 1 1 2 1 1 1 1 1 2 2 3 3 2 1 -0 -2 -2 -2 -2 -2 -2 -1 -1 -0 1 1 0 0 0 -0 1 1 1 1 0 0 0 0
3 1 1 1 1 1 1 1 1 1 1 2 2 3 2 4 3 3 1 1 -1 -2 -2 -2 -2 -2 -2 -1 -0 1 1 1 1 1 1 1 1 1 1 1 1 1 1
3 2 2 2 1 1 1 1 1 2 2 2 3 4 4 4 5 4 3 1 0 -1 -2 -2 -2 -2 -2 -1 -1 1 1 2 2 2 2 2 2 2 2 2 2 2 2
3 3 3 3 2 2 2 2 2 3 3 3 3 4 5 5 5 5 4 1 1 1 -1 -2 -2 -2 -2 -1 -1 0 2 2 3 3 3 3 3 3 3 3 3 3 3
2 2 3 3 3 2 2 3 4 3 4 4 4 4 6 6 6 5 4 3 1 2 2 -1 -2 -2 -1 -1 -1 -0 1 2 3 3 3 4 4 4 4 3 3 3 3
2 2 2 2 2 2 2 3 4 4 4 4 4 5 6 7 7 6 6 2 2 2 3 3 2 2 -0 -1 -0 0 1 2 3 4 4 4 4 4 4 4 3 3 3
2 2 2 2 2 2 2 2 4 4 5 5 6 7 8 8 8 7 7 6 3 2 3 4 4 5 3 1 0 1 1 2 3 4 4 5 4 4 4 3 3 3 3
3 3 3 2 2 3 2 3 3 5 5 6 6 8 8 7 8 8 8 7 7 4 4 4 5 6 6 5 5 1 2 2 3 4 5 5 5 4 4 4 4 3 3
2 2 3 3 3 3 3 3 3 4 3 5 6 6 10 9 9 8 9 9 8 8 7 6 6 7 7 7 5 4 3 4 4 5 5 5 5 5 4 4 4 3 3
2 2 2 2 3 3 3 3 3 3 5 5 6 4 7 8 9 9 9 7 7 7 7 7 7 8 9 9 7 6 5 7 7 6 6 6 6 5 4 4 4 4 3
2 2 2 2 3 3 4 3 3 3 3 3 5 6 7 6 7 8 8 9 8 7 7 7 7 8 8 9 8 7 7 7 7 7 7 6 5 4 4 4 4 4 4
3 3 2 3 2 2 2 3 3 2 3 2 3 4 4 5 5 8 9 9 8 10 11 10 10 9 9 9 8 7 6 7 7 7 7 6 6 5 4 4 4 4 4
4 3 3 3 3 3 2 1 1 2 2 2 2 3 3 3 4 5 5 8 9 9 10 11 10 9 9 9 8 7 7 7 7 7 6 5 4 5 5 5 4 4 5
4 4 3 3 3 2 2 2 2 2 2 2 2 2 3 4 5 5 5 6 10 11 11 11 11 10 9 9 8 7 8 7 7 6 6 5 6 6 6 6 6 6 6
5 5 5 6 5 4 2 2 3 3 3 4 5 6 7 8 7 7 7 6 6 10 11 11 11 9 10 9 8 9 10 8 8 8 7 7 7 7 7 7 7 7 7
6 6 6 7 7 7 6 6 7 5 5 6 7 7 8 8 8 7 7 7 7 7 9 10 11 11 10 10 9 10 10 9 9 8 7 8 8 9 8 8 8 8 7
9 8 8 8 8 8 6 6 7 7 8 8 9 9 9 9 9 9 9 9 9 8 10 12 11 11 11 11 10 10 10 10 10 9 8 8 8 9 8 8 8 8 8
12 12 12 12 12 11 11 9 9 9 9 10 10 10 10 10 11 10 10 11 11 11 10 11 12 12 11 11 11 11 11 11 11 10 9 9 9 9 9 8 8 7 6
12 12 12 12 12 12 12 12 12 12 11 11 11 11 11 11 12 12 12 12 12 12 12 11 13 11 11 12 12 12 12 13 12 11 10 10 10 8 7 7 6 6 7
12 12 12 12 12 12 12 12 12 13 12 13 12 12 12 12 12 12 13 12 12 13 13 13 13 12 13 13 13 15 16 15 16 13 12 10 9 8 8 8 7 8 8
12 12 12 12 12 12 12 13 12 12 13 13 12 12 11 10 10 11 13 13 13 13 13 13 14 14 16 15 16 17 17 16 15 14 14 14 13 13 13 10 9 9 8
12 11 11 12 11 11 10 10 12 13 14 14 14 13 12 13 11 10 10 10 12 13 16 16 16 16 16 16 15 15 16 17 17 14 14 14 14 14 13 13 9 8 7
13 13 12 11 11 11 10 10 12 16 17 15 15 17 14 13 13 13 12 11 12 11 12 15 16 16 16 16 17 19 16 19 17 14 14 16 14 14 13 12 9 8 6
14 13 14 13 13 11 10 11 12 16 17 17 18 17 16 16 15 14 15 15 15 15 14 13 15 15 15 15 15 16 16 15 15 14 14 19 15 15 13 12 9 8 7
14 14 14 15 16 15 12 12 15 17 17 17 16 16 16 16 12 12 15 16 16 16 13 11 11 11 10 10 11 14 17 18 18 15 14 15 15 14 13 13 12 8 7
17 17 17 17 14 17 12 12 15 16 17 16 16 16 12 14 13 13 16 17 18 17 17 15 15 15 14 14 11 14 16 21 21 20 15 13 14 14 16 13 13 12 12

GFSMA_con_lsi_081.txt.gz
Lid_Strength_Index
2 2 2 1 1 2 2 2 2 2 1 1 1 1 2 3 3 2 1 0 -1 -2 -2 -2 -2 -2 -2 -1 -1 -0 -0 0 1 1 1 1 0 1 0 0 0 0 0
3 1 1 1 2 2 2 2 2 2 2 2 2 2 2 3 3 2 2 1 -1 -2 -2 -2 -2 -2 -2 -2 -1 -0 -0 0 1 1 2 2 1 1 1 1 1 1 1
3 2 2 2 1 1 1 2 2 2 2 1 2 2 3 3 4 3 2 1 0 -0 -2 -2 -2 -2 -2 -2 -2 -1 -0 0 1 2 2 3 3 2 2 2 2 2 2
3 4 3 3 2 1 1 2 2 2 3 3 3 3 4 5 5 5 4 2 1 1 -1 -2 -2 -2 -2 -2 -2 -1 -0 1 1 2 3 3 3 3 3 3 3 2 2
3 4 4 3 3 3 2 2 3 3 4 4 3 3 5 6 6 6 6 4 2 1 1 -0 -1 -2 -2 -1 -1 -2 -1 1 2 3 3 4 4 4 4 3 3 3 2
3 3 4 4 3 4 4 3 3 4 4 4 4 4 5 6 7 7 7 5 4 2 2 2 1 1 -1 -1 -0 -0 -0 0 2 3 3 4 4 4 4 4 3 2 2
2 3 3 3 3 3 3 3 4 4 5 5 6 7 7 7 7 8 7 7 5 3 3 3 4 3 2 -1 -1 -0 -0 1 2 4 5 5 4 4 4 3 3 3 2
3 3 3 3 3 3 3 3 3 4 5 5 6 7 6 5 7 7 8 7 8 5 4 4 4 4 4 3 2 -0 0 1 2 3 4 5 5 4 4 4 4 3 3
2 3 3 3 3 3 3 3 4 4 3 6 6 5 8 7 9 8 9 9 8 8 6 5 5 5 6 6 5 4 3 4 3 3 4 4 5 5 4 4 4 3 3
2 2 3 4 3 3 4 4 3 3 3 3 5 5 6 6 7 7 9 8 8 8 7 7 6 7 7 7 5 5 4 3 3 3 4 4 5 4 4 3 3 3 3
3 2 2 3 3 4 4 4 4 3 2 2 4 5 5 6 7 7 6 6 8 8 7 7 6 6 6 6 6 5 4 4 3 4 4 5 5 5 4 4 4 3 3
3 3 2 2 3 3 3 3 4 3 3 3 3 4 3 5 6 6 8 6 8 8 9 10 8 8 7 7 5 5 3 4 4 4 4 4 4 4 4 3 3 3 4
3 3 4 4 3 3 3 3 2 3 3 2 2 2 3 3 4 5 5 5 8 9 9 9 9 9 8 7 6 5 4 4 4 3 3 3 3 3 3 3 4 3 4
3 4 4 4 4 3 3 3 2 2 2 2 3 3 3 4 4 4 4 5 9 9 9 8 10 9 8 6 6 4 4 4 4 5 4 4 4 5 5 5 4 5 5
5 5 5 5 5 5 4 3 4 4 5 5 6 5 6 7 6 6 6 5 5 8 9 10 10 9 8 7 6 7 7 6 5 5 6 5 6 6 6 6 7 7 7
6 7 8 8 8 7 7 7 6 6 7 7 7 7 9 8 8 8 7 7 7 8 9 10 11 10 9 8 8 8 8 8 7 6 6 6 6 7 7 7 7 7 7
10 10 10 9 9 9 8 8 8 7 8 8 8 9 9 9 10 9 9 9 10 9 10 12 12 11 11 10 9 8 9 9 9 8 7 7 7 7 7 7 7 8 8
12 12 12 12 12 11 11 9 10 9 9 9 9 10 10 9 10 11 11 11 12 11 11 12 12 12 12 11 10 11 10 9 10 10 9 8 8 8 8 8 8 7 6
12 12 12 12 12 12 12 12 12 11 11 11 10 11 11 11 12 12 12 14 15 12 12 12 13 12 12 12 12 12 12 12 12 11 10 10 9 9 8 7 6 6 6
13 13 13 12 12 12 13 13 13 12 13 13 13 13 13 14 14 14 14 14 13 13 14 14 13 13 13 12 13 15 16 16 16 14 13 10 9 8 8 7 7 7 7
13 12 12 12 12 12 12 12 12 12 12 13 12 12 12 11 10 11 13 14 14 14 13 13 13 13 14 15 16 16 16 16 16 15 15 14 14 13 13 10 10 9 8
11 12 12 12 11 11 10 11 12 13 13 13 14 14 13 13 11 10 10 10 11 15 16 16 15 17 17 17 17 17 17 19 19 15 15 15 14 14 13 13 9 8 8
12 12 12 11 12 11 10 11 12 16 15 15 17 18 15 14 14 15 12 12 11 11 12 15 17 17 17 17 18 20 17 20 18 15 15 16 14 14 13 12 9 9 8
13 13 13 13 13 11 10 11 13 18 18 19 19 18 17 16 15 15 15 15 15 16 15 14 15 16 16 16 16 17 17 16 15 15 15 19 15 15 14 13 10 9 8
14 14 14 15 16 15 12 13 16 18 17 17 16 16 16 16 12 12 16 16 17 17 13 11 12 11 11 10 11 13 16 19 18 16 15 16 16 15 15 15 13 10 8
15 16 17 17 14 16 12 13 15 16 18 17 17 16 12 14 13 13 17 17 18 18 17 16 16 15 14 14 11 14 17 22 21 20 15 17 16 16 18 15 14 13 13

GFSMA_con_lsi_084.txt.gz
Lid_Strength_Index
2 3 3 2 2 2 2 2 2 2 2 2 2 2 2 2 2 3 2 0 -1 -2 -1 -1 -1 -1 -1 -1 -1 -0 -0 -0 0 0 0 1 1 1 0 0 -0 -0 -0
4 1 2 2 1 2 2 2 2 2 2 3 2 2 2 2 3 3 2 1 -1 -2 -2 -2 -2 -2 -1 -1 -1 -0 -0 -0 0 0 1 1 2 2 1 1 1 0 0
4 3 1 2 1 2 2 2 2 2 2 2 2 2 3 3 4 3 3 2 0 -0 -1 -2 -2 -2 -2 -2 -1 -0 0 -0 0 1 1 1 2 2 2 2 2 1 1
3 4 3 2 2 2 2 2 2 3 3 3 3 3 3 4 5 5 4 3 1 0 -0 -2 -2 -2 -2 -2 -2 -1 -0 1 2 1 2 2 2 3 3 3 3 3 2
3 4 3 3 3 3 3 2 3 3 4 4 4 4 3 4 5 5 6 5 4 2 1 0 -1 -2 -2 -2 -1 -1 -1 -0 1 3 3 4 4 4 3 3 3 3 2
2 4 4 4 4 4 4 4 3 4 4 4 4 4 5 5 6 6 6 6 6 4 3 2 2 1 -1 -2 -2 -2 -1 -1 1 2 3 4 4 4 4 4 3 3 2
2 3 4 4 4 4 4 4 4 4 5 5 5 6 6 6 6 7 7 7 7 5 4 3 3 3 2 -1 -2 -1 -1 -1 -0 2 3 4 4 4 4 3 3 3 3
3 3 3 4 4 4 4 4 5 5 5 6 5 6 6 4 6 7 7 7 7 6 4 4 4 4 3 3 2 -1 -1 -0 -1 1 3 3 3 4 4 4 3 3 3
3 3 3 3 4 4 4 4 4 5 5 6 6 4 7 7 7 6 7 8 8 8 7 5 3 3 3 4 2 2 1 1 -0 -0 1 3 3 3 4 4 3 3 3
3 3 3 4 4 4 3 4 4 4 4 3 5 4 5 5 6 7 8 9 9 8 8 8 6 6 6 5 3 3 1 1 0 0 1 1 2 3 3 4 3 3 3
3 3 3 3 4 4 4 4 4 4 4 4 5 6 6 6 7 7 6 5 7 8 8 8 7 6 5 5 5 3 2 1 -1 -1 -1 0 2 2 2 2 2 2 2
4 3 3 3 3 3 4 4 4 4 4 4 2 3 4 5 6 7 7 6 5 7 8 9 9 9 7 5 4 3 2 0 -0 -1 -1 1 1 1 1 1 2 1 2
5 4 3 3 3 3 3 3 3 4 4 2 2 2 3 3 3 4 5 4 6 7 9 8 8 8 7 7 5 4 2 1 0 -1 -0 -1 0 1 2 2 2 3 3
3 2 3 3 4 4 3 3 3 3 3 4 4 4 3 5 4 4 4 5 6 8 10 9 9 9 8 7 6 4 4 2 1 1 1 2 3 3 3 3 4 4 5
4 4 4 4 5 5 4 4 5 6 6 6 6 6 6 7 7 6 5 5 5 8 8 10 10 9 8 7 6 7 7 4 3 4 4 4 4 4 4 5 5 5 6
8 7 7 7 7 7 7 6 6 7 8 7 7 7 8 8 8 8 8 7 7 7 9 10 11 10 9 8 7 8 8 7 6 5 5 5 5 5 6 6 6 6 6
11 11 10 9 9 8 7 8 8 7 8 8 8 8 9 9 9 9 10 10 11 11 10 12 11 11 11 10 9 9 9 9 9 8 7 6 6 6 7 7 7 7 7
13 12 12 11 11 11 10 10 10 9 9 9 9 10 10 9 10 11 11 11 13 11 10 12 12 12 12 11 10 10 10 9 10 10 9 8 8 8 8 8 8 8 7
12 12 12 12 13 12 12 12 12 11 10 11 11 11 11 11 12 12 12 13 13 13 14 14 14 12 12 12 12 11 11 12 11 10 9 9 9 9 8 7 6 6 6
14 13 13 13 13 13 13 12 12 12 13 13 13 13 13 14 14 15 15 15 14 14 14 15 15 13 13 12 12 13 14 15 15 13 12 11 9 9 8 8 7 7 7
13 13 13 13 13 13 12 12 12 12 12 12 12 11 11 11 10 12 14 15 15 15 15 15 15 15 14 15 15 16 17 17 16 16 15 15 14 14 14 11 10 9 8
12 13 13 12 11 11 10 10 12 13 13 13 14 14 13 13 11 10 10 10 12 15 17 19 20 18 17 18 17 17 18 20 20 16 16 15 15 15 14 13 10 8 8
12 12 12 11 11 11 10 11 12 14 14 15 17 17 16 14 15 15 12 12 11 11 12 16 17 17 18 17 18 20 18 21 19 15 15 16 15 15 14 13 10 8 8
12 12 13 13 12 11 10 11 13 17 18 19 19 19 18 17 15 16 16 16 16 16 15 14 16 16 16 16 16 18 17 16 15 15 15 19 15 15 14 14 11 9 8
13 14 14 14 15 14 12 12 15 18 17 18 17 17 16 16 12 13 16 16 17 17 13 11 12 12 11 11 12 14 14 19 18 16 15 16 16 16 15 15 14 10 8
14 15 16 16 13 15 12 13 15 17 18 17 17 17 13 15 13 13 17 18 19 18 17 16 17 16 15 14 12 15 17 23 21 20 16 16 17 16 18 15 14 13 13

GFSMA_con_lsi_087.txt.gz
Lid_Strength_Index
-1 -1 -1 -1 -1 -1 -1 -1 -1 -1 -1 -1 -1 -1 -0 -1 -1 -1 -1 -0 -1 -2 -1 -1 -1 -1 -1 -1 -1 -0 -0 -0 0 -0 -1 -1 -0 -0 -0 0 0 -0 -1
0 -1 -0 -0 -1 -1 -1 -1 -1 -1 -1 -1 -1 -1 -1 -1 -1 -1 -1 -1 -1 -2 -2 -2 -2 -2 -2 -1 -1 0 1 0 0 0 1 0 0 0 0 0 1 1 0
1 1 -1 -1 -1 -1 -1 -1 -1 -1 -1 -1 -0 -1 -1 -1 -0 0 0 -0 -2 -1 -1 -2 -2 -2 -2 -2 -1 -1 0 1 1 1 1 2 2 2 2 1 1 1 1
1 1 1 -0 -1 -1 -1 -1 -1 -0 -0 -0 0 -0 -1 -1 -0 0 1 1 0 -1 -1 -2 -2 -2 -2 -2 -2 -2 -1 0 0 1 2 3 3 3 3 3 2 1 2
1 1 1 1 1 0 -0 -0 -0 -0 0 0 1 0 0 0 0 1 1 2 1 1 -1 -1 -1 -1 -2 -2 -2 -2 -2 -1 0 1 2 2 3 3 3 3 3 3 2
0 1 1 1 1 1 1 1 1 1 1 1 1 1 1 1 1 1 1 2 2 2 1 0 -1 -1 -1 -2 -2 -2 -2 -2 -0 1 2 2 3 3 3 4 3 2 3
0 1 1 1 2 2 2 2 2 2 2 2 2 1 2 1 2 1 1 2 2 2 2 1 0 -1 -1 -1 -2 -2 -2 -2 -2 0 1 1 2 3 2 3 3 3 3
0 1 1 2 2 2 2 2 2 3 3 3 2 3 4 2 2 2 2 2 2 3 3 2 1 1 -1 -0 -0 -2 -2 -2 -2 -1 0 1 1 2 2 2 2 3 2
1 1 1 1 1 2 1 2 2 3 3 3 3 2 5 6 4 3 4 4 4 4 4 3 3 2 1 1 1 0 -0 -2 -2 -2 -1 0 -0 0 0 1 1 1 2
2 2 2 1 1 2 2 1 1 1 2 3 4 3 2 3 5 5 3 5 6 5 4 5 4 3 2 2 2 1 0 -1 -2 -2 -2 -2 -2 -2 -1 -1 1 0 1
1 1 2 2 2 2 2 2 2 2 2 2 2 4 4 4 4 5 6 3 4 5 6 6 5 4 3 3 2 2 0 -0 -1 -2 -2 -2 -2 -2 -1 -1 -1 -0 0
2 1 1 1 1 2 2 2 2 2 2 2 1 2 2 3 4 4 5 4 3 4 6 6 6 5 5 4 4 3 1 -0 -1 -2 -2 -2 -2 -0 -1 -0 -1 0 0
2 2 2 2 1 1 1 1 2 2 2 2 1 1 1 1 2 3 3 4 4 5 6 7 7 6 5 6 4 4 3 1 0 -1 -1 -1 -0 1 1 1 1 1 2
2 1 1 1 1 1 2 2 1 1 1 2 2 3 3 4 3 2 2 3 4 5 6 7 7 6 7 6 5 4 3 2 1 1 1 2 2 3 3 3 3 4 4
3 3 2 2 2 2 2 2 3 5 5 5 5 5 5 6 6 5 4 2 3 6 5 8 7 8 7 6 5 5 4 3 3 3 4 4 4 4 4 4 4 4 4
6 5 5 5 5 5 5 5 7 7 7 7 6 6 7 7 6 6 6 6 5 5 7 9 9 9 8 8 7 8 7 7 5 5 5 5 5 5 5 5 5 5 5
9 9 8 7 7 7 7 6 6 6 7 8 7 8 8 8 8 8 8 7 7 7 8 11 11 10 9 9 9 8 8 8 8 7 6 6 6 6 6 6 6 7 7
11 10 10 10 9 9 8 7 7 7 8 8 8 8 9 9 9 9 9 10 10 9 8 11 11 11 10 10 10 10 9 9 8 9 8 8 7 7 7 7 7 7 6
12 11 11 11 11 10 10 9 9 9 9 9 9 9 10 10 11 10 11 11 11 11 10 9 11 11 11 10 10 10 10 11 11 10 10 9 9 9 8 8 7 7 6
12 12 12 12 12 12 11 11 10 11 11 11 11 11 11 11 11 12 12 12 11 11 11 10 11 11 11 11 11 12 12 12 12 11 11 11 9 9 9 9 8 8 7
12 12 11 11 11 11 11 11 11 11 11 11 11 11 11 11 10 11 12 12 12 11 11 11 12 12 12 12 12 12 13 12 12 12 12 11 10 10 10 10 9 9 8
11 11 11 11 11 10 9 10 11 11 12 12 13 13 12 12 10 10 10 11 11 12 13 12 13 13 14 13 13 13 13 13 14 12 12 11 11 10 9 9 10 8 8
11 11 11 11 11 11 10 10 11 13 13 14 14 14 13 13 13 13 11 11 11 10 12 13 14 14 14 13 14 14 14 14 13 12 12 12 11 11 9 10 9 9 8
12 12 13 12 11 10 10 11 12 14 15 15 15 14 14 14 14 14 14 14 14 13 13 13 13 13 13 13 13 13 13 13 12 12 12 13 11 11 10 10 10 9 8
13 13 12 12 12 11 11 12 14 15 15 15 15 14 14 14 12 14 14 15 15 15 12 12 12 12 12 11 12 12 13 13 14 13 12 13 12 12 11 11 10 9 8
13 13 14 13 12 13 12 13 14 15 15 15 15 14 13 13 13 13 15 16 16 16 14 14 14 14 13 12 13 13 13 14 14 14 13 13 12 12 12 11 10 10 9

GFSMA_con_lsi_090.txt.gz
Lid_Strength_Index
-1 -1 -1 -1 -1 -1 -1 -1 -1 -1 -1 -1 -1 -1 -0 -1 -1 -2 -2 -1 -1 -1 -1 -1 -1 -1 -1 -1 -0 0 0 0 -0 -0 0 0 0 -0 -0 -0 -1 -1 -1
-1 -1 -1 -1 -1 -1 -1 -1 -1 -1 -1 -1 -1 -1 -1 -1 -1 -1 -2 -2 -1 -2 -1 -2 -2 -1 -1 -1 -1 -0 0 0 0 0 1 0 0 1 1 1 1 1 -0
-1 -1 -1 -1 -1 -1 -1 -1 -1 -1 -1 -1 -1 -1 -1 -1 -1 -1 -1 -1 -2 -1 -2 -2 -2 -2 -2 -2 -2 -2 -1 -0 0 0 1 1 1 1 1 2 2 2 2
-1 -1 -1 -1 -1 -1 -1 -1 -1 -0 -0 -0 -0 -0 -1 -1 -1 -1 -1 -1 -1 -1 -1 -2 -2 -2 -2 -2 -2 -2 -2 -1 -0 0 1 2 2 2 2 2 2 2 2
-1 -1 -1 -1 -1 -1 -1 -1 -0 -0 0 0 0 -0 -0 -0 -1 -1 -1 -1 -1 -1 -1 -1 -1 -1 -2 -2 -2 -2 -2 -1 -0 0 1 2 2 2 2 2 2 2 2
-1 -1 -1 -1 -1 -1 -0 -0 0 -0 0 0 1 0 -0 -0 -1 -1 -1 -1 -1 -1 -1 -1 -1 -1 -1 -2 -2 -2 -2 -2 -1 -1 0 1 2 1 2 2 1 1 1
-1 -1 -1 -1 -1 -0 -0 -0 -0 1 1 -0 1 1 1 -0 -0 -0 -1 -1 -1 -1 -1 -1 -1 -1 -1 -2 -2 -2 -2 -2 -2 -1 -0 0 1 1 1 2 1 1 2
-1 -1 -1 -0 -0 -0 0 0 0 1 1 0 2 2 4 2 1 0 -0 -0 -0 -0 0 0 0 0 -0 -1 -1 -2 -2 -2 -2 -2 -1 -1 0 0 1 0 1 1 0
-0 -0 -1 -1 -0 -0 0 0 0 1 2 1 1 2 5 6 3 1 1 1 1 1 2 2 2 1 1 0 -0 -0 -1 -1 -2 -2 -2 -1 -1 -0 -1 -1 -0 -1 -1
0 0 -0 -0 -0 -0 0 0 -0 0 1 2 1 1 1 2 5 5 2 1 2 3 3 2 2 2 1 1 1 1 1 -1 -2 -2 -2 -2 -2 -2 -2 -2 -1 -1 -1
-0 0 1 1 1 0 0 -0 0 0 0 1 1 1 2 2 3 4 5 3 1 3 3 3 4 2 2 1 0 1 1 -0 -1 -2 -2 -2 -2 -2 -2 -1 -1 -0 -0
-0 -0 -1 -0 0 0 1 0 0 -0 0 0 1 1 2 3 3 3 4 4 3 2 3 3 3 3 2 2 3 3 2 1 -1 -2 -2 -2 -2 -2 -1 -0 -0 -0 0
0 0 0 1 1 1 1 0 0 0 0 1 1 1 1 1 1 2 3 3 4 2 3 4 4 3 4 3 3 4 3 2 1 -0 -1 -2 -1 0 1 1 1 1 1
1 -0 0 -0 -0 0 1 0 0 0 0 0 1 1 2 3 2 2 2 3 4 3 3 3 5 5 5 5 5 4 3 3 1 1 0 1 2 2 3 2 3 3 3
2 1 1 0 -0 -0 -0 0 1 2 2 4 4 4 5 5 4 4 4 3 3 5 4 5 4 6 6 6 6 5 5 4 3 3 3 3 3 4 4 4 4 4 4
5 4 3 3 2 2 1 2 4 6 6 6 6 6 5 5 5 5 4 4 3 3 5 6 8 7 7 7 7 7 7 6 5 5 5 5 5 5 5 5 5 5 5
6 5 5 4 4 4 4 4 5 6 6 6 6 5 6 6 7 7 6 5 5 4 5 10 9 9 8 7 6 6 7 7 7 6 6 6 6 6 6 6 6 6 6
7 7 6 6 7 6 6 5 6 6 6 6 6 6 7 7 7 7 6 6 6 6 6 9 10 9 9 8 8 8 8 8 7 8 8 8 7 7 7 7 7 7 7
8 8 8 8 8 8 7 7 7 7 6 6 6 7 7 7 8 8 8 8 8 8 7 8 10 10 9 8 8 8 8 8 9 10 10 10 9 9 9 8 8 7 7
9 9 9 9 9 9 9 9 8 9 9 9 8 8 8 8 9 9 9 9 8 8 8 8 9 9 8 9 9 9 9 9 10 10 10 11 10 9 9 9 9 8 7
9 9 10 10 10 10 9 8 8 9 9 10 10 9 9 10 10 10 9 9 9 9 9 9 10 9 10 10 10 10 11 11 10 10 10 10 10 9 9 9 9 9 8
9 10 10 10 10 10 9 9 9 9 9 10 11 10 10 9 9 9 10 10 10 10 10 10 10 10 11 11 11 11 12 12 12 10 11 11 10 10 9 9 10 9 8
9 9 9 9 9 9 9 9 10 11 12 13 12 12 12 12 10 10 10 11 11 11 11 11 12 12 12 12 12 13 12 12 12 11 11 11 10 10 9 9 10 9 8
10 11 11 10 10 10 9 10 11 12 12 12 12 12 13 12 12 12 12 13 12 12 12 12 11 12 12 12 12 12 12 12 11 11 11 12 10 11 9 9 11 9 8
12 12 12 11 11 11 11 10 11 12 13 14 13 12 12 12 13 13 13 13 13 13 11 12 11 12 12 12 11 11 12 12 12 12 11 12 11 11 10 10 9 10 9
13 12 13 12 11 11 11 12 13 14 15 14 13 13 13 12 12 14 14 14 14 14 13 13 13 13 12 12 12 12 12 13 13 13 12 13 13 12 12 10 9 9 9

GFSMA_con_lsi_093.txt.gz
Lid_Strength_Index
-1 -1 -1 -1 -1 -1 -1 -1 -1 -1 -1 -1 -1 -0 0 -0 -1 -1 -1 -1 -2 -1 -1 -1 -1 -1 -1 -1 -1 -0 -0 -0 -0 -0 -0 -0 -0 -0 0 -0 -0 -0 -0
-1 -1 -1 -1 -1 -1 -1 -1 -1 -1 -1 -1 -1 -1 -0 -1 -1 -1 -1 -1 -1 -2 -1 -2 -2 -2 -2 -1 -1 -1 -0 -0 0 0 0 1 1 1 1 1 0 0 0
-1 -1 -1 -1 -1 -1 -1 -1 -1 -1 -1 -1 -0 -1 -1 -1 -1 -1 -1 -1 -1 -0 -2 -2 -2 -2 -2 -2 -2 -1 -1 -1 -1 -0 1 1 1 1 1 2 2 1 1
-1 -1 -1 -0 -1 -1 -1 -1 -0 -0 0 -0 0 -0 -0 -1 -1 -1 -1 -1 -2 -1 -1 -2 -2 -2 -2 -2 -2 -2 -2 -1 -0 -0 0 1 2 2 2 2 2 1 1
-1 -1 -1 -1 -1 -1 -1 -0 -0 0 0 0 0 -0 -0 -0 -0 -1 -1 -1 -1 -1 -1 -1 -1 -1 -2 -2 -2 -2 -2 -2 -1 -1 -0 0 1 1 1 2 2 1 1
-1 -1 -1 -1 -1 -0 -0 -0 0 -0 0 0 1 1 0 -0 -1 -0 -0 -1 -1 -1 -1 -1 -1 -1 -1 -2 -2 -2 -2 -2 -2 -2 -1 -0 0 1 1 1 1 1 1
-1 -1 -0 -0 -1 0 0 -0 0 1 1 0 1 1 1 0 0 -0 -1 -0 -1 -1 -1 -1 -1 -1 -1 -2 -2 -2 -2 -2 -2 -2 -2 -1 0 0 0 -0 0 0 0
-1 -0 -0 -0 -0 0 0 0 0 1 1 0 2 2 4 3 1 0 -0 -0 -0 -1 -0 -0 0 -0 -1 -1 -0 -1 -1 -2 -2 -2 -2 -1 -1 -1 -1 -0 -0 -0 -0
-1 -1 -1 -0 -0 -0 1 0 0 1 2 1 1 2 5 6 3 1 1 0 1 1 1 2 2 1 1 0 0 -0 0 -1 -2 -2 -2 -2 -2 -1 -1 -1 -1 -1 -1
-0 -0 -0 -0 -0 -0 0 0 0 1 1 2 1 1 1 2 5 5 2 1 2 2 2 2 2 2 2 1 1 1 1 -0 -1 -2 -2 -2 -2 -2 -2 -1 -2 -2 -1
0 -0 -0 -0 -0 -0 0 0 0 1 1 1 2 2 2 2 2 4 5 3 1 2 3 3 3 2 2 1 2 2 2 -0 -1 -2 -2 -2 -2 -2 -2 -2 -1 -1 -0
0 -0 -0 -0 -0 0 0 0 0 0 1 1 1 1 2 3 3 3 4 4 3 2 3 3 3 3 3 2 3 3 2 1 0 -1 -2 -2 -2 -2 -2 -1 -2 -1 -1
1 0 0 0 1 1 1 1 0 0 1 1 1 1 1 1 1 2 3 4 4 2 3 4 4 4 4 4 4 4 3 2 1 -0 -2 -2 -1 -1 -0 -0 -0 0 1
2 2 2 1 -0 0 1 0 0 1 1 1 1 1 2 2 2 2 2 3 5 4 4 4 5 5 6 5 5 4 3 2 2 1 1 1 2 2 1 2 2 3 3
3 3 2 2 1 1 -0 0 1 1 1 2 3 3 4 5 4 4 3 3 3 6 5 5 6 6 6 7 6 6 6 4 3 3 3 3 3 3 3 4 4 4 4
4 3 3 3 2 1 1 0 2 4 5 6 6 7 7 6 6 5 4 4 4 4 5 6 8 7 7 7 7 7 7 7 5 4 4 4 4 4 5 5 5 5 5
5 4 4 4 4 3 3 4 4 4 5 6 5 6 6 6 7 6 6 5 4 4 6 9 8 8 8 7 7 7 7 7 7 6 6 6 6 6 6 6 6 6 6
6 6 6 5 5 5 4 5 6 5 6 6 6 7 8 7 7 6 6 6 6 5 6 9 9 9 8 8 8 8 8 8 7 8 7 7 7 7 7 7 7 7 7
7 7 7 7 7 7 6 5 5 5 6 6 7 7 8 8 8 8 7 7 7 7 7 8 10 9 9 9 9 8 9 9 9 10 10 10 9 9 9 8 8 8 7
8 8 8 8 8 8 7 7 7 7 7 8 8 8 8 8 8 8 8 8 8 8 8 8 9 9 9 9 9 10 10 10 11 10 10 11 10 9 9 9 9 9 8
8 8 8 8 8 8 8 8 8 8 9 10 10 9 9 9 9 9 8 9 9 9 8 9 10 10 11 11 11 11 12 12 12 12 12 11 11 11 10 9 9 9 9
8 8 8 8 9 9 10 9 9 9 10 10 10 10 10 10 9 10 10 10 10 10 10 10 11 11 12 12 12 13 13 14 14 12 13 13 12 12 11 11 10 10 9
8 8 9 9 10 9 9 10 10 11 12 12 12 12 11 11 10 11 10 11 10 10 10 11 13 13 13 13 13 14 14 14 14 12 13 14 12 13 11 11 10 10 9
9 10 11 10 9 9 9 9 10 11 11 11 11 12 12 12 12 12 13 13 13 13 13 12 12 13 12 13 13 13 13 13 13 13 13 15 12 13 12 11 10 10 9
11 12 11 11 11 11 10 10 11 12 13 13 13 12 12 13 13 13 12 13 14 13 12 11 11 11 11 11 11 12 13 14 14 14 13 15 13 14 13 13 12 11 10
12 12 12 11 10 11 11 11 12 13 14 14 13 13 13 13 13 13 13 14 15 15 14 14 14 14 12 13 12 13 13 15 15 15 14 15 14 15 16 13 13 12 12

GFSMA_con_lsi_096.txt.gz
Lid_Strength_Index
1 2 1 0 0 0 1 1 1 1 1 1 1 2 2 2 1 1 0 -1 -2 -2 -1 -1 -1 -1 -1 -1 -1 -1 -1 -0 -1 -1 -1 -1 -0 -0 -0 -1 -1 -1 -1
1 1 1 1 1 0 1 1 1 1 2 1 1 2 2 2 1 1 1 0 -1 -2 -2 -1 -2 -2 -2 -1 -1 -0 -0 -0 -0 -0 -0 0 0 0 0 0 0 0 -0
1 1 1 1 1 1 1 1 1 1 2 1 2 2 2 2 1 1 1 1 0 -0 -2 -2 -2 -2 -2 -2 -2 -1 -1 -1 -0 0 1 1 1 1 1 1 1 1 -0
0 1 1 1 1 1 1 1 2 2 2 2 2 2 2 2 2 1 1 1 1 0 -0 -2 -2 -2 -2 -2 -2 -2 -2 -1 -1 -0 0 1 1 1 1 1 1 1 0
0 1 1 1 1 1 1 1 2 2 2 2 2 2 2 2 1 1 1 1 1 1 1 -0 -1 -1 -2 -2 -2 -2 -2 -2 -1 -1 -1 -0 0 1 1 1 1 1 -0
0 1 1 1 1 1 1 1 2 2 2 2 1 2 2 1 1 2 1 1 1 1 1 0 0 -0 -1 -2 -2 -2 -2 -2 -2 -2 -2 -1 -0 0 0 0 1 0 -0
0 1 1 1 1 1 1 1 2 2 2 2 3 3 2 2 2 1 1 1 1 1 1 1 1 1 0 -2 -2 -2 -2 -2 -2 -2 -2 -1 -1 -0 0 0 -0 -1 0
0 0 1 1 1 1 1 1 2 2 2 2 3 3 5 3 3 2 2 2 3 2 2 2 3 3 2 1 1 -0 -0 -1 -2 -2 -2 -2 -2 -1 -1 -1 -1 -1 -0
0 0 1 1 1 1 2 1 2 2 3 2 2 3 6 6 4 3 4 3 3 4 4 4 4 3 3 2 2 2 1 0 -1 -2 -2 -2 -2 -2 -2 -1 -1 -1 -0
0 0 0 1 1 1 2 2 1 2 2 3 2 2 3 3 6 6 4 4 4 4 5 5 4 4 3 4 3 3 1 -0 -2 -2 -2 -2 -2 -2 -2 -2 -2 -1 -1
0 0 0 0 0 0 1 1 1 1 2 2 2 3 3 4 3 5 6 5 4 5 5 5 5 5 4 5 5 3 2 0 -1 -1 -2 -2 -2 -2 -2 -2 -2 -2 -1
0 0 -0 0 0 0 0 1 0 1 2 2 2 2 3 4 4 4 5 4 5 5 6 6 6 6 6 6 5 3 2 2 1 -0 -1 -2 -2 -2 -2 -2 -2 -1 -1
1 1 0 1 0 1 1 0 1 1 1 1 1 2 2 2 2 3 3 4 5 5 6 6 6 7 6 6 5 3 2 1 0 -1 -2 -2 -1 -2 -2 -2 -1 -0 -0
2 2 2 2 2 1 1 1 1 1 1 1 2 2 2 2 3 2 3 4 5 5 6 7 7 8 7 6 5 5 4 2 1 1 0 1 1 0 1 1 1 2 2
4 4 3 3 3 3 2 2 1 1 1 2 2 2 4 5 4 4 4 4 4 6 6 7 9 7 7 7 6 6 6 4 3 3 3 3 3 3 3 3 3 4 4
5 5 4 4 4 4 4 4 3 4 4 5 5 6 7 6 6 6 6 5 5 4 6 8 9 8 7 7 7 7 7 7 5 4 4 4 4 4 4 4 5 5 5
7 6 6 6 6 5 5 5 5 4 5 5 5 6 6 7 7 8 8 8 7 5 8 11 9 9 8 8 8 7 8 8 8 6 6 6 6 6 6 6 5 6 6
8 8 8 7 7 7 6 5 6 5 6 6 6 7 8 8 8 8 8 8 8 7 8 10 10 10 9 9 8 9 9 8 9 7 7 7 7 7 7 7 7 7 7
9 9 9 9 9 9 8 7 6 6 6 6 7 8 8 8 9 9 10 11 11 10 8 10 11 10 10 9 9 10 11 12 11 9 9 9 9 9 9 8 8 8 8
9 10 10 10 10 9 9 9 7 8 8 8 8 8 8 9 10 11 11 11 10 11 10 10 10 11 11 11 11 12 13 13 13 11 10 11 10 10 9 9 9 9 9
9 10 10 10 10 10 10 10 9 10 10 10 10 11 11 10 9 10 10 12 11 11 12 12 11 13 13 13 13 14 15 15 15 14 15 14 14 13 13 10 10 10 10
8 9 9 10 10 10 9 8 8 10 11 12 13 13 11 11 10 8 9 9 10 12 13 11 15 14 14 15 15 16 16 18 17 15 15 15 14 15 13 13 9 10 9
9 10 10 10 10 9 8 8 9 11 12 13 13 13 12 11 11 12 10 10 10 10 10 13 14 15 16 15 15 17 16 18 18 15 15 16 15 15 14 12 10 10 10
9 10 12 11 10 9 8 9 9 11 11 12 12 12 13 13 12 14 14 15 15 14 14 13 15 15 15 15 15 15 16 16 15 15 15 18 15 15 14 14 10 11 10
11 11 11 11 10 10 9 9 11 13 13 13 14 14 14 15 11 11 14 15 15 15 11 10 11 11 11 11 12 15 17 18 18 16 15 16 16 16 15 15 14 11 10
12 11 11 10 9 11 9 10 11 14 15 15 15 15 12 14 12 11 15 16 17 15 15 16 16 13 13 13 12 15 17 21 20 19 16 19 18 18 20 15 14 14 13

GFSMA_con_lsi_102.txt.gz
Lid_Strength_Index
1 1 1 1 1 1 1 1 1 1 1 1 2 3 3 3 1 1 1 0 -1 -2 -1 -2 -2 -1 -1 -1 -0 -0 -0 -1 -1 -1 -0 -1 -1 -1 -1 -1 -1 -1 -1
1 1 1 1 1 1 1 1 1 1 2 2 2 3 3 3 2 1 1 1 -1 -2 -2 -2 -2 -2 -2 -1 -1 -0 -0 -1 -0 -1 -0 -0 -0 -0 -0 -1 -1 -1 -2
1 1 1 1 1 1 1 1 2 3 3 3 3 3 4 4 3 2 1 1 0 -1 -2 -2 -2 -2 -2 -2 -2 -1 -1 -1 -1 -0 0 0 0 -0 0 -0 -1 -1 -1
2 3 2 1 1 2 2 2 3 4 3 3 3 3 3 4 3 3 2 2 2 1 -0 -2 -2 -2 -2 -2 -2 -2 -2 -1 -1 -1 -0 -0 -0 0 0 0 -0 -1 -1
1 2 2 1 3 3 3 3 3 3 3 3 3 3 2 3 3 2 2 2 2 2 2 0 -1 -1 -1 -2 -2 -2 -2 -2 -2 -1 -1 -1 -1 -0 -0 -0 0 -0 -1
0 1 2 3 3 3 3 3 3 3 3 3 2 2 3 2 2 2 2 2 2 2 2 2 1 0 -0 -2 -1 -2 -2 -1 -2 -2 -2 -2 -1 -1 -1 -1 -0 -1 -0
1 1 1 1 3 2 2 2 2 2 3 3 3 3 3 2 3 2 2 2 2 2 2 2 2 2 2 -1 -1 -1 -1 -2 -1 -2 -2 -2 -2 -2 -1 -1 -1 -1 -1
1 1 2 2 2 3 2 2 2 2 2 2 3 4 5 4 3 3 3 3 3 3 4 4 5 4 3 3 2 1 -0 -1 -1 -1 -1 -2 -2 -2 -2 -2 -2 -2 -1
0 1 2 1 1 2 2 2 2 2 3 3 3 4 6 6 5 4 5 5 5 5 6 5 5 4 4 5 5 4 1 -0 -1 -1 -1 -1 -2 -2 -2 -2 -2 -2 -1
1 1 1 1 1 1 2 1 1 2 2 3 3 2 3 3 5 6 4 5 6 6 6 6 6 6 6 7 5 3 2 1 -0 -1 -1 -1 -2 -2 -2 -2 -2 -2 -2
1 1 0 1 1 1 1 1 1 1 1 2 2 3 3 3 3 4 6 6 7 7 7 7 6 6 7 7 6 5 3 2 1 -0 -1 -2 -2 -2 -2 -2 -2 -2 -2
1 0 0 0 0 1 1 0 0 1 1 1 1 1 2 4 4 4 5 5 5 7 7 7 7 7 8 8 5 4 2 1 1 0 -1 -1 -1 -2 -1 -2 -2 -2 -2
2 1 0 0 1 -0 0 0 1 1 1 1 1 1 1 2 3 3 4 5 6 8 8 8 8 8 7 8 7 4 2 1 0 -1 -1 -2 -2 -2 -2 -2 -2 -2 -1
3 2 0 1 1 2 1 1 2 1 0 1 1 1 1 1 2 3 3 5 6 7 8 9 9 9 8 8 7 5 4 3 2 1 0 0 0 0 -0 -1 -1 -0 1
3 2 2 2 2 2 3 3 3 3 3 2 2 2 2 3 3 3 3 4 4 7 7 10 10 8 8 8 8 7 6 5 3 2 2 2 3 3 2 2 2 2 2
4 4 4 4 4 4 5 5 5 5 5 5 4 3 3 4 4 5 4 5 5 5 7 9 10 9 8 9 8 8 8 6 4 4 4 4 4 4 4 4 3 3 3
6 6 6 6 6 5 6 5 5 5 5 5 5 4 4 5 5 6 6 6 5 5 6 11 10 10 10 9 9 9 8 9 7 6 5 6 6 5 5 5 4 4 4
8 7 7 7 7 7 7 7 7 7 7 5 5 6 5 6 6 7 7 6 7 7 8 11 11 11 11 9 9 9 9 9 8 7 7 6 6 6 6 6 6 6 6
8 8 8 8 8 9 9 8 8 7 6 6 6 7 7 7 7 8 8 8 8 8 9 10 12 11 11 10 9 10 11 12 10 9 8 8 8 8 7 7 7 7 7
9 9 8 8 8 9 10 10 9 8 8 7 7 7 7 8 8 8 9 9 9 9 9 11 12 12 12 10 10 12 13 13 15 13 12 11 10 9 9 9 9 9 9
9 9 9 9 9 9 8 9 9 9 10 10 10 9 9 8 8 8 9 10 10 11 11 11 12 12 13 12 12 13 14 15 17 16 15 15 15 15 14 10 10 9 9
9 9 10 10 10 9 7 7 7 9 10 10 11 11 10 9 8 8 8 9 10 12 14 12 13 14 14 13 14 15 16 18 17 15 16 16 15 15 15 14 9 9 9
10 11 11 11 11 10 7 7 7 8 9 10 11 11 11 10 10 10 9 9 9 8 10 12 13 13 14 14 15 17 16 17 17 16 16 16 16 16 15 13 9 10 10
11 12 11 12 12 10 8 7 8 10 10 10 10 10 11 12 12 13 14 14 14 14 13 12 12 13 14 15 15 14 16 16 16 16 16 18 16 16 15 15 10 10 10
12 11 11 11 13 12 8 8 9 11 11 11 10 11 11 12 10 11 15 15 15 14 10 10 11 11 11 11 12 15 16 16 17 16 16 17 17 17 16 16 15 11 10
11 11 12 12 11 12 8 8 10 11 12 12 13 12 10 12 10 10 15 16 16 15 15 14 14 13 12 12 11 15 15 17 18 18 16 18 19 18 20 17 16 16 15

GFSMA_con_lsi_105.txt.gz
Lid_Strength_Index
0 1 0 1 1 1 1 1 1 1 1 1 1 2 3 2 2 1 1 0 -1 -2 -1 -1 -1 -1 -1 -0 -0 0 0 0 0 -0 -0 -0 -0 -1 -1 -1 -2 -2 -2
1 1 1 1 1 1 1 1 1 1 2 2 2 2 4 4 2 1 1 1 -1 -1 -2 -1 -2 -1 -1 -1 -1 -0 0 -0 0 0 -0 -0 0 0 -1 -1 -2 -2 -2
1 1 1 2 1 1 1 1 2 2 3 3 3 3 3 5 3 2 1 1 0 -1 -2 -2 -2 -1 -2 -2 -2 -1 -1 -1 -0 0 -0 0 1 1 -0 -0 -1 -1 -2
0 1 2 2 1 1 2 2 2 3 4 4 4 3 4 4 4 3 2 1 1 1 -0 -2 -2 -2 -2 -2 -2 -2 -2 -1 -1 -1 -1 -0 0 0 0 -0 -1 -1 -1
1 1 2 1 1 2 2 3 4 4 4 4 3 3 3 3 3 3 3 2 2 2 2 1 -0 -1 -1 -2 -2 -2 -2 -2 -1 -1 -1 -1 -0 -0 -1 -0 -0 -1 -1
2 2 2 2 2 3 3 4 4 3 3 3 3 2 2 2 2 2 3 2 2 2 2 1 2 1 0 -1 -1 -2 -2 -1 -2 -2 -2 -2 -1 -1 -1 -1 -1 -1 -1
2 1 2 2 3 3 3 3 3 3 3 3 3 3 3 2 3 3 3 2 2 2 2 2 1 2 2 0 -1 -1 -1 -1 -1 -1 -2 -2 -2 -2 -2 -1 -1 -1 -1
2 2 2 2 3 3 3 3 2 2 2 3 4 5 5 4 3 4 3 3 4 4 4 4 4 3 4 5 3 1 0 -1 -1 -1 -1 -2 -2 -2 -2 -2 -2 -2 -2
1 1 1 1 2 3 3 2 2 2 3 3 3 3 6 6 5 4 5 5 5 5 5 5 5 5 6 6 5 4 2 0 -1 -1 -1 -1 -1 -2 -2 -2 -2 -2 -2
1 1 1 1 1 1 2 2 1 1 2 3 2 2 2 3 5 6 4 6 6 6 6 6 6 6 7 6 6 4 3 2 -0 -1 -2 -2 -2 -2 -2 -2 -2 -2 -2
1 1 1 1 1 1 1 1 1 2 1 2 2 3 3 3 3 4 6 6 7 7 7 7 7 8 8 7 6 5 3 2 1 0 -1 -1 -2 -2 -2 -2 -2 -2 -2
2 1 1 1 1 1 1 1 0 0 1 1 1 2 3 3 4 4 4 5 6 8 8 8 8 8 8 8 5 4 2 1 1 1 -1 -0 -1 -1 -2 -2 -2 -2 -2
3 2 1 1 1 1 2 2 2 2 1 1 1 1 1 2 2 3 4 5 6 8 9 9 9 8 8 8 7 5 3 2 1 -0 -1 -1 -1 -2 -2 -2 -1 -2 -2
3 3 3 2 2 1 1 2 2 2 2 1 1 2 2 1 1 2 3 4 6 7 8 8 10 9 8 8 7 6 5 4 3 2 1 2 1 1 -0 -1 -1 -0 0
3 3 3 3 3 2 2 2 2 3 3 2 2 2 2 1 2 2 3 4 4 7 7 9 10 9 8 8 7 7 7 5 4 4 4 3 3 3 2 2 1 1 2
4 3 3 3 4 4 4 4 4 4 4 4 5 4 4 3 3 3 3 3 4 4 6 9 10 10 9 8 7 8 8 6 5 5 4 4 4 4 4 4 3 3 3
5 5 5 5 5 6 6 6 5 5 6 6 4 4 4 4 4 5 5 5 5 5 6 11 11 10 9 9 9 9 9 9 8 6 5 5 5 5 5 5 4 4 4
7 8 7 6 7 7 7 7 7 6 6 6 5 5 5 6 6 6 6 6 6 6 7 11 11 11 10 10 10 10 10 10 9 6 6 6 5 6 6 6 6 6 6
9 8 8 8 8 8 8 8 8 8 7 7 6 6 6 6 7 7 7 8 8 8 8 10 12 11 11 10 11 11 12 13 10 7 7 7 7 7 7 7 7 7 6
9 10 10 9 9 9 8 8 8 8 8 8 8 8 8 7 7 7 8 8 9 9 9 10 11 12 11 11 11 13 14 14 13 13 12 11 11 9 9 8 8 9 8
10 10 10 10 10 9 8 9 9 9 9 9 9 9 9 8 7 7 9 9 9 9 10 11 12 12 13 12 13 13 14 15 15 16 16 15 15 15 14 10 10 9 9
11 10 10 10 10 9 7 7 8 10 10 11 11 11 10 8 7 6 7 8 8 10 11 11 12 12 13 13 14 14 15 15 16 16 16 16 15 15 15 14 10 9 9
11 11 11 11 11 11 7 7 7 10 10 10 10 10 10 9 9 8 8 8 9 8 9 11 12 11 12 12 14 15 15 16 16 16 16 17 16 16 15 13 9 10 10
12 12 10 10 12 11 8 7 8 12 11 10 10 10 10 10 10 10 12 12 13 13 13 11 11 11 12 13 12 14 15 16 16 16 16 18 16 16 15 15 10 10 10
12 12 10 11 12 12 9 7 8 12 12 12 11 11 10 11 10 10 12 13 13 14 11 10 11 10 10 10 12 14 16 16 17 16 16 16 17 17 16 15 15 10 10
12 11 11 11 11 12 9 8 9 11 13 12 12 12 10 10 9 9 13 14 14 14 14 14 15 13 12 11 11 15 15 17 18 18 16 17 17 17 19 17 16 16 15

GFSMA_con_lsi_108.txt.gz
Lid_Strength_Index
1 1 1 1 1 1 1 2 2 2 2 2 2 2 4 3 2 1 1 0 -1 -2 -1 -1 -1 -1 -1 -1 -0 0 0 0 1 0 0 0 -0 -1 -1 -1 -2 -2 -2
0 0 0 0 0 0 0 1 1 1 2 2 2 2 4 4 3 1 1 1 -1 -1 -1 -1 -1 -1 -1 -1 -0 0 0 0 0 1 1 1 0 0 -0 -1 -1 -1 -2
-0 0 1 1 1 1 1 1 2 2 3 3 3 3 3 5 5 3 1 1 0 -0 -1 -1 -1 -1 -2 -2 -2 -1 -0 -0 0 0 0 1 0 1 0 -0 -0 -1 -2
0 1 1 2 1 1 1 2 2 3 4 4 4 4 3 4 4 4 3 2 1 1 0 -2 -2 -2 -2 -2 -1 -2 -1 -1 -0 -1 -0 0 0 1 0 0 0 -1 -1
1 1 1 2 1 2 2 2 3 4 4 4 4 3 4 3 3 3 3 3 2 2 2 1 -0 -1 -2 -1 -1 -1 -1 -2 -1 -1 -1 -1 -1 -0 0 -0 0 -1 -1
1 1 1 2 2 2 3 3 3 4 4 4 3 3 3 3 3 3 3 3 3 2 2 2 1 1 0 -1 -1 -1 -2 -1 -2 -2 -2 -2 -2 -1 -0 -1 -0 -1 -1
2 1 1 2 2 2 2 3 4 4 4 3 3 3 3 3 4 4 3 3 2 2 2 2 2 2 2 1 -0 -1 -1 -1 -1 -1 -2 -2 -2 -2 -1 -1 -1 -1 -1
2 2 2 2 2 3 3 4 3 3 3 3 3 4 5 4 4 5 4 3 4 4 3 3 2 4 4 4 3 2 1 0 -1 -1 -1 -1 -2 -2 -2 -2 -2 -2 -2
2 2 2 2 3 3 3 3 3 3 3 3 2 3 6 6 5 4 5 4 4 5 5 5 4 4 5 6 6 5 3 2 -0 -1 -1 -1 -1 -1 -2 -2 -2 -2 -2
1 2 1 1 2 2 2 2 2 2 2 3 2 2 2 3 5 6 5 6 6 5 5 5 6 5 6 7 6 5 4 3 1 -0 -0 -1 -2 -2 -2 -2 -2 -2 -2
1 1 1 2 2 1 1 1 1 2 1 2 2 2 2 2 2 4 6 5 6 6 6 6 6 7 7 8 8 5 3 2 1 1 0 -1 -2 -1 -2 -2 -2 -2 -2
2 1 1 1 0 1 1 1 1 1 1 1 2 1 2 3 4 4 4 4 5 6 7 7 7 7 7 8 6 5 3 1 2 2 0 -0 -1 -1 -1 -2 -2 -2 -2
2 2 2 2 2 1 1 2 2 2 2 1 1 1 1 1 2 3 3 4 4 7 8 8 8 8 8 8 7 5 4 2 1 0 -1 -0 1 -0 -0 -2 -2 -2 -2
3 2 2 2 2 2 2 3 3 2 2 2 2 2 2 2 2 2 3 4 5 6 9 8 9 9 8 8 7 5 5 4 3 1 1 2 2 2 2 -1 -1 -1 -1
4 3 3 3 3 3 2 3 3 3 2 2 2 2 2 1 1 1 1 2 3 6 7 8 9 9 9 8 7 7 6 4 4 4 4 4 4 4 3 2 1 1 2
4 4 4 4 4 4 4 5 5 5 5 5 4 4 4 4 4 3 2 2 3 3 5 8 9 9 8 8 7 8 7 6 5 5 5 5 4 4 4 3 3 3 3
6 5 5 5 5 6 6 6 5 5 4 4 5 3 4 4 5 5 4 4 4 4 5 11 10 9 9 9 9 8 8 8 7 6 6 6 5 4 4 4 3 4 3
7 7 7 7 8 8 8 8 7 6 6 6 6 4 4 4 6 5 5 6 6 5 6 9 11 10 10 9 9 10 10 10 9 7 7 6 5 5 5 5 5 5 5
9 9 9 9 9 9 9 9 8 8 7 6 6 6 6 6 7 6 6 7 7 7 7 9 11 10 10 9 10 11 11 11 10 7 7 7 6 6 7 6 6 6 6
10 10 9 9 10 10 9 9 9 9 9 8 8 8 8 8 8 6 6 6 7 8 8 9 11 11 11 10 10 12 14 14 14 13 11 12 9 8 8 8 8 8 7
10 10 10 11 11 10 8 9 9 10 10 10 10 10 10 8 6 6 6 7 7 7 8 9 11 11 12 12 12 12 14 15 15 15 15 15 14 14 13 10 10 10 9
11 11 11 11 11 9 6 6 8 10 10 11 11 11 11 9 8 6 6 6 6 8 9 9 11 11 12 12 12 12 15 15 16 15 15 16 15 16 14 14 10 10 9
12 12 12 11 12 11 7 7 7 11 11 11 11 11 10 9 9 9 9 8 8 7 6 8 10 10 11 12 12 14 14 14 14 16 16 17 15 15 14 14 9 9 9
12 12 11 11 12 11 8 7 7 12 12 12 12 12 11 11 10 10 11 12 12 12 11 9 10 10 10 11 11 12 13 15 15 15 16 17 16 16 15 15 10 9 9
12 13 11 10 11 13 9 7 9 11 12 13 11 10 10 11 10 9 12 13 13 12 10 9 9 10 10 10 12 13 14 14 16 16 16 16 16 16 15 15 14 10 10
12 12 11 10 10 12 9 8 8 10 11 12 13 12 11 9 9 9 13 13 14 13 13 13 13 13 13 11 11 15 15 16 17 18 15 16 17 16 17 16 15 15 14

GFSMA_con_lsi_111.txt.gz
Lid_Strength_Index
-0 -1 -1 -1 -1 -1 -1 -1 -1 -1 -1 -1 -1 -0 0 -1 -1 -1 -2 0 -1 -2 -1 -1 -1 -1 -1 -1 -1 -0 0 0 1 1 1 1 0 -0 -1 -1 -1 -1 -2
-1 -1 -1 -1 -1 -1 -1 -1 -0 -1 -1 -1 -1 -1 0 0 -0 -1 -1 -1 -1 -1 -1 -1 -1 -1 -1 -1 -1 -0 -0 0 1 1 1 1 1 0 -0 -0 -1 -1 -1
-1 -1 -1 -1 -1 -1 -1 -1 -1 -1 -1 -0 -0 -0 -0 1 1 0 -1 -1 -1 -0 -1 -1 -1 -2 -2 -2 -2 -2 -1 -1 -0 0 1 1 1 1 0 0 -0 -1 -1
-1 -1 -1 -1 -1 -1 -1 -1 -0 -0 0 0 0 0 0 0 1 2 0 -1 -1 -1 -1 -2 -2 -2 -2 -2 -2 -2 -2 -2 -1 -0 0 1 0 0 0 0 0 -0 -1
-1 -1 -1 -1 -1 -1 -1 -0 -0 0 1 1 1 1 0 1 1 2 2 2 1 -1 -1 -0 -0 -1 -2 -1 -1 -1 -1 -2 -2 -1 -1 -0 -0 -0 -1 -0 0 -0 -0
-1 -1 -1 -0 -0 -0 0 0 0 1 1 1 2 1 1 0 1 1 1 2 1 1 -1 -1 -0 -0 -0 -1 -1 -1 -1 -1 -1 -2 -1 -1 -1 -1 -1 -1 -0 -0 -0
-0 -1 -0 -0 -0 0 0 1 1 1 2 1 1 1 1 1 1 2 1 1 1 -0 -0 -0 -0 -1 -1 -0 -1 -1 -1 -1 -0 -1 -1 -1 -2 -2 -1 -1 -1 -1 -1
0 -0 -0 0 0 0 1 1 2 2 2 1 2 2 4 3 3 3 2 1 1 1 1 0 0 1 2 2 1 2 1 1 0 0 -0 -1 -1 -2 -2 -2 -2 -2 -2
1 1 0 -0 1 0 0 1 2 1 2 1 1 2 5 6 4 4 4 4 3 3 3 3 3 3 3 4 4 4 3 2 1 1 0 -1 -1 -1 -2 -2 -2 -2 -2
1 1 0 0 1 0 1 1 1 1 1 2 1 1 1 2 5 5 4 5 5 5 5 4 5 5 5 5 6 5 4 4 2 1 1 0 0 -0 -1 -2 -2 -2 -2
-0 0 0 0 1 1 1 1 1 1 0 1 2 2 2 2 2 4 6 4 4 5 4 5 5 5 6 6 6 5 3 2 2 1 1 1 0 -0 -0 -1 -2 -2 -2
0 -0 0 0 -0 0 0 -0 0 0 0 0 1 1 2 3 3 3 4 4 4 4 5 5 5 6 6 6 5 4 3 2 2 2 1 1 -0 -1 -1 -1 -2 -2 -2
1 1 1 0 0 -0 -0 0 0 1 0 1 1 1 1 1 1 2 3 4 4 2 5 6 6 5 6 6 5 5 4 1 1 0 -1 0 1 1 0 -0 -1 -2 -2
1 1 1 2 1 0 0 0 1 1 0 0 1 0 0 0 0 1 2 3 4 3 4 4 6 6 6 6 6 5 3 3 2 1 2 2 2 2 2 1 1 -2 -2
2 1 1 1 1 1 1 1 1 2 1 1 1 1 1 1 1 0 1 1 3 6 5 4 5 7 6 6 6 5 6 4 4 3 4 3 3 4 3 3 1 1 1
2 3 3 3 4 3 2 2 3 3 3 3 3 2 2 2 1 1 1 1 2 3 5 4 5 7 7 7 6 7 6 5 5 4 4 4 4 5 4 4 2 2 1
4 4 3 4 4 5 4 4 3 3 3 3 2 2 2 2 2 2 1 2 2 2 4 7 7 8 8 8 8 8 7 7 6 5 5 5 5 5 5 4 3 2 2
5 5 5 6 6 6 5 5 5 5 5 4 4 3 3 3 2 2 2 2 3 3 4 5 8 8 8 7 7 8 9 8 8 6 6 6 5 5 5 5 4 4 4
7 6 7 8 8 7 7 7 7 6 5 5 5 5 5 5 4 4 4 3 3 4 5 6 8 8 8 8 9 9 10 10 9 7 6 6 6 7 7 6 5 5 6
8 8 9 9 8 8 8 8 8 7 7 7 7 7 7 6 6 5 5 5 5 5 5 6 8 8 8 7 8 10 12 12 12 11 9 9 8 8 8 6 6 7 7
9 9 9 9 8 8 8 8 8 8 8 8 8 8 8 7 7 6 5 5 6 6 6 7 8 9 9 9 9 10 12 13 13 13 12 13 12 12 10 8 8 9 8
9 9 9 9 9 8 7 7 8 8 9 9 9 8 8 8 7 6 6 6 6 7 7 8 9 9 9 9 10 11 13 14 14 13 13 14 13 13 12 10 9 9 9
9 10 10 10 9 8 7 7 8 9 9 9 10 9 9 8 8 8 8 8 9 8 7 7 8 8 9 9 10 11 12 12 12 14 13 14 13 13 12 12 10 9 9
10 10 10 10 10 9 8 7 8 9 10 10 10 9 9 9 9 8 9 10 11 11 11 10 9 8 8 9 9 10 11 14 14 14 13 13 13 13 12 11 9 9 9
11 10 10 10 10 10 8 7 8 10 10 10 10 9 9 9 9 8 10 11 12 12 10 9 9 9 8 8 10 11 13 13 15 14 14 13 13 13 13 12 11 9 10
10 10 9 9 10 10 9 8 8 9 10 10 11 11 10 10 8 8 11 11 12 12 12 12 13 12 11 10 10 12 11 12 14 14 13 13 14 14 14 13 12 11 10

GFSMA_con_lsi_114.txt.gz
Lid_Strength_Index
-0 -1 -1 -1 -1 -1 -1 -1 -1 -1 -1 -1 -1 -1 -1 -1 -1 -2 -2 -1 -1 -1 -1 -1 -1 -1 -1 -1 -1 -1 -0 0 0 0 1 1 1 0 -0 -1 -1 -1 -1
-1 -1 -1 -1 -1 -1 -1 -1 -1 -1 -1 -1 -1 -1 -1 -1 -1 -1 -2 -1 -1 -1 -1 -1 -1 -1 -1 -1 -1 -1 -1 -1 -0 0 1 1 1 1 1 0 -0 -1 -1
-1 -1 -1 -1 -1 -1 -1 -1 -1 -1 -1 -1 -1 -1 -1 -1 -1 -1 -1 -2 -1 -1 -1 -1 -1 -1 -2 -2 -2 -2 -2 -1 -1 -0 0 1 1 1 1 1 -0 -1 -1
-1 -1 -1 -1 -1 -1 -1 -1 -1 -0 -0 -0 -0 -0 -1 -1 -1 -1 -1 -1 -1 -1 -1 -1 -2 -1 -2 -2 -2 -2 -2 -2 -1 -1 -0 1 1 1 1 1 0 -0 -0
-1 -1 -1 -1 -1 -1 -1 -0 -0 -0 0 0 -0 -0 -1 -1 -1 -1 -1 0 -0 -1 -1 -0 -0 -1 -2 -1 -2 -2 -2 -2 -2 -1 -1 -0 0 1 1 0 -0 -0 -0
-1 -1 -1 -1 -1 -0 -0 -0 0 -0 -0 -0 0 0 -0 -0 -1 -1 -1 -0 0 -0 -1 -1 -1 -1 -0 -2 -1 -1 -1 -1 -2 -2 -2 -1 -1 -0 -0 -0 -1 -1 -0
-1 -1 -1 -1 -1 -0 -0 -0 0 1 1 0 1 1 1 -0 -0 -0 -1 -0 -0 -0 -1 -1 -1 -1 -1 -1 -1 -1 -1 -1 -1 -1 -1 -2 -1 -1 -1 -1 -1 -1 -1
-1 -1 -1 -0 -0 -0 0 0 0 1 1 0 2 2 4 2 1 1 0 0 1 0 -0 0 -1 -1 -0 0 1 2 1 0 0 -0 -0 -0 -0 -1 -1 -1 -1 -1 -2
-1 -1 -1 -1 -0 -0 0 0 0 1 2 0 0 2 4 5 3 1 1 2 2 1 2 2 2 2 3 3 3 3 3 3 1 0 -0 -0 -0 -1 -1 -1 -2 -1 -2
-1 -1 -1 -1 -1 -1 -0 -0 -0 0 1 2 1 0 1 2 4 5 1 1 2 3 3 3 3 3 4 4 5 5 4 3 2 1 0 0 0 -0 -0 -1 -1 -2 -2
-1 -1 -1 -1 -0 -1 -0 1 1 1 0 1 1 1 2 1 1 4 5 4 3 3 3 3 4 5 5 5 4 4 3 3 1 1 0 0 0 -0 -0 -1 -1 -1 -2
0 -0 -0 -0 -0 -0 0 -0 -0 -0 0 0 1 1 2 3 3 3 4 4 3 3 4 4 4 3 4 5 5 4 4 3 1 1 1 0 0 0 0 -0 -1 -1 -1
1 0 -0 0 0 -0 -0 -0 -0 0 0 1 1 1 1 1 1 1 2 3 3 2 3 3 2 3 4 5 4 4 4 3 2 1 0 0 1 1 1 0 -0 -1 -2
1 -0 0 0 -0 -0 -0 -0 0 1 -0 0 0 0 0 0 0 1 2 3 4 3 2 2 2 2 2 3 3 5 3 3 2 1 0 2 3 2 2 1 1 -0 -2
1 1 0 0 0 -0 -0 -0 0 0 -0 0 0 0 0 0 1 0 0 1 3 5 4 2 2 3 2 3 3 3 3 4 3 3 3 3 4 3 3 3 2 2 0
1 1 1 1 1 1 0 -0 0 0 0 1 1 1 2 1 1 -0 0 0 2 3 5 1 1 2 3 3 3 3 3 4 4 4 4 4 4 4 4 4 3 3 2
1 2 2 2 2 2 1 1 1 2 2 2 1 1 2 1 1 0 0 0 1 1 4 2 2 3 5 4 4 5 4 4 4 4 4 4 5 4 4 4 4 3 3
2 3 3 3 3 3 2 2 3 3 2 2 2 2 2 2 2 1 1 2 2 1 3 3 4 5 5 4 4 5 6 6 5 5 4 5 5 5 5 5 5 5 4
4 4 3 4 4 4 5 4 4 4 3 3 3 3 3 3 3 3 3 3 3 3 3 4 5 6 6 6 6 7 8 7 7 5 5 5 5 5 6 6 6 6 6
5 5 5 5 6 6 6 6 6 5 5 5 5 5 4 4 4 4 4 4 4 4 4 5 6 7 7 6 7 8 9 9 10 9 7 7 6 6 6 7 7 7 7
6 6 7 6 7 6 7 6 6 6 6 6 6 6 6 6 7 6 5 5 5 6 5 6 7 7 8 9 9 9 10 11 11 11 11 11 10 9 8 7 8 8 8
7 7 7 7 6 7 7 7 6 7 7 7 7 6 6 7 7 7 6 6 6 6 7 7 7 8 8 8 9 10 12 12 12 11 12 12 11 11 11 9 9 9 9
7 7 7 6 6 6 7 7 8 7 7 8 8 7 7 7 7 7 7 8 8 8 8 8 8 7 8 8 9 11 11 11 11 12 11 12 12 12 11 10 10 9 9
7 7 8 7 7 6 7 7 8 7 7 8 8 7 7 7 7 7 7 8 8 9 9 9 9 9 8 8 8 9 10 12 13 13 12 12 12 12 11 10 9 8 9
9 8 8 7 7 7 6 7 7 7 8 8 8 7 7 7 8 8 9 10 9 9 10 9 9 9 8 8 8 11 12 12 13 14 13 13 13 12 11 11 9 8 9
9 8 8 7 7 7 7 6 7 7 8 8 8 8 9 8 9 8 8 9 10 10 10 11 11 11 10 9 10 12 11 12 12 13 13 13 13 12 13 12 10 9 10

GFSMA_con_lsi_117.txt.gz
Lid_Strength_Index
-0 -0 -0 -0 -1 -1 -1 -1 -1 -1 -1 -1 -1 -1 -1 -1 -1 -1 -1 -1 -1 -2 -1 -1 -1 -1 -1 -1 -1 -1 -1 -0 0 0 0 0 0 0 0 0 0 -0 -1
-1 -0 -0 -0 -1 -1 -1 -1 -1 -1 -1 -1 -1 -1 -1 -1 -1 -1 -1 -1 -1 -1 -1 -1 -1 -1 -1 -1 -1 -1 -1 -1 -0 0 1 1 1 1 1 1 1 0 -1
-1 -1 -0 -0 -1 -1 -1 -1 -1 -1 -0 -1 -0 -1 -1 -1 -1 -1 -1 -1 -1 -1 -1 -1 -1 -1 -1 -1 -1 -1 -1 -1 -1 -0 0 1 1 1 1 1 1 1 -0
-1 -1 -0 -0 -1 -1 -1 -1 -0 -0 0 0 0 -0 -0 -1 -1 -1 -1 -1 -2 -1 -1 -2 -1 -1 -1 -2 -2 -2 -2 -2 -1 -1 -0 0 1 1 1 1 1 1 0
-1 -1 -0 -1 -1 -1 -1 -0 -0 0 1 0 0 -0 -0 -0 -1 -1 -1 -1 -1 -1 -1 -1 -1 -1 -1 -1 -2 -2 -2 -2 -2 -2 -1 -1 -0 1 1 1 1 1 1
-1 -1 -1 -1 -1 -0 -0 -0 0 -0 0 1 1 1 0 -0 -1 -1 -0 -0 -1 -1 -1 -2 -1 -0 -0 -1 -1 -1 -1 -1 -2 -2 -2 -2 -1 -1 0 0 0 0 -0
-1 -1 -0 -0 -1 0 0 0 0 1 1 0 1 1 1 0 0 -0 -1 -1 -1 -1 -1 -1 -1 -1 0 -1 -1 -1 -1 -1 -1 -1 -1 -1 -1 -1 -1 -1 -0 -0 -1
-1 -1 -0 -0 -0 0 0 0 1 1 1 0 2 2 4 3 1 0 -0 -0 -0 -0 0 0 -0 -1 -1 -0 2 2 2 0 -1 -1 -1 -1 -1 -1 -1 -1 -1 -1 -1
-1 -1 -0 -0 -0 -0 1 0 0 1 2 1 1 2 4 5 3 1 1 1 1 0 1 2 1 1 2 3 3 3 3 2 1 -0 -1 -1 -1 -0 -1 -1 -1 -1 -1
-0 -1 -1 -0 -0 -0 0 0 -0 0 1 2 1 1 1 2 5 5 2 1 1 1 1 2 3 3 3 4 4 4 4 3 2 1 -0 -1 -1 -0 -0 -1 -1 -1 -1
-0 -0 -1 -0 -0 -0 -0 -0 0 1 1 1 2 2 2 2 2 4 5 3 2 1 1 3 3 4 5 4 3 3 3 2 1 0 -0 -1 -0 -0 -0 -1 -1 -1 -1
0 -0 -0 -0 -0 -0 -0 -0 0 0 0 1 1 1 2 3 3 3 4 4 3 2 0 1 2 2 2 2 3 3 3 2 1 0 -0 -0 -0 0 0 0 0 -0 -1
1 0 0 0 -0 -0 -0 -0 0 0 0 1 1 1 1 1 1 2 3 3 4 2 2 1 1 0 2 2 3 4 3 2 1 -0 -0 -0 -0 1 1 1 1 0 0
1 -0 0 -0 -0 -0 -0 -0 0 0 0 0 1 1 1 1 1 1 2 3 4 4 2 2 1 1 2 2 2 3 2 2 1 -1 -2 -0 1 2 2 2 1 1 0
0 0 -0 0 -0 -0 -0 -0 0 1 0 0 0 1 1 1 0 0 1 1 3 5 5 2 2 1 1 1 2 2 2 2 1 1 1 1 2 2 2 2 2 1 1
1 0 1 0 0 0 0 0 1 1 1 1 1 1 1 1 1 0 0 1 1 3 5 2 1 1 1 2 2 2 2 3 2 1 2 2 2 3 3 3 2 2 2
1 1 1 1 1 1 1 1 1 1 1 2 2 2 2 2 2 1 1 1 2 2 4 2 2 2 3 3 3 3 3 3 3 3 3 3 3 3 3 3 3 2 2
1 1 1 2 3 2 2 2 2 2 3 3 2 2 2 3 3 2 2 1 2 2 3 5 4 4 4 4 4 4 5 5 4 3 3 3 3 3 3 3 4 4 3
2 2 3 3 3 3 3 2 3 3 4 3 3 3 3 3 3 3 3 4 3 4 4 5 5 6 6 6 6 7 7 7 6 5 4 3 3 3 4 4 4 5 5
3 4 4 5 5 5 5 4 4 4 5 5 5 4 4 4 4 4 4 4 4 5 5 5 5 6 7 6 6 8 9 8 9 8 6 5 4 4 4 5 5 6 6
5 5 6 6 7 6 6 6 5 5 6 6 6 6 6 7 8 7 6 5 5 6 6 7 7 7 8 9 9 8 10 10 10 10 10 10 9 8 7 6 6 7 7
7 7 7 7 7 8 7 6 6 6 6 6 7 7 7 8 7 7 7 7 7 7 7 8 8 9 8 8 8 9 11 12 12 10 11 11 11 10 10 8 8 8 8
7 7 7 7 8 8 7 7 6 6 7 7 7 8 7 7 8 7 7 8 7 8 8 9 9 8 8 8 9 10 11 11 11 11 11 12 12 12 10 9 8 8 8
8 8 7 6 7 7 7 7 7 7 8 8 8 8 7 7 7 8 8 8 8 8 9 9 9 10 10 8 8 9 10 11 13 13 12 13 12 12 12 11 9 8 8
8 8 7 7 7 8 7 8 8 7 8 8 8 7 7 8 8 9 8 10 9 9 9 9 10 10 9 7 7 10 12 12 13 13 14 13 13 13 12 12 11 8 8
8 8 8 8 7 8 7 7 7 7 8 8 8 8 9 8 9 8 9 9 11 10 11 11 12 12 11 11 10 12 11 12 13 13 13 13 13 13 14 13 12 11 11

GFSMA_con_lsi_120.txt.gz
Lid_Strength_Index
0 -0 0 0 0 1 0 0 1 1 1 1 1 1 1 1 1 0 0 -0 -1 -2 -1 -1 -1 -1 -1 -1 -1 -0 0 1 0 -0 -0 0 0 -0 -0 -0 -0 0 -0
0 -0 0 1 1 0 1 1 1 1 1 1 1 1 1 2 1 1 0 -0 -1 -1 -2 -1 -1 -1 -1 -1 -1 -0 -0 0 0 0 1 1 1 1 1 0 0 0 0
0 0 0 0 0 0 1 1 2 2 2 1 2 2 2 2 1 1 0 0 -0 -0 -1 -1 -1 -1 -1 -1 -1 -1 -1 -1 -1 -0 0 1 1 1 1 1 1 1 1
-0 0 0 0 1 2 2 1 2 2 1 1 2 2 1 1 2 2 1 1 -0 -0 -1 -2 -2 -1 -2 -2 -2 -2 -1 -1 -1 -1 -1 -0 1 1 1 1 1 1 1
1 -0 0 1 2 2 1 2 2 1 2 2 2 2 2 2 1 1 2 1 1 0 0 -0 -1 -1 -1 -2 -2 -2 -2 -2 -2 -2 -2 -1 -1 0 1 1 1 1 1
1 1 2 2 2 1 1 1 1 1 1 2 1 2 2 1 1 2 1 1 1 1 1 -0 -0 -0 -0 -2 -1 -1 -1 -1 -1 -1 -1 -2 -2 -1 -1 -0 0 1 1
1 2 2 1 1 1 1 1 1 2 2 2 2 3 2 2 2 2 1 1 1 0 0 -0 -0 0 0 -1 -1 -1 -1 -1 -1 -1 -1 -1 -2 -2 -2 -1 -1 -0 0
1 1 1 1 0 1 1 1 1 2 2 2 3 3 5 3 3 2 2 2 2 1 2 2 1 1 1 2 2 1 1 0 -0 -1 -2 -1 -1 -1 -2 -1 -2 -1 -1
1 0 0 0 1 1 2 1 1 2 3 2 2 3 6 7 4 3 3 3 3 2 3 3 2 2 2 3 3 3 2 1 0 -0 -1 -1 -2 -1 -1 -1 -1 -1 -1
0 -0 0 0 1 1 1 1 1 1 2 3 2 1 2 2 5 6 3 3 3 3 3 3 3 3 3 3 3 3 2 1 0 -1 -1 -2 -1 -1 -2 -2 -2 -1 -1
0 0 0 0 1 1 1 1 2 2 2 2 2 2 3 2 2 4 6 5 3 3 3 3 4 4 4 4 4 3 2 1 -0 -1 -2 -2 -2 -2 -1 -1 -1 -1 -1
1 1 1 1 1 1 2 2 2 1 1 1 1 2 3 3 4 4 4 4 4 3 3 3 3 4 4 4 3 3 3 2 1 -1 -2 -2 -2 -1 -1 -1 -1 -1 -1
2 2 1 0 1 1 1 1 1 1 1 1 1 2 2 2 1 2 3 4 4 2 3 3 3 3 3 3 4 3 3 2 1 -0 -2 -2 -2 -1 -1 -0 -0 -1 -1
1 1 1 1 1 0 1 1 1 1 1 1 1 1 1 2 2 2 3 4 5 4 4 4 4 4 4 4 3 3 4 2 1 -1 -1 -1 -0 0 1 0 0 0 0
1 1 0 1 1 1 1 1 1 1 1 1 1 1 2 2 2 3 2 2 4 6 6 5 5 4 3 3 3 2 2 1 1 1 1 1 2 1 1 1 1 1 1
1 1 1 1 2 1 1 1 1 1 2 2 2 2 2 4 3 3 3 3 3 4 6 5 4 4 4 3 3 3 3 3 2 1 1 2 2 2 2 2 1 1 1
1 1 1 1 1 1 1 2 2 2 2 3 3 3 4 3 4 4 4 4 3 3 5 5 5 4 4 4 4 4 4 4 3 2 2 2 3 2 2 2 1 1 1
1 1 1 2 2 2 2 2 3 3 3 4 4 4 5 4 5 5 5 5 4 4 5 6 5 5 5 5 5 5 6 5 5 3 3 3 2 2 2 3 2 2 1
1 2 2 2 3 3 3 3 4 4 5 5 5 5 6 6 6 6 6 7 6 5 5 6 6 6 6 7 7 7 7 7 7 6 4 3 2 2 3 3 3 3 3
3 3 3 3 4 4 4 5 5 6 6 6 6 6 7 7 7 7 6 7 7 8 7 7 7 7 7 7 7 8 9 9 9 7 6 4 3 3 4 4 4 4 4
4 5 6 6 7 7 7 7 7 7 8 8 8 7 8 9 8 7 8 9 8 8 8 8 9 9 10 10 9 8 10 11 10 9 9 8 8 7 6 5 5 5 5
6 7 8 8 8 8 7 7 7 8 8 8 9 9 9 9 8 7 7 7 8 10 10 9 10 10 9 8 9 10 11 12 12 10 10 10 10 10 9 8 6 6 6
7 7 8 9 9 9 7 6 7 8 9 9 9 9 9 8 8 8 7 8 8 8 8 10 10 10 9 9 9 11 12 12 11 11 11 11 11 11 10 9 7 7 7
8 8 9 9 9 9 7 7 8 9 9 9 9 9 9 10 9 9 9 10 10 10 10 10 12 12 11 11 11 10 10 11 12 12 11 12 12 12 11 11 8 7 7
10 10 9 8 9 10 8 7 8 9 10 10 9 9 9 10 8 8 10 12 11 11 9 9 10 9 9 8 8 11 13 12 13 12 13 12 13 13 12 12 11 8 8
9 9 10 9 9 10 8 8 8 9 10 10 10 10 8 9 7 8 10 10 11 13 13 13 14 13 12 12 11 12 12 12 12 12 12 13 13 13 14 13 12 11 12